[[{"header":{"parameterUnit":"m.s-1","parameterCategory":1,"la1":31.0,"la2":29.5877,"lo1":-88.7671,"lo2":-86.6584,"dy":0.0162,"dx":0.0185,"nx":115,"ny":88,"refTime":"2026-05-24T12:00:00:Z","depth":0,"parameterNumber":2,"parameterNumberName":"U-component_of_WINDS"},"data":[0.0,0.0,0.0,0.0,0.0,0.0,0.0,0.0,0.0,0.0,0.0,0.0,0.0,0.0,0.0,0.0,0.0,0.0,0.0,0.0,0.0,0.0,0.0,0.0,0.0,0.0,0.0,0.0,0.0,0.0,0.0,0.0,0.0,0.0,0.0,0.0,0.0,0.0,0.0,0.0,0.0,0.0,0.0,0.0,0.0,0.0,0.0,0.0,0.0,0.0,0.0,0.0,0.0,0.0,0.0,0.0,0.0,0.0,0.0,0.0,0.0,0.0,0.0,0.0,0.0,0.0,0.0,0.0,0.0,0.0,0.0,0.0,0.0,0.0,0.0,0.0,0.0,0.0,0.0,0.0,0.0,0.0,0.0,0.0,0.0,0.0,0.0,0.0,0.0,0.0,0.0,0.0,0.0,0.0,0.0,0.0,0.0,0.0,0.0,0.0,0.0,0.0,0.0,0.0,0.0,0.0,0.0,0.0,0.0,0.0,0.0,0.0,0.0,0.0,0.0,0.0,0.0,0.0,0.0,0.0,0.0,0.0,0.0,0.0,0.0,0.0,0.0,0.0,0.0,0.0,0.0,0.0,0.0,0.0,0.0,0.0,0.0,0.0,0.0,0.0,0.0,0.0,0.0,0.0,0.0,0.0,0.0,0.0,0.0,0.0,0.0,0.0,0.0,0.0,0.0,0.0,0.0,0.0,0.0,0.0,0.0,0.0,0.0,0.0,0.0,0.0,0.0,0.0,0.0,0.0,0.0,0.0,0.0,0.0,0.0,0.0,0.0,0.0,0.0,0.0,0.0,0.0,0.0,0.0,0.0,0.0,0.0,0.0,0.0,0.0,0.0,0.0,0.0,0.0,0.0,0.0,0.0,0.0,0.0,0.0,0.0,0.0,0.0,0.0,0.0,0.0,0.0,0.0,0.0,0.0,0.0,0.0,0.0,0.0,0.0,0.0,0.0,0.0,0.0,0.0,0.0,0.0,0.0,0.0,0.0,0.0,0.0,0.0,0.0,0.0,0.0,0.0,0.0,0.0,0.0,0.0,0.0,0.0,0.0,0.0,0.0,0.0,0.0,0.0,0.0,0.0,0.0,0.0,0.0,0.0,0.0,0.0,0.0,0.0,0.0,0.0,0.0,0.0,0.0,0.0,0.0,0.0,0.0,0.0,0.0,0.0,0.0,0.0,0.0,0.0,0.0,0.0,0.0,0.0,0.0,0.0,0.0,0.0,0.0,0.0,0.0,0.0,0.0,0.0,0.0,0.0,0.0,0.0,0.0,0.0,0.0,0.0,0.0,0.0,0.0,0.0,0.0,0.0,0.0,0.0,0.0,0.0,0.0,0.0,0.0,0.0,0.0,0.0,0.0,0.0,0.0,0.0,0.0,0.0,0.0,0.0,0.0,0.0,0.0,0.0,0.0,0.0,0.0,0.0,0.0,0.0,0.0,0.0,0.0,0.0,0.0,0.0,0.0,0.0,0.0,0.0,0.0,0.0,0.0,0.0,0.0,0.0,0.0,0.0,0.0,0.0,0.0,0.0,0.0,0.0,0.0,0.0,0.0,0.0,0.0,0.0,0.0,0.0,0.0,0.0,0.0,0.0,0.0,0.0,0.0,0.0,0.0,0.0,0.0,0.0,0.0,0.0,0.0,0.0,0.0,0.0,0.0,0.0,0.0,0.0,0.0,0.0,0.0,0.0,0.0,0.0,0.0,0.0,0.0,0.0,0.0,0.0,0.0,0.0,0.0,0.0,0.0,0.0,0.0,0.0,0.0,0.0,0.0,0.0,0.0,0.0,0.0,0.0,0.0,0.0,0.0,0.0,0.0,0.0,0.0,0.0,0.0,0.0,0.0,0.0,0.0,0.0,0.0,0.0,0.0,0.0,0.0,0.0,0.0,0.0,0.0,0.0,0.0,0.0,0.0,0.0,0.0,0.0,0.0,0.0,0.0,0.0,0.0,0.0,0.0,0.0,0.0,0.0,0.0,0.0,0.0,0.0,0.0,0.0,0.0,0.0,0.0,0.0,0.0,0.0,0.0,0.0,0.0,0.0,0.0,0.0,0.0,0.0,0.0,0.0,0.0,0.0,0.0,0.0,0.0,0.0,0.0,0.0,0.0,0.0,0.0,0.0,0.0,0.0,0.0,0.0,0.0,0.0,0.0,0.0,0.0,0.0,0.0,0.0,0.0,0.0,0.0,0.0,0.0,0.0,0.0,0.0,0.0,0.0,0.0,0.0,0.0,0.0,0.0,0.0,0.0,0.0,0.0,0.0,0.0,0.0,0.0,0.0,0.0,0.0,0.0,0.0,0.0,0.0,0.0,0.0,0.0,0.0,0.0,0.0,0.0,0.0,0.0,0.0,0.0,0.0,0.0,0.0,0.0,0.0,0.0,0.0,0.0,0.0,0.0,0.0,0.0,0.0,0.0,0.0,0.0,0.0,0.0,0.0,0.0,0.0,0.0,0.0,0.0,0.0,0.0,0.0,0.0,0.0,0.0,0.0,0.0,0.0,0.0,0.0,0.0,0.0,0.0,0.0,0.0,0.0,0.0,0.0,0.0,0.0,0.0,0.0,0.0,0.0,0.0,0.0,0.0,0.0,0.0,0.0,0.0,0.0,0.0,0.0,0.0,0.0,0.0,0.0,0.0,0.0,0.0,0.0,0.0,0.0,0.0,0.0,0.0,0.0,0.0,0.0,0.0,0.0,0.0,0.0,0.0,0.0,0.0,0.0,0.0,0.0,0.0,0.0,0.0,0.0,0.0,0.0,0.0,0.0,0.0,0.0,0.0,0.0,0.0,0.0,0.0,0.0,0.0,0.0,0.0,0.0,0.0,0.0,0.0,0.0,0.0,0.0,0.0,0.0,0.0,0.0,0.0,0.0,0.0,0.0,0.0,0.0,0.0,0.0,0.0,0.0,0.0,0.0,0.0,0.0,0.0,0.0,0.0,0.0,0.0,0.0,0.0,0.0,0.0,0.0,0.0,0.0,0.0,0.0,0.0,0.0,0.0,0.0,0.0,0.0,0.0,0.0,0.0,0.0,0.0,0.0,0.0,0.0,0.0,0.0,0.0,0.0,0.0,0.0,0.0,0.0,0.0,0.0,0.0,0.0,0.0,0.0,0.0,0.0,0.0,0.0,0.0,0.0,0.0,0.0,0.0,0.0,0.0,0.0,0.0,0.0,0.0,0.0,0.0,0.0,0.0,0.0,0.0,0.0,0.0,0.0,0.0,0.0,0.0,0.0,0.0,0.0,0.0,0.0,0.0,0.0,0.0,0.0,0.0,0.0,0.0,0.0,0.0,0.0,0.0,0.0,0.0,0.0,0.0,0.0,0.0,0.0,0.0,0.0,0.0,0.0,0.0,0.0,0.0,0.0,0.0,0.0,0.0,0.0,0.0,0.0,0.0,0.0,0.0,0.0,0.0,0.0,0.0,0.0,0.0,0.0,0.0,0.0,0.0,0.0,0.0,0.0,0.0,0.0,0.0,0.0,0.0,0.0,0.0,0.0,0.0,0.0,0.0,0.0,0.0,0.0,0.0,0.0,0.0,0.0,0.0,0.0,0.0,0.0,0.0,0.0,0.0,0.0,0.0,0.0,0.0,0.0,0.0,0.0,0.0,0.0,0.0,0.0,0.0,0.0,0.0,0.0,0.0,0.0,0.0,0.0,0.0,0.0,0.0,0.0,0.0,0.0,0.0,0.0,0.0,0.0,0.0,0.0,0.0,0.0,0.0,0.0,0.0,0.0,0.0,0.0,0.0,0.0,0.0,0.0,0.0,0.0,0.0,0.0,0.0,0.0,0.0,0.0,0.0,0.0,0.0,0.0,0.0,0.0,0.0,0.0,0.0,0.0,0.0,0.0,0.0,0.0,0.0,0.0,0.0,0.0,0.0,0.0,0.0,0.0,0.0,0.0,0.0,0.0,0.0,0.0,0.0,0.0,0.0,0.0,0.0,0.0,0.0,0.0,0.0,0.0,0.0,0.0,0.0,0.0,0.0,0.0,0.0,0.0,0.0,0.0,0.0,0.0,0.0,0.0,0.0,0.0,0.0,0.0,0.0,0.0,0.0,0.0,0.0,0.0,0.0,0.0,0.0,0.0,0.0,0.0,0.0,0.0,0.0,0.0,0.0,0.0,0.0,0.0,0.0,0.0,0.0,0.0,0.0,0.0,0.0,0.0,0.0,0.0,0.0,0.0,0.0,0.0,0.0,0.0,0.0,0.0,0.0,0.0,0.0,0.0,0.0,0.0,0.0,0.0,0.0,0.0,0.0,0.0,0.0,0.0,0.0,0.0,0.0,0.0,0.0,0.0,0.0,0.0,0.0,0.0,0.0,0.0,0.0,0.0,0.0,0.0,0.0,0.0,0.0,0.0,0.0,0.0,0.0,0.0,0.0,0.0,0.0,0.0,0.0,0.0,0.0,0.0,0.0,0.0,0.0,0.0,0.0,0.0,0.0,0.0,0.0,0.0,0.0,0.0,0.0,0.0,0.0,0.0,0.0,0.0,0.0,0.0,0.0,0.0,0.0,0.0,0.0,0.0,0.0,0.0,0.0,0.0,0.0,0.0,0.0,0.0,0.0,0.0,0.0,0.0,0.0,0.0,0.0,0.0,0.0,0.0,0.0,0.0,0.0,0.0,0.0,0.0,0.0,0.0,0.0,0.0,0.0,0.0,0.0,0.0,0.0,0.0,0.0,0.0,0.0,0.0,0.0,0.0,0.0,0.0,0.0,0.0,0.0,0.0,0.0,0.0,0.0,0.0,0.0,0.0,0.0,0.0,0.0,0.0,0.0,0.0,0.0,0.0,0.0,0.0,0.0,0.0,0.0,0.0,0.0,0.0,0.0,0.0,0.0,0.0,0.0,0.0,0.0,0.0,0.0,0.0,0.0,0.0,0.0,0.0,0.0,0.0,0.0,0.0,0.0,0.0,0.0,0.0,0.0,0.0,0.0,0.0,0.0,0.0,0.0,0.0,0.0,0.0,0.0,0.0,0.0,0.0,0.0,0.0,0.0,0.0,0.0,0.0,0.0,0.0,0.0,0.0,0.0,0.0,0.0,0.0,0.0,0.0,0.0,0.0,0.0,0.0,0.0,0.0,0.0,0.0,0.0,0.0,0.0,0.0,0.0,0.0,0.0,0.0,0.0,0.0,0.0,0.0,0.0,0.0,0.0,0.0,0.0,0.0,0.0,0.0,0.0,0.0,0.0,0.0,0.0,0.0,0.0,0.0,0.0,0.0,0.0,0.0,0.0,0.0,0.0,0.0,0.0,0.0,-0.0782,-0.0554,-0.0075,0.0,0.0,0.0,0.0,0.0,0.0,0.0,0.0,0.0,0.0,0.0,0.0,0.0,0.0,0.0,0.0,0.0,0.0,0.0,0.0,0.0,0.0,0.0,0.0,0.0,0.0,0.0,0.0,0.0,0.0,0.0,0.0,0.0,0.0,0.0,0.0,0.0,0.0,0.0,0.0,0.0,0.0,0.0,0.0,0.0,0.0,0.0,0.0,0.0,0.0,0.0,0.0,0.0,0.0,0.0,0.0,0.0,0.0,0.0,0.0,0.0,0.0,0.0,0.0,0.0,0.0,0.0,0.0,0.0,0.0,0.0,0.0,0.0,0.0,0.0,0.0,0.0,0.0,0.0,0.0,0.0,0.0,0.0,0.0,0.0,0.0,0.0,0.0,0.0,0.0,0.0,0.0,0.0,0.0,0.0,0.0,0.0,0.0,0.0,0.0,0.0,0.0,0.0,0.0,0.0,0.0,0.0,0.0,0.0,0.0,-0.2634,-0.2632,-0.3101,0.0,-0.023,0.0,0.0,0.0,0.0,0.0,0.0,0.0,0.0,0.0,0.0,0.0,0.0,0.0,0.0,0.0,0.0,0.0,0.0,0.0,0.0,0.0,0.0,0.0,0.0,0.0,0.0,0.0,0.0,0.0,0.0,0.0,0.0,0.0,0.0,0.0,0.0,0.0,0.0,0.0,0.0,0.0,0.0,0.0,0.0,0.0,0.0,0.0,0.0,0.0,0.0,0.0,0.0,0.0,0.0,0.0,0.0,0.0,0.0,0.0,0.0,0.0,0.0,0.0,0.0,0.0,0.0,0.0,0.0,0.0,0.0,0.0,0.0,0.0,0.0,0.0,0.0,0.0,0.0,0.0,0.0,0.0,0.0,0.0,0.0,0.0,0.0,0.0,0.0,0.0,0.0,0.0,0.0,0.0,0.0,0.0,0.0,0.0,0.0,0.0,0.0,0.0,0.0,0.0,0.0,0.0,0.0,0.0,0.0,0.0,0.0,-0.4244,-0.5831,-0.4458,-0.2543,0.0,0.0,0.0,0.0,0.0,0.0,0.0,0.0,0.0,0.0,0.0,0.0,0.0,0.0,0.0,0.0,0.0,0.0,0.0,0.0,0.0,0.0,0.0,0.0,0.0,0.0,0.0,0.0,0.0,0.0,0.0,0.0,0.0,0.0,0.0,0.0,0.0,0.0,0.0,0.0,0.0,0.0,0.0,0.0,0.0,0.0,0.0,0.0,0.0,0.0,0.0,0.0,0.0,0.0,0.0,0.0,0.0,0.0,0.0,0.0,0.0,0.0,0.0,0.0,0.0,0.0,0.0,0.0,0.0,0.0,0.0,0.0,0.0,0.0,0.0,0.0,0.0,0.0,0.0,0.0,0.0,0.0,0.0,0.0,0.0,0.0,0.0,0.0,0.0,0.0,0.0,0.0,0.0,0.0,0.0,0.0,0.0,0.0,0.0,0.0,0.0,0.0,0.0,0.0,0.0,0.0,0.0,0.0,0.0,0.0,-0.3518,-0.5177,-0.7586,-0.5126,-0.2805,-0.1063,0.0,0.0,0.0,0.0,0.0,0.0,0.0,0.0,0.0,0.0,0.0,0.0,0.0,0.0,0.0,0.0,0.0,0.0,0.0,0.0,0.0,0.0,0.0,0.0,0.0,0.0,0.0,0.0,0.0,0.0,0.0,0.0,0.0,0.0,0.0,0.0,0.0,0.0,0.0,0.0,0.0,0.0,0.0,0.0,0.0,0.0,0.0,0.0,0.0,0.0,0.0,0.0,0.0,0.0,0.0,0.0,0.0,0.0,0.0,0.0,0.0,0.0,0.0,0.0,0.0,0.0,0.0,0.0,0.0,0.0,0.0,0.0,0.0,0.0,0.0,0.0,0.0,0.0,0.0,0.0,0.0,0.0,0.0,0.0,0.0,0.0,0.0,0.0,0.0,0.0,0.0,0.0,0.0,0.0,0.0,0.0,0.0,0.0,0.0,0.0,0.0,0.0,0.0,0.0,0.0,0.0,0.0,0.0,0.0,-0.2588,-0.5152,-0.7674,-0.4991,-0.3458,0.0,0.0,0.0,0.0,0.0,0.0,0.0,0.0,0.0,0.0,0.0,0.0,0.0,0.0,0.0,0.0,0.0,0.0,0.0,0.0,0.0,0.0,0.0,0.0,0.0,0.0,0.0,0.0,0.0,0.0,0.0,0.0,0.0,0.0,0.0,0.0,0.0,0.0,0.0,0.0,0.0,0.0,0.0,0.0,0.0,0.0,0.0,0.0,0.0,0.0,0.0,0.0,0.0,0.0,0.0,0.0,0.0,0.0,0.0,0.0,0.0,0.0,0.0,0.0,0.0,0.0,0.0,0.0,0.0,0.0,0.0,0.0,0.0,0.0,0.0,0.0,0.0,0.0,0.0,0.0,0.0,0.0,0.0,0.0,0.0,0.0,0.0,0.0,0.0,0.0,0.0,0.0,0.0,0.0,0.0,0.0,0.0,0.0,0.0,0.0,0.0,0.0,0.0,0.0,0.0,0.0,0.0,0.0,0.0,0.0,-0.0924,-0.2663,-0.5207,-0.5929,-0.5508,0.0,0.0,0.0,0.0,0.0,0.0,0.0,0.0,0.0,0.0,0.0,0.0,0.0,0.0,0.0,0.0,0.0,0.0,0.0,0.0,0.0,0.0,0.0,0.0,0.0,0.0,0.0,0.0,0.0,0.0,0.0,0.0,0.0,0.0,0.0,0.0,0.0,0.0,0.0,0.0,0.0,0.0,0.0,0.0,0.0,0.0,0.0,0.0,0.0,0.0,0.0,0.0,0.0,0.0,0.0,0.0,0.0,0.0,0.0,0.0,0.0,0.0,0.0,0.0,0.0,0.0,0.0,0.0,0.0,0.0,0.0,0.0,0.0,0.0,0.0,0.0,0.0,0.0,0.0,0.0,0.0,0.0,0.0,0.0,0.0,0.0,0.0,0.0,0.0,0.0,0.0,0.0,0.0,0.0,0.0,0.0,0.0,0.0,0.0,0.0,0.0,0.0,0.0,0.0,0.0,0.0,0.0,0.0,0.0,-0.1262,0.0,-0.1304,0.0,-0.4812,-0.4937,0.0,0.0,0.0,0.0,0.0,0.0,0.0,0.0,0.0,0.0,0.0,0.0,0.0,0.0,0.0,0.0,0.0,0.0,0.0,0.0,0.0,0.0,0.0,0.0,0.0,0.0,0.0,0.0,0.0,0.0,0.0,0.0,0.0,0.0,0.0,0.0,0.0,0.0,0.0,0.0,0.0,0.0,0.0,0.0,0.0,0.0,0.0,0.0,0.0,0.0,0.0,0.0,0.0,0.0,0.0,0.0,0.0,0.0,0.0,0.0,0.0,0.0,0.0,0.0,0.0,0.0,0.0,0.0,0.0,0.0,0.0,0.0,0.0,0.0,0.0,0.0,0.0,0.0,0.0,0.0,0.0,0.0,0.0,0.0,0.0,0.0,0.0,0.0,0.0,0.0,0.0,0.0,0.0,0.0,0.0,0.0,0.0,0.0,0.0,0.0,0.0,0.0,0.0,0.0,0.0,0.0,0.0,0.0,-0.1373,-0.3909,-0.2722,-0.1493,-0.0184,-0.1518,-0.148,0.0,0.0,0.0,0.0,0.0,0.0,0.0,0.0,0.0,0.0,0.0,0.0,0.0,0.0,0.0,0.0,0.0,0.0,0.0,0.0,0.0,0.0,0.0,0.0,0.0,0.0,0.0,0.0,0.0,0.0,0.0,0.0,0.0,0.0,0.0,0.0,0.0,0.0,0.0,0.0,0.0,0.0,0.0,0.0,0.0,0.0,0.0,0.0,0.0,0.0,0.0,0.0,0.0,0.0,0.0,0.0,0.0,0.0,0.0,0.0,0.0,0.0,0.0,0.0,0.0,0.0,0.0,0.0,0.0,0.0,0.0,0.0,0.0,0.0,0.0,0.0,0.0,0.0,0.0,0.0,0.0,0.0,0.0,0.0,0.0,0.0,0.0,0.0,0.0,0.0,0.0,0.0,0.0,0.0,0.0,0.0,0.0,0.0,0.0,0.0,0.0,0.0,0.0,0.0,0.0,0.0,0.0,0.0,0.0,-0.5368,-0.4046,-0.3116,-0.2698,-0.2247,-0.1601,0.0,0.0,0.0,0.0,0.0,0.0,0.0,0.0,0.0,0.0,0.0,0.0,0.0,0.0,0.0,0.0,0.0,0.0,0.0,0.0,0.0,0.0,0.0,0.0,0.0,0.0,0.0,0.0,0.0,0.0,0.0,0.0,0.0,0.0,0.0,0.0,0.0,0.0,0.0,0.0,0.0,0.0,0.0,0.0,0.0,0.0,0.0,0.0,0.0,0.0,0.0,0.0,0.0,0.0,0.0,0.0,0.0,0.0,0.0,0.0,0.0,0.0,0.0,0.0,0.0,0.0,0.0,0.0,0.0,0.0,0.0,0.0,0.0,0.0,0.0,0.0,0.0,0.0,0.0,0.0,0.0,0.0,0.0,0.0,0.0,0.0,0.0,0.0,0.0,0.0,0.0,0.0,0.0,0.0,0.0,0.0,0.0,0.0,0.0,0.0,0.0,0.0,0.0,0.0,0.0,0.0,0.0,0.0,0.0,-0.5961,-0.5701,-0.4987,-0.3956,-0.3127,-0.2525,-0.2151,0.0,0.0,0.0,0.0,0.0,0.0,0.0,0.0,0.0,0.0,0.0,0.0,0.0,0.0,0.0,0.0,0.0,0.0,0.0,0.0,0.0,0.0,0.0,0.0,0.0,0.0,0.0,0.0,0.0,0.0,0.0,0.0,0.0,0.0,0.0,0.0,0.0,0.0,0.0,0.0,0.0,0.0,0.0,0.0,0.0,0.0,0.0,0.0,0.0,0.0,0.0,0.0,0.0,0.0,0.0,0.0,0.0,0.0,0.0,0.0,0.0,0.0,0.0,0.0,0.0,0.0,0.0,0.0,0.0,0.0,0.0,0.0,0.0,0.0,0.0,0.0,0.0,0.0,0.0,0.0,0.0,0.0,0.0,0.0,0.0,0.0,0.0,0.0,0.0,0.0,0.0,0.0,0.0,0.0,0.0,0.0,0.0,0.0,0.0,0.0,0.0,0.0,0.0,0.0,0.0,0.0,0.0,0.0,-0.5992,-0.745,-0.6903,-0.431,-0.4069,-0.3973,0.0,0.0,0.0,0.0,0.0,0.0,0.0,0.0,0.0,0.0,0.0,0.0,0.0,0.0,0.0,0.0,0.0,0.0,0.0,0.0,0.0,0.0,0.0,0.0,0.0,0.0,0.0,0.0,0.0,0.0,0.0,0.0,0.0,0.0,0.0,0.0,0.0,0.0,0.0,0.0,0.0,0.0,0.0,0.0,0.0,0.0,0.0,0.0,0.0,0.0,0.0,0.0,0.0,0.0,0.0,0.0,0.0,0.0,0.0,0.0,0.0,0.0,0.0,0.0,0.0,0.0,0.0,0.0,0.0,0.0,0.0,0.0,0.0,0.0,0.0,0.0,0.0,0.0,0.0,0.0,0.0,0.0,0.0,0.0,0.0,0.0,0.0,0.0,0.0,0.0,0.0,0.0,0.0,0.0,0.0,0.0,0.0,0.0,0.0,0.0,0.0,0.0,0.0,0.0,0.0,0.0,0.0,0.0,0.0,-0.6059,-0.7656,-0.7831,-0.6463,-0.543,-0.4657,0.0,0.0,0.0,0.0,0.0,0.0,0.0,0.0,0.0,0.0,0.0,0.0,0.0,0.0,0.0,0.0,0.0,0.0,0.0,0.0,0.0,0.0,0.0,0.0,0.0,0.0,0.0,0.0,0.0,0.0,0.0,0.0,0.0,0.0,0.0,0.0,0.0,0.0,0.0,0.0,0.0,0.0,0.0,0.0,0.0,0.0,0.0,0.0,0.0,0.0,0.0,0.0,0.0,0.0,0.0,0.0,0.0,0.0,0.0,0.0,0.0,0.0,0.0,0.0,0.0,0.0,0.0,0.0,0.0,0.0,0.0,0.0,0.0,0.0,0.0,0.0,0.0,0.0,0.0,0.0,0.0,0.0,0.0,0.0,0.0,0.0,0.0,0.0,0.0,0.0,0.0,0.0,0.0,0.0,0.0,0.0,0.0,0.0,0.0,0.0,0.0,0.0,0.0,0.0,0.0,0.0,0.0,0.0,-0.4549,-0.6519,-0.7812,-0.8257,-0.7812,-0.6668,-0.5442,0.0,0.0,0.0,0.0,0.0,0.0,0.0,0.0,0.0,0.0,0.0,0.0,0.0,0.0,0.0,0.0,0.0,0.0,0.0,0.0,0.0,0.0,0.0,0.0,0.0,0.0,0.0,0.0,0.0,0.0,0.0,0.0,0.0,0.0,0.0,0.0,0.0,0.0,0.0,0.0,0.0,0.0,0.0,0.0,0.0,0.0,0.0,0.0,0.0,0.0,0.0,0.0,0.0,0.0,0.0,0.0,0.0,0.0,0.0,0.0,0.0,0.0,0.0,0.0,0.0,0.0,0.0,0.0,0.0,0.0,0.0,0.0,0.0,0.0,0.0,0.0,0.0,0.0,0.0,0.0,0.0,0.0,0.0,0.0,0.0,0.0,0.0,0.0,0.0,0.0,0.0,0.0,0.0,0.0,0.0,0.0,0.0,0.0,0.0,0.0,0.0,0.0,0.0,0.0,0.0,0.0,0.0,0.0,-0.4766,-0.7167,-0.7932,-0.839,-0.8467,-0.7644,-0.6224,0.0,0.0,0.0,0.0,0.0,0.0,0.0,0.0,0.0,0.0,0.0,0.0,0.0,0.0,0.0,0.0,0.0,0.0,0.0,0.0,0.0,0.0,0.0,0.0,0.0,0.0,0.0,0.0,0.0,0.0,0.0,0.0,0.0,0.0,0.0,0.0,0.0,0.0,0.0,0.0,0.0,0.0,0.0,0.0,0.0,0.0,0.0,0.0,0.0,0.0,0.0,0.0,0.0,0.0,0.0,0.0,0.0,0.0,0.0,0.0,0.0,0.0,0.0,0.0,0.0,0.0,0.0,0.0,0.0,0.0,0.0,0.0,0.0,0.0,0.0,0.0,0.0,0.0,0.0,0.0,0.0,0.0,0.0,0.0,0.0,0.0,0.0,0.0,0.0,0.0,0.0,0.0,0.0,0.0,0.0,0.0,0.0,0.0,0.0,0.0,0.0,0.0,0.0,0.0,0.0,0.0,0.0,0.0,-0.573,-0.7305,-0.808,-0.845,-0.8428,-0.7628,-0.6636,0.0,0.0,0.0,0.0,0.0,0.0,0.0,0.0,0.0,0.0,0.0,0.0,0.0,0.0,0.0,0.0,0.0,0.0,0.0,0.0,0.0,0.0,0.0,0.0,0.0,0.0,0.0,0.0,0.0,0.0,0.0,0.0,0.0,0.0,0.0,0.0,0.0,0.0,0.0,0.0,0.0,0.0,0.0,0.0,0.0,0.0,0.0,0.0,0.4782,0.0,0.0,0.0,0.0,0.0,0.0,0.0,0.0,0.0,0.0,0.0,0.0,0.0,0.0,0.0,0.0,0.0,0.0,0.0,0.0,0.0,0.0,0.0,0.0,0.0,0.0,0.0,0.0,0.0,0.0,0.0,0.0,0.0,0.0,0.0,0.0,0.0,0.0,0.0,0.0,0.0,0.0,0.0,0.0,0.0,0.0,0.0,0.0,0.0,0.0,0.0,0.0,0.0,0.0,0.0,0.0,0.0,0.0,0.0,-0.6695,-0.7925,-0.8339,-0.851,-0.8434,-0.7935,-0.7104,0.0,0.0,0.0,0.0,0.0,0.0,0.0,0.0,0.0,0.0,0.0,0.0,0.0,0.0,0.0,0.0,0.0,0.0,0.0,0.0,0.0,0.0,0.0,0.0,0.0,0.0,0.0,0.0,0.0,0.0,0.0,0.0,0.0,0.0,0.0,0.0,0.0,0.0,0.0,0.0,0.0,0.0,0.0,0.0,0.0,0.0,0.0,0.0,0.0,0.0,0.0,0.0,0.0,0.0,0.0,0.0,0.0,0.0,0.0,0.0,0.0,0.0,0.0,0.0,0.0,0.0,0.0,0.0,0.0,0.0,0.0,0.0,0.0,0.0,0.0,0.0,0.0,0.0,0.0,0.0,0.0,0.0,0.0,0.0,0.0,0.0,0.0,0.0,0.0,0.0,0.0,0.0,0.0,0.0,0.0,0.0,0.0,0.0,0.0,0.0,0.0,0.0,0.0,0.0,0.0,0.0,0.0,-0.6974,-0.7519,-0.8566,-0.8607,-0.8575,-0.8526,-0.8314,-0.7508,-0.6039,0.0,0.0,0.0,0.0,0.0,0.0,0.0,0.0,0.0,0.0,0.0,0.0,0.0,0.0,0.0,0.0,0.0,0.0,0.0,0.0,0.0,0.0,0.0,0.0,0.0,0.0,0.0,0.0,0.0,0.0,0.0,0.0,0.0,0.0,0.0,0.0,0.0,0.0,0.0,0.2707,0.0,0.0,0.0,0.0,0.0,0.0,0.0,0.0,0.458,0.0,0.0,0.0,0.0,0.0,0.0,0.0,0.0,0.0,0.0,0.0,0.0,0.0,0.0,0.0,0.0,0.0,0.0,0.0,0.0,0.0,0.0,0.0,0.0,0.0,0.0,0.0,0.0,0.0,0.0,0.0,0.0,0.0,0.0,0.0,0.0,0.0,0.0,0.0,0.0,0.0,0.0,0.0,0.0,0.0,0.0,0.0,0.0,0.0,0.0,0.0,0.0,0.0,0.0,0.0,0.0,-0.6419,-0.7006,-0.7791,-0.8749,-0.87,-0.8645,-0.8599,-0.839,-0.7525,-0.5933,0.0,0.0,0.0,0.0,0.0,0.0,0.0,0.0,0.0,0.0,0.0,0.0,0.0,0.0,0.0,0.0,0.0,0.0,0.0,0.0,0.0,0.0,0.0,0.0,0.0,0.0,0.0,0.0,0.0,0.0,0.0,0.0,0.0,0.0,0.0,0.0,0.0,0.0,0.0,0.2668,0.4607,0.0,0.0,0.0,0.0,0.0,0.0,0.0,0.0,0.3634,0.0,0.0,0.0,0.0,0.0,0.0,0.0,0.0,0.0,0.0,0.0,0.0,0.0,0.0,0.0,0.0,0.0,0.0,0.0,0.0,0.0,0.0,0.0,0.0,0.0,0.0,0.0,0.0,0.0,0.0,0.0,0.0,0.0,0.0,0.0,0.0,0.0,0.0,0.0,0.0,0.0,0.0,0.0,0.0,0.0,0.0,0.0,0.0,0.0,0.0,0.0,0.0,0.0,0.0,0.0,-0.6487,-0.691,-0.7674,-0.8846,-0.8794,-0.8717,-0.8645,-0.8508,-0.7559,0.0,0.0,0.0,0.0,0.0,0.0,0.0,0.0,0.0,0.0,0.0,0.0,0.0,0.0,0.0,0.0,0.0,0.0,0.0,0.0,0.0,0.0,0.0,0.0,0.0,0.0,0.0,0.0,0.0,0.0,0.0,0.0,0.0,0.0,0.0,0.0,0.0,0.0,0.0,0.0,0.2665,0.4646,0.4646,0.0,0.0,0.0,0.0,0.0,0.0,0.4537,0.3985,0.0,0.0,0.0,0.0,0.0,0.0,0.0,0.0,0.0,0.0,0.0,0.0,0.0,0.0,0.0,0.0,0.0,0.0,0.0,0.0,0.0,0.0,0.0,0.0,0.0,0.0,0.0,0.0,0.0,0.0,0.0,0.0,0.0,0.0,0.0,0.0,0.0,0.0,0.0,0.0,0.0,0.0,0.0,0.0,0.0,0.0,0.0,0.0,0.0,0.0,0.0,0.0,0.0,0.0,0.0,-0.6758,-0.6804,-0.7518,-0.8928,-0.8886,-0.8794,-0.8741,-0.8604,-0.7628,0.0,0.0,0.0,0.0,0.0,0.0,0.0,0.0,0.0,0.0,0.0,0.0,0.0,0.0,0.0,0.0,0.0,0.0,0.0,0.0,0.0,0.0,0.0,0.0,0.0,0.0,0.0,0.0,0.0,0.0,0.0,0.0,0.0,0.0,0.0,0.0,0.0,0.0,0.0,0.0,0.0,0.4729,0.4724,0.4646,0.0,0.0,0.0,0.0,0.5617,0.5065,0.0,0.0,0.0,0.0,0.0,0.0,0.0,0.0,0.0,0.0,0.0,0.0,0.0,0.0,0.0,0.0,0.0,0.0,0.0,0.0,0.0,0.0,0.0,0.0,0.0,0.0,0.0,0.0,0.0,0.0,0.0,0.0,0.0,0.0,0.0,0.0,0.0,0.0,0.0,0.0,0.0,0.0,0.0,0.0,0.0,0.0,0.0,0.0,0.0,0.0,0.0,0.0,0.0,0.0,0.0,0.0,-0.6822,-0.6835,-0.7553,-0.9002,-0.8936,-0.8886,-0.8869,-0.8731,-0.7722,0.0,0.0,0.0,0.0,0.0,0.0,0.0,0.0,0.0,0.0,0.0,0.0,0.0,0.0,0.0,0.0,0.0,0.0,0.0,0.0,0.0,0.0,0.0,0.0,0.0,0.0,0.0,0.0,0.0,0.0,0.0,0.0,0.0,0.0,0.0,0.0,0.0,0.0,0.0,0.0,0.0,0.4787,0.4789,0.4674,0.4582,0.0,0.0,0.5772,0.8723,0.6717,0.0,0.0,0.0,0.0,0.0,0.0,0.0,0.0,0.0,0.0,0.0,0.0,0.0,0.0,0.0,0.0,0.0,0.0,0.0,0.0,0.0,0.0,0.0,0.0,0.0,0.0,0.0,0.0,0.0,0.0,0.0,0.0,0.0,0.0,0.0,0.0,0.0,0.0,0.0,0.0,0.0,0.0,0.0,0.0,0.0,0.0,0.0,0.0,0.0,0.0,0.0,0.0,0.0,0.0,0.0,-0.6394,-0.6941,-0.7322,-0.8067,-0.9119,-0.9054,-0.8979,-0.8908,-0.8835,-0.7846,0.0,0.0,0.0,0.0,0.0,0.0,0.0,0.0,0.0,0.0,0.0,0.0,0.0,0.0,0.0,0.0,0.0,0.0,0.0,0.0,0.0,0.0,0.0,0.0,0.0,0.0,0.0,0.0,0.0,0.0,0.0,0.0,0.0,0.0,0.0,0.0,0.0,0.0,0.0,0.0,0.0,0.0,0.7207,0.739,0.0,0.0,0.0,0.7925,0.95,0.0,0.0,0.0,0.0,0.0,0.0,0.0,0.0,0.0,0.0,0.0,0.0,0.0,0.0,0.0,0.0,0.0,0.0,0.0,0.0,0.0,0.0,0.0,0.0,0.0,0.0,0.0,0.0,0.0,0.0,0.0,0.0,0.0,0.0,0.0,0.0,0.0,0.0,0.0,0.0,0.0,0.0,0.0,0.0,0.0,0.0,0.0,0.0,0.0,0.0,0.0,0.0,0.0,0.0,0.0,0.0,0.0,-0.7031,-0.7759,-0.8514,-0.9226,-0.9194,-0.9085,-0.8985,-0.8936,0.0,0.0,0.0,0.0,0.0,0.0,0.0,0.0,0.0,0.0,0.0,0.0,0.0,0.0,0.0,0.0,0.0,0.0,0.0,0.0,0.0,0.0,0.0,0.0,0.0,0.0,0.0,0.0,0.0,0.0,0.0,0.0,0.0,0.0,0.0,0.0,0.0,0.0,0.0,0.0,0.0,0.0,0.5901,0.9066,0.9439,0.9348,0.0,0.0,0.9457,0.9617,0.9527,0.8591,0.0,0.0,0.0,0.0,0.0,0.0,0.0,0.0,0.0,0.0,0.0,0.0,0.0,0.0,0.0,0.0,0.0,0.0,0.0,0.0,0.0,0.0,0.0,0.0,0.0,0.0,0.0,0.0,0.0,0.0,0.0,0.0,0.0,0.0,0.0,0.0,0.0,0.0,0.0,0.0,0.0,0.0,0.0,0.0,0.0,0.0,0.0,0.0,0.0,0.0,0.0,0.0,0.0,0.0,-0.7172,-0.7137,-0.7893,-0.8651,-0.9349,-0.9329,-0.9251,-0.9185,-0.906,-0.8153,0.0,0.0,0.0,0.0,0.0,0.0,0.0,0.0,0.0,0.0,0.0,0.0,0.0,0.0,0.0,0.0,0.0,0.0,0.0,0.0,0.0,0.0,0.0,0.0,0.0,0.0,0.0,0.0,0.0,0.0,0.0,0.0,0.0,0.0,0.0,0.0,0.0,0.0,0.0,0.0,0.0,0.5788,0.904,0.9439,0.9357,0.0,0.9311,0.943,0.9518,0.95,0.9419,0.9185,0.0,0.0,0.0,0.0,0.0,0.0,0.0,0.0,0.0,0.0,0.0,0.0,0.0,0.0,0.0,0.0,0.0,0.0,0.0,0.0,0.0,0.0,0.0,0.0,0.0,0.0,0.0,0.0,0.0,0.0,0.0,0.0,0.0,0.0,0.0,0.0,0.0,0.0,0.0,0.0,0.0,0.0,0.0,0.0,0.0,0.0,0.0,0.0,0.0,0.0,0.0,0.0,0.0,-0.719,-0.7184,-0.8479,-0.9273,-0.9508,-0.9457,-0.9376,-0.9263,-0.9216,-0.8287,0.0,0.0,0.0,0.0,0.0,0.0,0.0,0.0,0.0,0.0,0.0,0.0,0.0,0.0,0.0,0.0,0.0,0.0,0.0,0.0,0.0,0.0,0.0,0.0,0.0,0.0,0.0,0.0,0.0,0.0,0.0,0.0,0.0,0.0,0.0,0.0,0.0,0.0,0.0,0.0,0.0,0.5606,0.8592,0.9157,0.0,0.0,0.9403,0.9403,0.9421,0.943,0.9448,0.9491,0.6881,0.0,0.0,0.0,0.0,0.0,0.0,0.0,0.0,0.0,0.0,0.0,0.0,0.0,0.0,0.0,0.0,0.0,0.0,0.0,0.0,0.0,0.0,0.0,0.0,0.0,0.0,0.0,0.0,0.0,0.0,0.0,0.0,0.0,0.0,0.0,0.0,0.0,0.0,0.0,0.0,0.0,0.0,0.0,0.0,0.0,0.0,0.0,0.0,0.0,0.0,0.0,0.0,-0.7225,-0.7233,-0.8867,-0.9677,-0.9641,-0.955,-0.9474,-0.9358,-0.9321,-0.8531,0.0,0.0,0.0,0.0,0.0,0.0,0.0,0.0,0.0,0.0,0.0,0.0,0.0,0.0,0.0,0.0,0.0,0.0,0.0,0.0,0.0,0.0,0.0,0.0,0.0,0.0,0.0,0.0,0.0,0.0,0.0,0.0,0.0,0.0,0.0,0.0,0.0,0.0,0.0,0.0,0.0,0.1804,0.3765,0.688,0.9187,0.9508,0.9475,0.9696,1.0524,0.9968,0.9421,0.9534,0.0,0.0,0.0,0.0,0.0,0.0,0.0,0.0,0.0,0.0,0.0,0.0,0.0,0.0,0.0,0.0,0.0,0.0,0.0,0.0,0.0,0.0,0.0,0.0,0.0,0.0,0.0,-0.3974,0.0,0.0,-0.4163,0.0,0.0,0.0,0.0,0.0,0.0,0.0,0.0,0.0,0.0,0.0,0.0,0.0,0.0,0.0,0.0,0.0,0.0,0.0,0.0,0.0,0.0,-0.7309,-0.7316,-0.8883,-0.9695,-0.9692,-0.9644,-0.957,-0.9501,-0.9358,-0.8886,-0.7962,0.0,0.0,0.0,0.0,0.0,0.0,0.0,0.0,0.0,0.0,0.0,0.0,0.0,0.0,0.0,0.0,0.0,0.0,0.0,0.0,0.0,0.0,0.0,0.0,0.0,0.0,0.0,0.0,0.0,0.0,0.0,0.0,0.0,0.0,0.0,0.0,0.0,0.0,-0.608,-0.6606,-0.6597,-0.6319,0.2146,0.8605,0.9631,0.96,1.0369,1.3045,1.117,0.9484,0.0,0.0,0.0,0.0,0.0,0.0,0.0,0.0,0.0,0.0,0.0,0.0,0.0,0.0,0.0,0.0,0.0,0.0,0.0,0.0,0.0,0.0,0.0,0.0,0.0,0.0,0.0,-0.4988,-0.5352,0.0,0.0,0.0,0.0,0.0,0.0,0.0,0.0,0.0,0.0,0.0,-0.9626,-0.938,0.0,0.0,0.0,0.0,0.0,0.0,0.0,0.0,0.0,0.0,0.0,0.0,-0.7671,-0.7401,-0.8933,-0.9761,-0.9758,-0.9695,-0.9623,-0.9567,-0.9473,-0.9011,-0.8075,0.0,0.0,0.0,0.0,0.0,0.0,0.0,0.0,0.0,0.0,0.0,0.0,0.0,0.0,0.0,0.0,0.0,0.0,0.0,0.0,0.0,0.0,0.0,0.0,0.0,-0.1813,0.0,0.0,0.0,0.0,0.0,0.0,0.0,0.0,0.0,0.0,0.0,-0.627,-0.6835,-0.6894,-0.6894,-0.6894,-0.3581,0.2019,0.0,0.0,0.0,0.0,0.0,0.0,0.0,0.0,0.0,0.0,0.0,0.0,0.0,0.0,0.8503,0.8554,0.8555,0.8555,0.8552,0.0,0.0,0.0,0.0,0.0,0.0,0.0,0.0,0.0,0.0,0.0,0.0,0.0,0.0,-0.7437,-0.7724,-0.7662,0.0,0.0,0.0,0.0,0.0,0.0,0.0,0.0,-1.1132,-1.1579,-1.1575,-1.1321,-1.124,0.0,-1.1603,-1.0761,0.0,0.0,0.0,0.0,0.0,0.0,0.0,0.0,-0.8335,-0.7683,-0.9052,-0.9796,-0.9794,-0.9772,-0.9699,-0.9617,-0.954,-0.9097,-0.8186,-0.7077,-0.6198,0.0,0.0,0.0,0.0,0.0,0.0,0.0,0.0,0.0,0.0,0.0,0.0,0.0,0.0,0.0,0.0,0.0,0.0,0.0,0.0,0.0,0.0,0.0,-0.3247,0.0,0.0,0.0,0.0,0.0,0.0,0.0,0.0,0.0,-0.57,-0.6833,-0.7439,-0.6874,-0.6791,-0.7062,-0.7843,0.0,0.0,0.0,0.0,0.0,0.0,0.0,0.4473,0.4596,0.7353,0.9567,0.9739,0.9913,1.0078,1.0148,0.0,0.0,1.0293,1.0282,1.0278,1.0289,1.113,1.1621,1.0898,1.0338,0.9984,0.0,0.0,0.0,0.0,-0.9994,0.0,0.0,0.0,-0.9981,-1.039,0.0,-1.0131,0.0,0.0,0.0,0.0,-0.9394,-1.0959,0.0,0.0,-1.295,-1.3029,-1.2945,-1.2313,-1.1909,-1.1927,-1.2679,-1.2669,-1.1915,-1.0188,0.0,0.0,0.0,0.0,0.0,0.0,-0.9286,-0.8304,-0.937,-0.9874,-0.9891,-0.9889,-0.9849,-0.9765,-0.9591,-0.9149,-0.839,-0.8151,-0.739,-0.5856,-0.4842,0.0,0.0,0.0,0.0,0.0,0.0,0.0,0.0,0.0,0.0,0.0,0.0,0.0,0.0,0.0,0.0,0.0,0.0,0.0,0.0,-0.3998,0.0,0.0,0.0,0.0,0.0,0.0,0.0,0.0,0.0,0.0,-0.8929,-0.8477,-0.7783,-0.6937,0.0,0.0,0.0,0.0,-0.9868,-0.9602,-0.8838,-0.7666,-0.6747,-0.5439,-0.4463,-0.4364,0.0,0.0,1.0038,1.0188,1.0378,1.0283,1.0421,1.029,1.0522,1.0375,1.0205,1.0337,1.2631,1.4213,1.2835,1.1319,1.0157,-1.4871,0.0,0.0,0.0,0.0,-1.3422,-1.3446,-1.347,-1.3403,-1.3501,-1.3672,-1.2724,0.0,0.0,0.0,0.0,0.0,0.0,-1.369,-1.4041,-1.5264,-1.549,-1.4892,-1.4684,-1.4258,-1.3694,-1.3894,-1.3625,-1.2918,-1.2422,-1.1297,-0.957,0.0,0.0,0.0,0.0,-1.0562,-1.0306,-1.1183,-1.145,-1.1016,-1.1423,-1.1326,-1.0647,-0.9979,-0.9505,-0.9242,-0.8592,-0.7999,-0.7482,-0.5531,0.0,0.0,0.0,0.0,0.0,0.0,0.0,0.0,0.0,0.0,0.0,0.0,0.0,0.0,0.0,0.0,0.0,0.0,0.0,-0.1178,-0.3135,-0.4403,0.0,0.0,0.0,0.0,0.0,0.0,0.0,0.0,0.0,-0.8996,-0.8624,-0.8863,0.0,0.0,-1.0539,-1.115,-1.0798,-1.0323,-0.9944,-0.9101,0.0,-0.786,-0.7442,-0.6711,-0.5432,0.5078,1.3308,1.3388,1.3512,1.3605,1.3579,1.3598,1.3647,1.367,1.1775,1.0309,1.0312,1.1878,1.3544,1.4085,1.3249,1.1843,-1.8704,-1.7629,-1.6344,-1.5847,-1.5876,-1.5904,-1.5931,-1.5939,-1.5903,-1.6036,-1.6299,-1.5376,-1.4922,-1.4783,-1.3882,0.0,0.0,0.0,-1.5519,-1.5662,-1.6671,-1.6876,-1.6395,-1.6353,-1.6058,-1.5519,-1.5477,-1.5083,-1.4323,-1.4402,-1.3793,-1.2507,0.0,0.0,-1.0866,-1.133,-1.1689,-1.1944,-1.2237,-1.2211,-1.1877,-1.2407,-1.2169,-1.1031,-1.0491,-1.0023,-0.9659,-0.912,-0.863,-0.8245,-0.7084,-0.5764,0.0,0.0,0.0,0.0,0.0,0.0,0.0,0.0,0.0,0.0,0.0,0.0,0.0,0.0,0.0,0.0,-0.2654,-0.2771,-0.203,-0.3649,0.0,0.0,0.0,0.0,0.0,0.0,0.0,-0.9794,-0.9825,-0.9557,-0.9265,-1.0129,-1.122,-1.2357,-1.2463,-1.242,-1.242,0.0,-1.0798,-0.988,-0.9301,-0.8894,-0.8751,-0.8723,-0.8133,-0.6447,0.106,0.9249,1.4134,1.4869,1.4878,1.4887,1.4887,1.4938,1.5153,1.3481,1.2121,1.2171,1.2897,1.3926,1.4927,1.4516,1.3538,-2.2464,-2.2258,-1.913,-1.7851,-1.7909,-1.7833,-1.7824,-1.7804,-1.7738,-1.8098,-1.8713,-1.7888,-1.7432,-1.7248,-1.638,0.0,-1.6049,-1.6911,-1.7349,-1.7423,-1.7535,-1.7545,-1.7466,-1.7434,-1.7322,-1.7191,-1.7132,-1.673,-1.6041,-1.6063,-1.5729,-1.4982,-1.3467,-1.2628,-1.2514,-1.2512,-1.2761,-1.3309,-1.2839,-1.2587,-1.2613,-1.3088,-1.2651,-1.1263,-1.1076,-1.0613,-0.9861,-0.9686,-0.9229,-0.8475,-0.8992,-0.7938,-0.5015,0.0,0.0,0.0,0.0,0.0,0.0,0.0,0.0,0.0,0.0,0.0,0.0,0.0,0.0,0.0,-0.2239,0.0,-0.5096,-0.5341,0.0,0.0,0.0,-0.6261,-0.916,-0.9669,-0.9894,-1.0063,0.0,0.0,-1.0176,-1.2605,-1.418,-1.3741,-1.3527,-1.3396,-1.3396,-1.2475,-1.1296,-0.9931,-0.9644,-0.9632,-0.9632,-0.9538,-0.8903,-0.7463,-0.5743,0.0026,0.9682,1.2215,1.2663,1.205,1.2807,1.3479,1.4577,1.4921,1.5194,1.5132,1.5096,1.5063,1.5087,1.5035,1.4889,-2.263,-2.2584,-2.178,-2.1425,-2.1323,-2.0684,-2.0401,-2.0336,-1.9697,-1.9506,-1.9639,-1.8782,-1.7991,-1.7294,-1.7023,-1.6918,-1.7015,-1.7862,-1.826,-1.8332,-1.9009,-1.8952,-1.8324,-1.8253,-1.787,-1.7292,-1.7214,-1.7102,-1.697,-1.7031,-1.6987,-1.6752,-1.6394,-1.5537,-1.426,-1.4204,-1.4269,-1.4419,-1.4297,-1.4268,-1.4311,-1.4443,-1.4003,-1.3021,-1.1737,-1.0964,-1.0687,-1.0046,-0.9592,-0.9386,-0.9407,-0.855,-0.6529,-0.5348,0.0,0.0,0.0,0.0,0.0,0.0,0.0,0.0,0.0,-0.1114,-0.3693,0.0,-0.3559,0.0,-0.4271,-0.5181,-0.8563,-0.8879,0.0,0.0,-0.8803,-0.9104,-0.9843,-0.9987,-1.0044,-1.0097,-1.2352,-1.3926,-1.3902,-1.4444,-1.4747,-1.4462,-1.3931,-1.351,-1.3396,-1.2662,-1.1783,-1.0916,-1.0715,-1.0729,-1.0619,-1.0008,-0.9151,-0.8148,-0.6987,-0.5064,-0.2122,-0.1827,-0.2,-0.2003,-0.1978,0.2164,1.2217,1.485,1.5118,1.5326,1.5261,1.5165,1.5106,1.5127,1.5165,-2.3851,-2.3861,-2.3861,-2.3822,-2.3722,-2.2458,-2.1713,-2.1321,-2.0833,-2.0423,-2.005,-1.9554,-1.902,-1.8512,-1.847,-1.8467,-1.8553,-1.8998,-1.9216,-1.9246,-1.9722,-1.9654,-1.9194,-1.9099,-1.8838,-1.8413,-1.8364,-1.8162,-1.7891,-1.7962,-1.7803,-1.7435,-1.7454,-1.6971,-1.6026,-1.5612,-1.5236,-1.486,-1.4813,-1.4823,-1.4886,-1.4895,-1.4482,-1.362,-1.2322,-1.1449,-1.1057,-1.0198,-0.9731,-0.9732,-0.9661,-0.919,-0.8182,-0.5958,-0.467,0.0,0.0,0.0,0.0,0.0,0.0,0.0,0.0,0.0,0.0,0.0,-0.5036,-0.5017,-0.6369,-0.8047,-0.9908,-1.01,-1.0101,-1.014,-1.0143,-1.0131,-1.0145,-1.1489,-1.2421,-1.2421,-1.4077,-1.5224,-1.5195,-1.5106,-1.5006,-1.4832,-1.4409,-1.3945,-1.3493,-1.2832,-1.2138,-1.1674,-1.1586,-1.1452,-1.1155,-1.0198,-0.9351,-0.885,-0.8354,-0.8003,-0.8013,-0.8127,-0.822,-0.8231,-0.822,-0.5685,0.3222,1.0805,1.4844,1.5248,1.5323,1.5259,1.5207,1.5232,1.5234,-2.5332,-2.5322,-2.5332,-2.5322,-2.5207,-2.3698,-2.2546,-2.1741,-2.1625,-2.1184,-2.0542,-2.046,-2.0394,-2.0335,-2.034,-2.0327,-2.0327,-2.0327,-2.027,-2.0175,-2.0164,-2.0085,-1.9896,-1.9844,-1.982,-1.9801,-1.9744,-1.9397,-1.8796,-1.8848,-1.8517,-1.7871,-1.7852,-1.7766,-1.7652,-1.6942,-1.612,-1.5226,-1.4954,-1.4869,-1.5057,-1.4943,-1.4511,-1.3762,-1.2807,-1.1985,-1.127,-1.0336,-0.9805,-0.9787,-0.9794,-0.9758,-0.956,-0.6887,-0.5168,0.0,-0.5165,0.0,0.0,0.0,0.0,0.0,0.0,0.0,0.0,-0.4996,-0.5192,-0.5629,-0.8371,-1.0108,-1.0102,-1.0106,-1.0128,-1.0224,-1.0618,-1.0864,-1.0984,-1.3512,-1.532,-1.5323,-1.5307,-1.527,-1.5201,-1.514,-1.5105,-1.5011,-1.485,-1.4526,-1.3934,-1.3244,-1.2741,-1.2467,-1.2388,-1.219,-1.1445,-1.0483,-0.9828,-0.9788,-0.975,-0.9762,-0.9712,-0.9724,-0.971,-0.9579,-0.9458,-0.8716,-0.7559,0.3333,1.2002,1.4514,1.5291,1.5344,1.5311,1.5311,1.5306,-2.5459,-2.5459,-2.5468,-2.5468,-2.5421,-2.5112,-2.4461,-2.3543,-2.2851,-2.2457,-2.2305,-2.225,-2.2172,-2.2104,-2.2117,-2.2121,-2.2102,-2.2121,-2.1711,-2.1032,-2.1051,-2.0638,-1.9938,-1.9903,-1.9884,-1.9877,-1.9862,-1.9823,-1.9753,-1.9802,-1.9745,-1.9621,-1.9621,-1.9287,-1.8667,0.0,0.0,0.0,-1.5517,-1.5159,-1.5799,-1.5198,-1.4757,-1.4541,-1.3142,0.0,-1.211,-1.0707,-0.9856,-0.9786,-0.9796,0.0,0.0,0.0,0.0,0.0,0.0,0.0,0.0,0.0,0.0,0.0,-0.7933,-0.6371,-0.505,-0.4965,-0.6166,-0.8924,-0.9816,-1.0183,-1.0186,-1.0186,-1.0212,-1.0353,-1.2732,-1.4418,-1.4457,-1.5023,-1.5374,-1.5394,-1.5335,-1.5268,-1.5218,-1.5183,-1.5171,-1.5159,-1.5133,-1.5054,-1.4897,-1.4323,-1.3899,-1.3756,-1.3491,-1.3072,-1.2347,-1.1601,-1.1089,-1.1132,-1.1108,-1.1118,-1.1118,-1.1118,-1.0835,-1.0311,-0.9801,-0.9178,-0.8205,-0.5108,0.1189,1.2394,1.4951,1.532,1.5362,1.539,1.5375,-2.5511,-2.5511,-2.5511,-2.5511,0.0,-2.5511,-2.5236,-2.4731,-2.3871,-2.3265,-2.2855,-2.2774,-2.2719,-2.27,-2.2661,-2.2649,-2.2649,-2.2649,-2.2429,-2.1977,-2.1537,-2.0817,-1.9945,-1.9922,-1.9934,-1.9996,-1.999,-2.004,-2.0079,-2.0182,-2.0199,-2.0199,-2.018,-1.9997,-1.9613,-1.9577,-1.8857,-1.7463,-1.6554,-1.611,-1.6063,-1.5254,-1.4832,-1.4822,-1.3647,0.0,0.0,0.0,0.0,0.0,0.0,0.0,0.0,0.0,0.0,-0.7437,-0.8853,-0.907,-0.7472,-0.801,-0.9279,-1.1089,-0.9687,-0.8329,-0.7484,-0.7471,-0.8268,-0.998,-1.0196,-1.0892,-1.2521,-1.2724,-1.2734,-1.2896,-1.4359,-1.5416,-1.5409,-1.5418,-1.5402,-1.5401,-1.5377,-1.531,-1.5269,-1.5241,-1.526,-1.5241,-1.5241,-1.5255,-1.5241,-1.4961,-1.47,-1.4555,-1.4314,-1.3955,-1.3378,-1.2724,-1.2276,-1.2276,-1.2376,-1.2435,-1.242,-1.2455,-1.2143,-1.119,-1.0223,-0.9324,-0.8971,-0.8551,-0.5681,0.2542,0.9995,1.4653,1.5054,1.5214,1.5367,-2.5859,-2.5724,-2.5704,-2.5627,-2.5511,-2.5511,-2.5511,-2.5453,-2.4737,0.0,0.0,-2.3303,-2.3251,-2.3262,-2.3198,-2.3151,-2.317,-2.3151,-2.3084,-2.2882,-2.1971,-2.107,-2.0228,-2.0015,-1.9979,-2.0097,-2.0108,-2.0153,-2.0197,-2.0277,-2.0292,-2.0292,-2.0292,-2.0292,-2.0292,-2.0241,-1.9464,-1.8031,-1.7899,-1.7368,-1.6366,-1.5329,-1.4832,-1.4896,-1.4068,-1.3651,-1.3682,-1.2244,-1.1412,-1.1311,-1.0369,-0.9812,-0.9812,-0.9936,-0.9955,-0.9817,-0.9789,-0.9789,-0.9823,-0.9262,-0.9841,-1.2005,-1.1114,-1.0578,-1.088,-1.099,-1.1054,-1.1082,-1.1109,-1.227,-1.5013,-1.5284,-1.5339,-1.5387,-1.5409,-1.5409,-1.5412,-1.5409,-1.5418,-1.542,-1.5391,-1.5684,-1.6269,-1.5734,-1.5326,-1.5307,-1.5307,-1.5686,-1.5979,-1.5675,-1.512,-1.4987,-1.4785,-1.4581,-1.4224,-1.3713,-1.3346,-1.3328,-1.3477,-1.3575,-1.3592,-1.3576,-1.3158,-1.2195,-1.0828,-1.0097,-0.9995,-1.0071,-0.9442,-0.7743,0.2105,1.0835,1.0869,1.1001,1.167,-2.7213,-2.6528,-2.6547,-2.6122,-2.5511,-2.5511,-2.5511,-2.5492,-2.5376,-2.526,-2.5136,-2.5076,-2.5039,-2.5031,-2.4957,-2.4928,-2.4928,-2.4928,-2.4534,-2.3784,-2.2852,-2.196,-2.1079,-2.0344,-2.0021,-2.0108,-2.0173,-2.0178,-2.0203,-2.0257,-2.0292,-2.0292,-2.0292,-2.03,-2.0296,-2.0227,-2.0044,-1.9753,-1.9688,-1.8868,-1.7234,-1.5706,-1.4886,-1.4857,-1.4112,-1.3682,-1.3675,-1.2809,-1.2284,-1.2175,-1.0721,-0.9863,-0.9812,-0.9974,-0.9954,-0.9894,-0.9842,-0.9837,-0.9973,-0.9835,-0.9944,-1.0445,-1.1553,-1.285,-1.4326,-1.4526,-1.4583,-1.4553,-1.4414,-1.4742,-1.5269,-1.5284,-1.532,-1.5387,-1.5412,-1.5409,-1.5412,-1.5414,-1.5405,-1.5419,-1.542,-1.6626,-1.8789,-1.7286,-1.5687,-1.5513,-1.5921,-1.6495,-1.8353,-1.7112,-1.5369,-1.5092,-1.5003,-1.4878,-1.4998,-1.4381,-1.4175,-1.427,-1.432,-1.4314,-1.4307,-1.4219,-1.3856,-1.3052,-1.1984,-1.1468,-1.171,-1.2118,-1.1497,-0.9928,-0.5209,-0.2962,-0.2591,-0.2675,0.0508,-2.7823,-2.74,-2.6947,-2.6525,-2.6122,-2.5685,-2.5511,-2.5511,-2.5511,-2.5511,-2.5492,-2.5468,-2.5459,-2.5459,-2.5443,-2.5406,-2.5406,-2.5406,-2.5176,-2.4668,-2.3295,-2.2441,-2.1962,-2.069,-2.0088,-2.0153,-2.0225,-2.0249,-2.0257,-2.0285,-2.0292,-2.0292,-2.03,-2.0296,-2.0296,-2.0262,-2.0195,-2.0115,-2.0041,-1.9371,-1.8115,-1.6035,-1.5146,-1.5563,-1.477,-1.4352,-1.4392,-1.3599,-1.313,-1.3097,-1.1923,-1.1243,-1.1229,-1.2159,-1.2709,-1.2669,-1.2683,-1.2692,-1.2744,-1.2751,-1.1957,-1.0359,-1.2494,-1.4297,-1.5112,-1.5237,-1.525,-1.5284,-1.5284,-1.5284,-1.5289,-1.5284,-1.5329,-1.5407,-1.541,-1.541,-1.5409,-1.5418,-1.5416,-1.5407,-1.5407,-1.6735,-2.0129,-1.9183,-1.8216,-1.82,-1.8202,-1.892,-2.0311,-1.923,-1.8067,-1.7953,-1.7911,-1.7852,-1.7622,-1.5949,-1.5026,-1.492,-1.4935,-1.4914,-1.4849,-1.4738,-1.4426,-1.3856,-1.3073,-1.284,-1.3194,-1.3672,-1.3235,-1.1923,-0.9932,-0.8673,-0.8456,-0.8456,-0.5513,-2.856,-2.8325,-2.7683,-2.7129,-2.6625,-2.5832,-2.5511,-2.5511,-2.5511,-2.5511,-2.5511,-2.5511,-2.5511,-2.5511,-2.5511,-2.5511,-2.5511,-2.5511,-2.5448,-2.5232,-2.3755,-2.2901,-2.2575,-2.1158,-2.0374,-2.0274,-2.0507,-2.0573,-2.035,-2.0485,-2.0477,-2.0331,-2.0289,-2.0296,-2.0296,-2.0292,-2.0225,-2.0106,-2.005,-1.9582,-1.8684,-1.698,-1.6184,-1.612,-1.5571,-1.5125,-1.4979,-1.4346,-1.3989,-1.3952,-1.335,-1.2976,-1.304,-1.4243,-1.5017,-1.5006,-1.5076,-1.5112,-1.5112,-1.5112,-1.3984,-1.1531,-1.3589,-1.512,-1.5183,-1.5195,-1.5212,-1.526,-1.5299,-1.5284,-1.5293,-1.5315,-1.5343,-1.5402,-1.5405,-1.5855,-1.644,-1.6584,-1.6566,-1.6542,-1.6542,-1.7691,-1.9765,-2.0566,-2.0448,-2.0367,-2.058,-2.058,-2.0581,-2.0585,-2.0515,-2.0406,-2.0357,-2.0192,-2.016,-1.7435,-1.5536,-1.5327,-1.5295,-1.5244,-1.5177,-1.512,-1.4981,-1.4544,-1.4121,-1.3944,-1.4362,-1.4708,-1.4412,-1.3256,-1.1682,-1.0449,-1.0317,-1.0305,-0.9563,-2.9977,-2.9318,-2.9154,-2.8179,-2.6671,-2.5859,-2.553,-2.5511,-2.5511,-2.5511,-2.5511,-2.5511,-2.5511,-2.5511,-2.5511,-2.5511,-2.5511,-2.5511,-2.5456,-2.5297,-2.436,-2.3505,-2.2822,-2.1991,-2.1139,-2.0491,-2.1284,-2.1273,-2.0523,-2.1043,-2.1004,-2.0381,-2.0292,-2.0292,-2.0285,-2.0233,-2.0171,-2.0117,-2.0088,-1.964,-1.8818,-1.9254,-1.8477,-1.625,-1.6136,-1.5738,-1.5036,-1.4923,-1.4885,-1.4885,-1.4771,-1.4744,-1.4752,-1.4923,-1.5017,-1.5006,-1.5057,-1.5112,-1.5112,-1.5112,-1.4921,-1.4717,-1.4806,-1.5146,-1.5183,-1.5189,-1.5195,-1.5232,-1.5274,-1.5284,-1.5293,-1.5355,-1.5407,-1.5391,-1.541,-1.6601,-1.9238,-2.0112,-2.0096,-2.0032,-1.9626,-2.0188,-2.0392,-2.0539,-2.0581,-2.0529,-2.0522,-2.0519,-2.0538,-2.0538,-2.0522,-2.0494,-2.0526,-2.0549,-2.0194,-1.7694,-1.5963,-1.5556,-1.5385,-1.5344,-1.5332,-1.5331,-1.5306,-1.5071,-1.4949,-1.4808,-1.4865,-1.5019,-1.4898,-1.4386,-1.3472,-1.2846,-1.2597,-1.2418,-1.1682,-3.0521,-3.0121,-2.9609,-2.8357,-2.6768,-2.6354,-2.5936,-2.553,-2.5511,-2.5511,-2.5511,-2.5511,-2.5511,-2.5511,-2.5511,-2.5511,-2.5511,-2.5511,-2.5476,-2.5324,-2.4473,-2.3878,-2.3484,-2.2373,-2.176,-2.1727,-2.1938,-2.1927,-2.1773,-2.16,-2.11,-2.0389,-2.0292,-2.0249,-2.0178,-2.0161,-2.0116,-2.0049,-2.0069,-1.9888,-1.9568,-1.9823,-1.9046,-1.717,-1.6477,-1.5833,-1.5112,-1.5017,-1.5017,-1.5017,-1.5017,-1.5017,-1.5017,-1.5017,-1.5022,-1.5049,-1.5078,-1.5112,-1.5112,-1.5112,-1.5112,-1.5112,-1.5112,-1.5132,-1.5133,-1.5133,-1.5146,-1.5195,-1.5255,-1.5315,-1.5357,-1.5383,-1.542,-1.541,-1.541,-1.6797,-2.0156,-2.0605,-2.0581,-2.0566,-2.0543,-2.0562,-2.0551,-2.0547,-2.0543,-2.0499,-2.0511,-2.0511,-2.0511,-2.0511,-2.0507,-2.0517,-2.0513,-2.0536,-2.0387,-1.9541,-1.7649,-1.5976,-1.5348,-1.5348,-1.5335,-1.5329,-1.5321,-1.5351,-1.5277,-1.523,-1.5207,-1.5215,-1.5127,-1.4855,-1.4774,-1.4327,-1.4132,-1.4107,-1.3632,-3.0786,-3.0559,-2.9745,-2.8633,-2.7426,-2.7147,-2.6729,-2.6169,-2.5936,-2.5832,-2.5801,-2.5608,-2.5511,-2.5511,-2.5511,-2.5511,-2.5511,-2.5511,-2.5484,-2.5371,-2.4739,-2.4328,-2.3992,-2.3293,-2.2803,-2.2812,-2.2908,-2.2908,-2.2754,-2.1927,-2.11,-2.04,-2.0285,-2.0233,-2.0115,-2.0106,-2.0069,-2.0028,-2.0068,-2.0048,-2.0004,-1.9993,-1.9311,-1.7918,-1.7018,-1.6174,-1.5378,-1.5112,-1.5017,-1.5017,-1.5017,-1.5017,-1.5017,-1.5017,-1.5038,-1.5085,-1.5112,-1.5112,-1.5112,-1.5112,-1.5112,-1.5112,-1.5112,-1.5112,-1.5112,-1.5112,-1.5127,-1.5189,-1.5255,-1.5338,-1.5395,-1.5402,-1.5738,-1.6582,-1.6816,-1.7988,-2.0234,-2.0605,-2.0605,-2.0604,-2.0584,-2.0603,-2.0585,-2.0559,-2.0533,-2.0531,-2.0531,-2.0506,-2.0516,-2.0504,-2.0507,-2.0507,-2.0507,-2.0512,-2.0507,-2.0307,-1.8915,-1.6608,-1.5297,-1.5297,-1.5287,-1.5295,-1.5306,-1.5332,-1.5381,-1.541,-1.5358,-1.5326,-1.5316,-1.5303,-1.5202,-1.5088,-1.4931,-1.5033,-1.5023,-3.0838,-3.058,-2.9695,-2.9253,-2.9108,-2.8296,-2.7898,-2.7658,-2.6992,-2.6644,-2.6547,-2.5917,-2.555,-2.5608,-2.5685,-2.553,-2.5511,-2.5511,-2.5492,-2.5484,-2.5354,-2.4885,-2.4191,-2.4774,-2.4312,-2.3225,-2.4274,-2.4178,-2.2831,-2.1966,-2.1081,-2.035,-2.0238,-2.0205,-2.0173,-2.0146,-2.0068,-2.0009,-2.0015,-1.9993,-1.9993,-1.9993,-1.9576,-1.8676,-1.7861,-1.7018,-1.6155,-1.5397,-1.5017,-1.5017,-1.5017,-1.5017,-1.5017,-1.5017,-1.5038,-1.5085,-1.5112,-1.5112,-1.5112,-1.5112,-1.5112,-1.5112,-1.5112,-1.5112,-1.5112,-1.5112,-1.5127,-1.5189,-1.5264,-1.5315,-1.5387,-1.54,-1.6676,-1.9375,-2.0117,-2.0293,-2.0508,-2.0603,-2.0596,-2.0597,-2.0599,-2.0601,-2.0597,-2.0594,-2.0591,-2.0591,-2.0591,-2.0566,-2.0522,-2.0504,-2.0502,-2.0512,-2.0512,-2.0507,-2.0507,-2.0507,-1.8973,-1.6569,-1.529,-1.529,-1.5295,-1.5284,-1.5311,-1.5319,-1.5377,-1.5403,-1.5402,-1.5408,-1.5371,-1.5369,-1.5374,-1.5315,-1.5252,-1.5265,-1.522,-3.0813,-3.0675,-3.03,-2.9824,-2.9282,-2.8954,-2.8528,-2.7967,-2.7677,-2.7522,-2.7503,-2.7213,-2.7097,-2.7097,-2.7097,-2.6497,-2.5569,-2.5511,-2.5511,-2.5484,-2.5421,-2.5239,-2.5018,-2.5244,-2.511,-2.4648,-2.5014,-2.4428,-2.2947,-2.2485,-2.1639,-2.0477,-2.0238,-2.0178,-2.0155,-2.0127,-2.0039,-1.9947,-1.9941,-1.9949,-1.9993,-1.9993,-1.9842,-1.9509,-1.8724,-1.7596,-1.625,-1.5927,-1.5529,-1.5036,-1.5017,-1.5017,-1.5017,-1.5017,-1.5038,-1.5085,-1.5112,-1.5112,-1.5112,-1.5112,-1.5112,-1.5112,-1.5112,-1.5112,-1.5112,-1.5112,-1.512,-1.5183,-1.5232,-1.5265,-1.5295,-1.5351,-1.6322,-1.8514,-1.9922,-2.0605,-2.0605,-2.0605,-2.0602,-2.0596,-2.0593,-2.0593,-2.0593,-2.0593,-2.0593,-2.0593,-2.0593,-2.0566,-2.0528,-2.0503,-2.0515,-2.0515,-2.0515,-2.0515,-2.0515,-2.0506,-1.9478,-1.686,-1.529,-1.5287,-1.5299,-1.5287,-1.5302,-1.5278,-1.533,-1.5338,-1.5332,-1.532,-1.5315,-1.5351,-1.5358,-1.539,-1.5379,-1.5351,-1.5295,-3.0774,-3.0691,-3.0621,-3.025,-2.9747,-2.9708,-2.9399,-2.8799,-2.8537,-2.8412,-2.8373,-2.815,-2.7987,-2.7987,-2.7987,-2.7434,-2.6381,-2.6304,-2.6169,-2.589,-2.5843,-2.5672,-2.5423,-2.5397,-2.5389,-2.5341,-2.5322,-2.4562,-2.3331,-2.2936,-2.2043,-2.0773,-2.0392,-2.0167,-2.0134,-2.0117,-2.0088,-1.9979,-1.9934,-1.996,-1.9996,-1.9993,-1.9993,-1.9909,-1.9425,-1.8477,-1.7037,-1.6269,-1.5719,-1.5397,-1.515,-1.5017,-1.5017,-1.5017,-1.5022,-1.5057,-1.5078,-1.5112,-1.5112,-1.5112,-1.5112,-1.5112,-1.5112,-1.5112,-1.5112,-1.5112,-1.5127,-1.5177,-1.5195,-1.5195,-1.5229,-1.531,-1.5862,-1.7241,-1.9199,-2.0547,-2.0605,-2.0605,-2.0605,-2.0597,-2.0593,-2.0593,-2.0593,-2.0593,-2.0593,-2.0593,-2.0593,-2.0588,-2.0538,-2.0533,-2.0533,-2.0533,-2.0533,-2.0506,-2.0513,-2.05,-2.0512,-1.8259,-1.585,-1.5636,-1.5668,-1.5598,-1.5531,-1.5395,-1.5332,-1.5294,-1.5245,-1.5237,-1.5306,-1.539,-1.5311,-1.534,-1.5367,-1.5407,-1.5362,-3.0691,-3.0691,-3.064,-3.0578,-3.0501,-3.0482,-3.0559,-3.0269,-2.9631,-2.9321,-2.9224,-2.8517,-2.8296,-2.8161,-2.8315,-2.8092,-2.8034,-2.8025,-2.7522,-2.676,-2.6721,-2.626,-2.555,-2.5523,-2.5438,-2.5332,-2.5313,-2.487,-2.4014,-2.3186,-2.2293,-2.1466,-2.0592,-2.0211,-2.0211,-2.0199,-2.0164,-2.0098,-2.0038,-2.0007,-1.9991,-2.0017,-2.0007,-2.0017,-1.9939,-1.9501,-1.8648,-1.6544,-1.5738,-1.5965,-1.5378,-1.5017,-1.5017,-1.5017,-1.5025,-1.5014,-1.5057,-1.5105,-1.5112,-1.5112,-1.5112,-1.5112,-1.5112,-1.5112,-1.5112,-1.5112,-1.5127,-1.5177,-1.5195,-1.5195,-1.5212,-1.5283,-1.5399,-1.5691,-1.8223,-1.9902,-2.0508,-2.0605,-2.0605,-2.0598,-2.0594,-2.0593,-2.0593,-2.0593,-2.0593,-2.0593,-2.0593,-2.0593,-2.059,-2.059,-2.0591,-2.0591,-2.0588,-2.0562,-2.0539,-2.0508,-2.0506,-1.9944,-1.7633,-1.6328,-1.6648,-1.6679,-1.6779,-1.6702,-1.6745,-1.6649,-1.5274,-1.5343,-1.6086,-1.6183,-1.5834,-1.5504,-1.5318,-1.536,-1.5409,-3.0709,-3.0697,-3.0623,-3.0617,-3.0617,-3.0617,-3.0617,-3.0598,-3.0288,-3.0211,-3.0133,-2.9921,-2.9766,-2.9766,-2.9785,-2.9766,-2.9785,-2.9747,-2.9012,-2.7813,-2.7602,-2.7121,-2.6388,-2.6226,-2.59,-2.539,-2.5313,-2.4889,-2.411,-2.3254,-2.235,-2.1504,-2.0704,-2.0308,-2.0269,-2.0273,-2.0249,-2.0186,-2.0098,-2.0098,-2.0125,-2.0135,-2.0108,-2.0078,-2.0036,-1.9842,-1.9576,-1.8837,-1.7719,-1.6345,-1.5435,-1.5017,-1.5017,-1.5017,-1.5017,-1.5017,-1.5022,-1.5061,-1.5085,-1.5105,-1.5105,-1.5112,-1.5112,-1.5112,-1.5112,-1.5099,-1.5133,-1.5183,-1.5195,-1.5195,-1.5212,-1.5255,-1.5475,-1.5338,-1.6348,-1.8223,-2.0234,-2.0605,-2.0605,-2.0604,-2.0599,-2.0594,-2.0593,-2.0593,-2.0593,-2.0593,-2.0593,-2.0593,-2.0593,-2.0593,-2.0593,-2.0593,-2.0591,-2.059,-2.055,-2.0529,-2.0515,-2.0506,-1.9001,-1.7765,-1.7926,-1.7973,-1.8045,-1.8056,-1.8111,-1.7553,-1.6149,-1.5986,-1.693,-1.7137,-1.6968,-1.6355,-1.554,-1.5307,-1.5395,-3.0659,-3.0676,-3.0615,-3.0617,-3.0617,-3.0617,-3.0617,-3.0617,-3.0617,-3.0617,-3.0598,-3.0598,-3.0617,-3.0617,-3.0617,-3.0617,-3.0617,-3.0617,-3.0017,-2.9012,-2.8597,-2.7864,-2.6783,-2.6303,-2.59,-2.5409,-2.5313,-2.5043,-2.4524,-2.3706,-2.2831,-2.1985,-2.1182,-2.06,-2.033,-2.0299,-2.0272,-2.0231,-2.0192,-2.0186,-2.0233,-2.0214,-2.0161,-2.0108,-2.0047,-2.0004,-1.9985,-1.9974,-1.9122,-1.7245,-1.5814,-1.5055,-1.5017,-1.5017,-1.5017,-1.5017,-1.5025,-1.5022,-1.5068,-1.5083,-1.5097,-1.5112,-1.5106,-1.512,-1.5133,-1.5153,-1.5195,-1.5224,-1.5254,-1.5738,-1.6849,-1.721,-1.7237,-1.7257,-1.6179,-1.7089,-1.9766,-2.0605,-2.0605,-2.0605,-2.0604,-2.0599,-2.0596,-2.0593,-2.0593,-2.0593,-2.0593,-2.0593,-2.0593,-2.0593,-2.0593,-2.0593,-2.0593,-2.0588,-2.054,-2.0531,-2.0539,-2.0515,-2.0234,-1.9711,-1.9638,-1.9509,-1.9476,-1.9364,-1.9369,-1.9078,-1.7899,-1.8051,-1.8612,-1.8374,-1.8154,-1.8054,-1.7469,-1.5743,-1.5439,-3.0618,-3.0614,-3.0606,-3.0617,-3.0617,-3.0617,-3.0617,-3.0617,-3.0617,-3.0617,-3.0617,-3.0617,-3.0617,-3.0617,-3.0617,-3.0617,-3.0617,-3.0598,-3.0559,-3.023,-2.9669,-2.8519,-2.6996,-2.6149,-2.563,-2.5332,-2.5313,-2.5274,-2.512,-2.4351,-2.3648,-2.2677,-2.1856,-2.1128,-2.0467,-2.0294,-2.032,-2.0294,-2.032,-2.0299,-2.03,-2.0235,-2.0211,-2.0209,-2.0078,-2.0017,-2.0017,-1.9996,-1.9623,-1.8581,-1.6364,-1.5017,-1.5017,-1.5017,-1.5017,-1.5017,-1.5017,-1.5025,-1.5014,-1.5034,-1.5097,-1.5112,-1.5107,-1.5337,-1.5846,-1.6247,-1.6251,-1.6178,-1.6072,-1.7037,-1.9354,-1.9997,-2.0095,-2.0059,-1.7883,-1.7869,-2.0039,-2.0605,-2.0605,-2.0605,-2.0605,-2.0605,-2.0598,-2.0596,-2.0593,-2.0593,-2.0593,-2.0593,-2.0593,-2.0593,-2.0593,-2.0593,-2.0593,-2.0591,-2.0564,-2.0564,-2.0555,-2.0513,-2.0504,-2.0506,-2.0478,-2.0386,-2.0323,-2.0281,-2.0197,-1.9984,-1.98,-1.9572,-1.9533,-1.9372,-1.9487,-1.9903,-1.9002,-1.7152,-1.6228,-3.0607,-3.0613,-3.0616,-3.0617,-3.0617,-3.0617,-3.0617,-3.0617,-3.0617,-3.0617,-3.0617,-3.0617,-3.0617,-3.0617,-3.0617,-3.0617,-3.0617,-3.0617,-3.0617,-3.0559,-3.0404,-2.9236,-2.772,-2.6737,-2.5976,-2.5428,-2.5332,-2.5313,-2.5226,-2.4543,-2.3687,-2.2802,-2.2122,-2.1232,-2.0429,-2.0392,-2.0366,-2.0366,-2.0373,-2.0366,-2.0372,-2.0313,-2.0272,-2.0254,-2.0188,-2.0117,-2.0069,-2.0036,-1.9936,-1.9463,-1.6639,-1.5017,-1.5017,-1.5017,-1.5112,-1.5302,-1.5112,-1.5017,-1.5025,-1.5079,-1.5106,-1.5092,-1.5248,-1.6262,-1.894,-1.9107,-1.9114,-1.9126,-1.9141,-1.93,-2.0171,-2.0423,-2.0527,-2.0508,-1.9468,-1.9335,-2.0273,-2.0605,-2.0605,-2.0605,-2.0605,-2.0605,-2.0605,-2.0601,-2.0596,-2.0594,-2.0594,-2.0594,-2.0596,-2.0596,-2.0597,-2.0594,-2.0593,-2.0593,-2.0593,-2.0593,-2.0566,-2.0525,-2.0506,-2.0511,-2.0506,-2.0457,-2.0441,-2.0441,-2.0339,-2.0153,-2.005,-1.9887,-2.0,-2.0,-1.9988,-1.9958,-1.9576,-1.8327,-1.7899,-3.0604,-3.0597,-3.0607,-3.0617,-3.0617,-3.0617,-3.0617,-3.0617,-3.0617,-3.0617,-3.0617,-3.0617,-3.0617,-3.0617,-3.0617,-3.0617,-3.0617,-3.0617,-3.0617,-3.0598,-3.055,-2.9728,-2.8425,-2.7306,-2.6352,-2.5851,-2.5457,-2.5313,-2.5245,-2.4812,-2.4159,-2.3465,-2.2882,-2.203,-2.0938,-2.0907,-2.0753,-2.0476,-2.0379,-2.0379,-2.0379,-2.0373,-2.0327,-2.0299,-2.0235,-2.0142,-2.006,-2.0017,-1.9993,-1.9444,-1.7511,-1.5748,-1.5055,-1.5017,-1.5605,-1.6753,-1.6487,-1.5805,-1.5283,-1.5584,-1.5703,-1.5419,-1.5611,-1.7597,-1.9705,-2.0511,-2.0515,-2.0377,-2.0482,-2.0392,-2.0345,-2.0417,-2.0519,-2.0533,-2.0578,-2.0603,-2.0604,-2.0605,-2.0605,-2.0605,-2.0605,-2.0605,-2.0605,-2.0605,-2.0605,-2.0601,-2.0597,-2.0599,-2.0601,-2.0605,-2.0599,-2.0597,-2.0594,-2.0593,-2.0593,-2.0593,-2.0593,-2.0558,-2.0522,-2.051,-2.05,-2.0512,-2.0502,-2.0473,-2.0429,-2.0339,-2.018,-2.0069,-2.0069,-2.0049,-2.0017,-1.9909,-1.9606,-1.9397,-1.9054,-3.0617,-3.0617,-3.0617,-3.0617,-3.0617,-3.0617,-3.0617,-3.0617,-3.0617,-3.0617,-3.0617,-3.0617,-3.0617,-3.0617,-3.0617,-3.0617,-3.0617,-3.0617,-3.0598,-3.0559,-3.0482,-3.0007,-2.9245,-2.7634,-2.6805,-2.637,-2.5678,-2.537,-2.5264,-2.5245,-2.4832,-2.4119,-2.3962,-2.311,-2.1833,-2.1687,-2.1353,-2.0772,-2.0695,-2.0695,-2.0637,-2.0515,-2.0366,-2.032,-2.0242,-2.0142,-2.006,-2.0007,-1.9993,-1.9993,-1.8534,-1.7208,-1.5871,-1.5662,-1.6857,-1.8837,-1.8364,-1.717,-1.6098,-1.6961,-1.7102,-1.6352,-1.7071,-1.8486,-2.0006,-2.0488,-2.0519,-2.0516,-2.0434,-2.0373,-2.0345,-2.0437,-2.0488,-2.0526,-2.056,-2.0593,-2.0596,-2.0605,-2.0605,-2.0605,-2.0605,-2.0605,-2.0605,-2.0605,-2.0605,-2.0605,-2.0603,-2.0603,-2.0605,-2.0605,-2.0605,-2.0601,-2.0597,-2.0593,-2.0593,-2.0593,-2.0593,-2.059,-2.0538,-2.0525,-2.0508,-2.0506,-2.0512,-2.0492,-2.0435,-2.0325,-2.0162,-2.0098,-2.0088,-2.0069,-2.0049,-2.0029,-1.9962,-1.9829,-1.9572,-3.0617,-3.0617,-3.0617,-3.0617,-3.0617,-3.0617,-3.0617,-3.0617,-3.0617,-3.0617,-3.0617,-3.0617,-3.0617,-3.0617,-3.0598,-3.0617,-3.0598,-3.0588,-3.0588,-3.0501,-3.0449,-3.0362,-2.9753,-2.8317,-2.7286,-2.6601,-2.5726,-2.5322,-2.5313,-2.5236,-2.4889,-2.4245,-2.4135,-2.3311,-2.1999,-2.2364,-2.2242,-2.1572,-2.1417,-2.1398,-2.1224,-2.0772,-2.045,-2.0372,-2.0262,-2.0152,-2.0079,-2.0028,-1.9993,-1.9899,-1.9614,-1.8989,-1.8648,-1.8629,-1.9084,-1.952,-1.9717,-1.9178,-1.8875,-1.8364,-1.8401,-1.8639,-1.8079,-1.8405,-2.0173,-2.0463,-2.0506,-2.0496,-2.0439,-2.0399,-2.0392,-2.0371,-2.0423,-2.0491,-2.057,-2.0593,-2.0596,-2.0603,-2.0605,-2.0605,-2.0605,-2.0605,-2.0605,-2.0605,-2.0605,-2.0605,-2.0605,-2.0605,-2.0605,-2.0605,-2.0605,-2.0605,-2.0601,-2.0598,-2.0598,-2.0598,-2.0598,-2.0597,-2.057,-2.056,-2.0533,-2.0508,-2.0523,-2.0493,-2.046,-2.0325,-2.0197,-2.0126,-2.0116,-2.0088,-2.0108,-2.0098,-2.0098,-2.0089,-2.0059,-3.0617,-3.0617,-3.0617,-3.0617,-3.0617,-3.0617,-3.0617,-3.0617,-3.0617,-3.0617,-3.0617,-3.0617,-3.0617,-3.0598,-3.0559,-3.0559,-3.054,-3.055,-3.051,-3.046,-3.0409,-3.0175,-2.9586,-2.8615,-2.7603,-2.7024,-2.587,-2.536,-2.5313,-2.5274,-2.5101,-2.4697,-2.4675,-2.4133,-2.2964,-2.3253,-2.3016,-2.2423,-2.2249,-2.2172,-2.1811,-2.134,-2.0688,-2.0403,-2.0211,-2.0125,-2.006,-2.0017,-1.9993,-1.9993,-1.9993,-1.9993,-1.9993,-1.9993,-1.9993,-1.9993,-1.9993,-1.9993,-1.9747,-1.952,-1.9349,-1.9918,-1.9133,-1.9466,-2.0077,-2.0392,-2.0435,-2.0454,-2.0432,-2.0417,-2.0434,-2.0399,-2.0423,-2.0472,-2.0572,-2.0593,-2.0594,-2.0601,-2.0603,-2.0603,-2.0605,-2.0605,-2.0605,-2.0605,-2.0605,-2.0605,-2.0605,-2.0605,-2.0605,-2.0605,-2.0605,-2.0605,-2.0605,-2.0603,-2.0603,-2.0603,-2.0603,-2.0601,-2.0597,-2.0591,-2.0579,-2.0545,-2.0533,-2.0504,-2.0468,-2.0423,-2.0299,-2.0238,-2.0197,-2.0188,-2.0188,-2.018,-2.018,-2.0208,-2.0144,-3.0617,-3.0617,-3.0617,-3.0617,-3.0617,-3.0617,-3.0617,-3.0617,-3.0617,-3.0617,-3.0617,-3.0617,-3.0598,-3.0569,-3.053,-3.0501,-3.051,-3.049,-3.0469,-3.0409,-3.0406,-3.0086,-2.9402,-2.8536,-2.7862,-2.7698,-2.614,-2.539,-2.5313,-2.5293,-2.5255,-2.5255,-2.533,-2.4711,-2.4199,-2.427,-2.3971,-2.3243,-2.312,-2.29,-2.2384,-2.1913,-2.1125,-2.0377,-2.0161,-2.0079,-2.0011,-1.9988,-1.9993,-1.9993,-1.9993,-1.9993,-1.9993,-1.9993,-1.9993,-1.9993,-1.9993,-1.9993,-1.9993,-1.9918,-1.9918,-1.9993,-1.9955,-2.002,-2.0209,-2.0252,-2.0273,-2.0346,-2.0379,-2.0439,-2.0487,-2.0458,-2.0468,-2.0499,-2.0558,-2.0591,-2.0593,-2.0593,-2.0594,-2.0594,-2.0597,-2.0598,-2.0601,-2.0605,-2.0605,-2.0605,-2.0605,-2.0605,-2.0605,-2.0605,-2.0605,-2.0605,-2.0605,-2.0605,-2.0605,-2.0937,-2.0898,-2.166,-2.1445,-2.0735,-2.069,-2.0584,-2.0553,-2.0545,-2.0499,-2.0454,-2.0418,-2.0371,-2.0334,-2.0325,-2.0311,-2.0313,-2.0325,-2.033,-2.0238,-3.0617,-3.0617,-3.0617,-3.0617,-3.0617,-3.0617,-3.0617,-3.0617,-3.0617,-3.0617,-3.0617,-3.0617,-3.0559,-3.053,-3.0501,-3.0491,-3.0479,-3.0458,-3.0417,-3.0406,-3.0394,-3.016,-2.9717,-2.8544,-2.7909,-2.7428,-2.6197,-2.5332,-2.5313,-2.5313,-2.5313,-2.5322,-2.5369,-2.4943,-2.4632,-2.4772,-2.4776,-2.4106,-2.399,-2.3782,-2.3369,-2.2323,-2.129,-2.0441,-2.0278,-2.0136,-2.002,-1.9988,-1.9993,-1.9993,-1.9993,-1.9993,-1.9993,-1.9993,-1.9993,-1.9993,-1.9993,-1.9993,-1.9993,-1.9993,-1.9993,-1.9993,-1.9993,-1.9993,-2.0047,-2.0067,-2.0127,-2.0219,-2.0363,-2.0483,-2.0497,-2.0496,-2.0504,-2.0522,-2.0567,-2.0591,-2.0593,-2.0593,-2.0593,-2.0593,-2.0593,-2.0594,-2.0598,-2.0601,-2.0605,-2.0605,-2.0605,-2.0605,-2.0605,-2.0605,-2.0605,-2.0605,-2.0605,-2.0605,-2.0605,-2.1094,-2.1543,-2.3125,-2.293,-2.1133,-2.0951,-2.0692,-2.0588,-2.056,-2.056,-2.055,-2.0513,-2.0472,-2.0443,-2.0413,-2.0432,-2.0457,-2.0435,-2.0411,-2.0386,-3.0617,-3.0617,-3.0617,-3.0617,-3.0617,-3.0617,-3.0617,-3.0617,-3.0617,-3.0617,-3.0598,-3.0559,-3.053,-3.0491,-3.0441,-3.0439,-3.0436,-3.0414,-3.0383,-3.0402,-3.039,-3.0102,-2.9756,-2.8448,-2.7717,-2.7024,-2.5947,-2.5313,-2.5313,-2.5313,-2.5313,-2.5322,-2.536,-2.5155,-2.496,-2.5197,-2.526,-2.4892,-2.4834,-2.4768,-2.4494,-2.3028,-2.1749,-2.1051,-2.0709,-2.0487,-2.0036,-1.9996,-1.9993,-1.9993,-1.9993,-1.9993,-1.9993,-1.9993,-1.9993,-1.9993,-1.9993,-1.9993,-1.9993,-1.9993,-1.9993,-1.9993,-1.9993,-1.9993,-1.9993,-2.0015,-2.0048,-2.0203,-2.0349,-2.05,-2.05,-2.05,-2.051,-2.0503,-2.0642,-2.0718,-2.065,-2.0671,-2.0593,-2.0593,-2.0593,-2.0594,-2.0594,-2.0599,-2.0604,-2.0605,-2.0605,-2.0605,-2.0605,-2.0605,-2.0625,-2.123,-2.1348,-2.1348,-2.1621,-2.2363,-2.2617,-2.4004,-2.4473,-2.2656,-2.1482,-2.1362,-2.0928,-2.0591,-2.0593,-2.0593,-2.0566,-2.0522,-2.0529,-2.0511,-2.0487,-2.0488,-2.0502,-2.0492,-2.0446,-3.0617,-3.0617,-3.0617,-3.0617,-3.0617,-3.0617,-3.0617,-3.0617,-3.0617,-3.0598,-3.0588,-3.053,-3.0491,-3.0471,-3.0428,-3.0394,-3.0398,-3.039,-3.039,-3.041,-3.039,-3.0006,-2.9333,-2.8352,-2.7621,-2.7082,-2.5822,-2.5313,-2.5313,-2.5313,-2.5313,-2.5322,-2.536,-2.5387,-2.5376,-2.541,-2.5503,-2.5511,-2.5511,-2.5472,-2.4844,-2.388,-2.2601,-2.1675,-2.1403,-2.091,-2.0421,-2.0088,-2.0012,-1.9993,-1.9993,-1.9993,-1.9993,-1.9993,-1.9993,-1.9993,-1.9993,-1.9993,-1.9993,-1.9993,-1.9993,-1.9993,-1.9993,-1.9993,-1.9993,-2.0015,-2.0087,-2.0273,-2.042,-2.0497,-2.05,-2.05,-2.05,-2.077,-2.1182,-2.1597,-2.1655,-2.1427,-2.0651,-2.0593,-2.0612,-2.0712,-2.0829,-2.0594,-2.0601,-2.0603,-2.0605,-2.0605,-2.0605,-2.0605,-2.0859,-2.1875,-2.2285,-2.2285,-2.2891,-2.416,-2.4394,-2.4902,-2.5195,-2.4238,-2.3066,-2.2225,-2.1968,-2.1983,-2.0593,-2.0593,-2.0588,-2.0566,-2.0555,-2.0539,-2.0511,-2.0506,-2.0517,-2.0507,-2.0492,-3.0617,-3.0617,-3.0617,-3.0617,-3.0617,-3.0617,-3.0617,-3.0656,-3.0675,-3.0559,-3.0636,-3.0549,-3.0528,-3.0428,-3.0414,-3.039,-3.0398,-3.0398,-3.0398,-3.0398,-3.0379,-3.0333,-2.9967,-2.8582,-2.7871,-2.7217,-2.5967,-2.5399,-2.5313,-2.5313,-2.5313,-2.5322,-2.536,-2.5387,-2.5395,-2.5448,-2.5511,-2.5511,-2.5511,-2.5147,-2.4576,-2.4551,-2.3807,-2.2675,-2.1817,-2.1237,-2.0922,-2.0448,-2.0107,-1.9993,-1.9993,-1.9993,-1.9993,-1.9993,-1.9993,-1.9993,-1.9993,-1.9993,-1.9993,-1.9993,-2.0202,-2.0221,-2.0107,-2.0012,-1.9993,-2.0004,-2.0087,-2.0277,-2.0415,-2.0487,-2.0529,-2.0692,-2.0597,-2.1689,-2.3053,-2.414,-2.4463,-2.2764,-2.1891,-2.112,-2.1296,-2.1237,-2.1257,-2.0886,-2.0594,-2.0599,-2.0605,-2.0644,-2.0957,-2.123,-2.1934,-2.3164,-2.3691,-2.3691,-2.3691,-2.5019,-2.5371,-2.5684,-2.5566,-2.541,-2.459,-2.3769,-2.447,-2.4057,-2.2441,-2.084,-2.0596,-2.0575,-2.0572,-2.056,-2.0539,-2.0508,-2.0517,-2.0512,-2.0512,-3.0559,-3.0617,-3.0617,-3.0617,-3.0617,-3.0617,-3.0868,-3.1207,-3.1274,-3.1264,-3.1225,-3.1174,-3.091,-3.0491,-3.039,-3.0398,-3.0398,-3.0398,-3.0398,-3.0398,-3.041,-3.039,-2.9979,-2.8747,-2.7813,-2.7101,-2.614,-2.536,-2.5313,-2.5303,-2.5313,-2.5313,-2.537,-2.5397,-2.5387,-2.5421,-2.5476,-2.5503,-2.5484,-2.5294,-2.5022,-2.4926,-2.4541,-2.3395,-2.2833,-2.2128,-2.132,-2.096,-2.041,-2.0164,-1.9993,-1.9993,-1.9993,-1.9993,-1.9993,-1.9993,-1.9993,-1.9993,-1.9993,-1.9993,-2.041,-2.0865,-2.0619,-1.9993,-1.9993,-2.0126,-2.018,-2.0182,-2.0354,-2.0502,-2.1141,-2.2376,-2.3147,-2.4023,-2.4666,-2.5075,-2.5504,-2.4732,-2.3536,-2.271,-2.2096,-2.2428,-2.2408,-2.1725,-2.1452,-2.1299,-2.1205,-2.1113,-2.1934,-2.293,-2.3828,-2.498,-2.5234,-2.5254,-2.5117,-2.5566,-2.5508,-2.5703,-2.5703,-2.5586,-2.5625,-2.5527,-2.5703,-2.5703,-2.4531,-2.2949,-2.1367,-2.0598,-2.0593,-2.0566,-2.0538,-2.0519,-2.0515,-2.0502,-2.0502,-3.051,-3.0579,-3.0598,-3.0617,-3.0617,-3.0617,-3.1052,-3.1738,-3.1757,-3.1881,-3.1976,-3.1777,-3.1184,-3.0544,-3.0398,-3.0398,-3.0398,-3.0398,-3.0398,-3.0398,-3.0371,-3.0248,-2.9632,-2.8516,-2.7514,-2.6851,-2.5831,-2.5331,-2.5293,-2.5293,-2.5293,-2.5313,-2.538,-2.5388,-2.5387,-2.5404,-2.5448,-2.5511,-2.5511,-2.5448,-2.533,-2.5146,-2.4774,-2.4278,-2.3757,-2.3026,-2.1775,-2.1225,-2.0789,-2.0164,-1.9993,-1.9993,-1.9993,-1.9993,-1.9993,-1.9993,-1.9993,-1.9993,-1.9993,-2.0107,-2.0732,-2.113,-2.1661,-2.1074,-2.1547,-2.1244,-2.1305,-2.1746,-2.0467,-2.0885,-2.1971,-2.4268,-2.4779,-2.5134,-2.5543,-2.566,-2.5601,-2.5063,-2.4716,-2.4238,-2.3979,-2.4633,-2.4262,-2.3033,-2.2408,-2.2115,-2.1884,-2.175,-2.2766,-2.4191,-2.4802,-2.5684,-2.5684,-2.5703,-2.5703,-2.5703,-2.5703,-2.5703,-2.5703,-2.5703,-2.5703,-2.5703,-2.5703,-2.5703,-2.5703,-2.4883,-2.3203,-2.1855,-2.0593,-2.059,-2.0566,-2.0545,-2.0531,-2.0522,-2.0504,-3.0458,-3.0509,-3.0579,-3.0598,-3.0617,-3.0617,-3.1062,-3.1892,-3.1862,-3.2265,-3.2625,-3.2069,-3.1218,-3.0583,-3.0398,-3.0398,-3.0398,-3.0398,-3.0398,-3.0398,-3.034,-2.9948,-2.9217,-2.8321,-2.7358,-2.6502,-2.5636,-2.529,-2.5262,-2.5252,-2.5262,-2.5303,-2.5341,-2.537,-2.5397,-2.5395,-2.5429,-2.5484,-2.5511,-2.5468,-2.536,-2.5214,-2.5019,-2.4812,-2.4157,-2.3291,-2.2438,-2.1756,-2.0998,-2.0221,-2.0031,-1.9993,-1.9993,-1.9993,-1.9993,-1.9993,-1.9993,-1.9993,-1.9993,-1.9993,-2.005,-2.0562,-2.1528,-2.2798,-2.3594,-2.4295,-2.4517,-2.3904,-2.2174,-2.2181,-2.373,-2.5409,-2.5625,-2.5687,-2.5691,-2.5699,-2.5699,-2.566,-2.5371,-2.5398,-2.5509,-2.5659,-2.5687,-2.436,-2.4009,-2.3755,-2.3853,-2.3739,-2.409,-2.5164,-2.5289,-2.5684,-2.5684,-2.5703,-2.5703,-2.5703,-2.5703,-2.5703,-2.5703,-2.5703,-2.5703,-2.5703,-2.5703,-2.5703,-2.5664,-2.5391,-2.5019,-2.3437,-2.2044,-2.1025,-2.0749,-2.1372,-2.0985,-2.057,-2.0536,-3.0417,-3.0439,-3.05,-3.053,-3.0549,-3.053,-3.1302,-3.242,-3.2543,-3.2644,-3.2897,-3.2045,-3.1218,-3.059,-3.0398,-3.0398,-3.0398,-3.0398,-3.0398,-3.0398,-3.0283,-2.9775,-2.8948,-2.8003,-2.7056,-2.591,-2.5294,-2.5179,-2.516,-2.5179,-2.516,-2.5212,-2.5233,-2.5293,-2.5332,-2.5387,-2.5429,-2.5484,-2.5503,-2.5468,-2.5369,-2.5214,-2.5084,-2.5027,-2.4848,-2.4081,-2.3272,-2.2438,-2.1604,-2.0865,-2.0297,-2.0069,-1.9993,-1.9993,-1.9993,-1.9993,-1.9993,-1.9993,-2.0031,-2.0031,-1.9993,-2.06,-2.2343,-2.4163,-2.458,-2.4858,-2.4972,-2.4422,-2.3834,-2.3838,-2.4626,-2.5401,-2.5583,-2.5629,-2.5678,-2.5695,-2.5699,-2.5699,-2.5679,-2.557,-2.5597,-2.5684,-2.5698,-2.5551,-2.5492,-2.5492,-2.5629,-2.5687,-2.5687,-2.5689,-2.5697,-2.5701,-2.5703,-2.5703,-2.5703,-2.57,-2.57,-2.5703,-2.5703,-2.5703,-2.5703,-2.5703,-2.5703,-2.5703,-2.5703,-2.5547,-2.5156,-2.4492,-2.3728,-2.3079,-2.2844,-2.2959,-2.2163,-2.1035,-2.068,-3.0394,-3.0406,-3.0447,-3.0488,-3.0518,-3.0749,-3.1656,-3.2879,-3.3261,-3.3128,-3.2852,-3.2045,-3.1218,-3.0602,-3.0398,-3.0398,-3.0398,-3.0398,-3.0398,-3.0398,-3.0294,-2.9613,-2.8717,-2.7819,-2.6918,-2.5482,-2.5115,-2.5134,-2.5134,-2.5141,-2.5111,-2.5091,-2.5084,-2.5149,-2.5234,-2.534,-2.5421,-2.5484,-2.5503,-2.5468,-2.5378,-2.5203,-2.5096,-2.5091,-2.4981,-2.446,-2.3746,-2.3026,-2.2457,-2.1528,-2.0713,-2.0088,-1.9993,-1.9993,-1.9993,-1.9993,-2.0031,-2.005,-2.0069,-2.0543,-2.0429,-2.0486,-2.1566,-2.2931,-2.3518,-2.3645,-2.3291,-2.4991,-2.4896,-2.5031,-2.5163,-2.5271,-2.5387,-2.5453,-2.5649,-2.5699,-2.5699,-2.5699,-2.5699,-2.566,-2.5687,-2.5694,-2.5707,-2.5701,-2.5687,-2.5687,-2.5687,-2.5687,-2.5687,-2.5691,-2.5696,-2.57,-2.5703,-2.5703,-2.5691,-2.5694,-2.5703,-2.5703,-2.5703,-2.5703,-2.5703,-2.5703,-2.5703,-2.5703,-2.5703,-2.5703,-2.543,-2.5,-2.5176,-2.5405,-2.4941,-2.4258,-2.375,-2.2634,-2.1308,-3.041,-3.0398,-3.041,-3.0463,-3.0642,-3.1337,-3.2193,-3.3152,-3.3756,-3.357,-3.2737,-3.1987,-3.1218,-3.0564,-3.0398,-3.0398,-3.0398,-3.0398,-3.0398,-3.0398,-3.034,-2.9429,-2.8475,-2.7635,-2.688,-2.557,-2.516,-2.5149,-2.5149,-2.5069,-2.5013,-2.4968,-2.4955,-2.5006,-2.5107,-2.5303,-2.5423,-2.5484,-2.5503,-2.5468,-2.5369,-2.5203,-2.5107,-2.508,-2.5038,-2.4574,-2.4087,-2.3613,-2.3063,-2.24,-2.1149,-2.0429,-2.0031,-2.0012,-1.9993,-1.9993,-2.0297,-2.0278,-2.0088,-2.1528,-2.1699,-2.0884,-2.1983,-2.1547,-2.0827,-2.0941,-2.2249,-2.4763,-2.4991,-2.4991,-2.5004,-2.5031,-2.5164,-2.5322,-2.5538,-2.5687,-2.5682,-2.5699,-2.5699,-2.5699,-2.5699,-2.5703,-2.5694,-2.5687,-2.5703,-2.5687,-2.5687,-2.5687,-2.5687,-2.5689,-2.5694,-2.5696,-2.5698,-2.5696,-2.5689,-2.5687,-2.5703,-2.5703,-2.5703,-2.5703,-2.5703,-2.5703,-2.5703,-2.5703,-2.5703,-2.5703,-2.5703,-2.5625,-2.5703,-2.5703,-2.5703,-2.5234,-2.4844,-2.4284,-2.3041,-3.0398,-3.0398,-3.0398,-3.0748,-3.1291,-3.158,-3.2473,-3.3686,-3.3962,-3.3404,-3.2256,-3.1775,-3.1218,-3.0629,-3.0398,-3.0398,-3.0398,-3.0398,-3.0398,-3.0398,-3.0398,-2.9333,-2.836,-2.7692,-2.686,-2.5578,-2.513,-2.5101,-2.4987,-2.4947,-2.4879,-2.4804,-2.4804,-2.4934,-2.5134,-2.5313,-2.5406,-2.5429,-2.5456,-2.5468,-2.5378,-2.5233,-2.5084,-2.5084,-2.5019,-2.4801,-2.4479,-2.4087,-2.3632,-2.3272,-2.2078,-2.1339,-2.0581,-2.0334,-2.024,-2.077,-2.1415,-2.2116,-2.1623,-2.2173,-2.3859,-2.3082,-2.2267,-2.2154,-2.3007,-2.3284,-2.4176,-2.4574,-2.4972,-2.4991,-2.4991,-2.4991,-2.5113,-2.5261,-2.5437,-2.5576,-2.5629,-2.5682,-2.5699,-2.5699,-2.5699,-2.5699,-2.5687,-2.5701,-2.5698,-2.5707,-2.5687,-2.5687,-2.5687,-2.5687,-2.5691,-2.5691,-2.5691,-2.5689,-2.5687,-2.5687,-2.5687,-2.5703,-2.5703,-2.5703,-2.5703,-2.5698,-2.5703,-2.5703,-2.5703,-2.5703,-2.5703,-2.5703,-2.5703,-2.5703,-2.5703,-2.5703,-2.5352,-2.5208,-2.4967,-3.0398,-3.0398,-3.0398,-3.1083,-3.2025,-3.2102,-3.2949,-3.3987,-3.3853,-3.2949,-3.1852,-3.141,-3.0948,-3.0494,-3.0398,-3.0398,-3.0398,-3.0398,-3.0398,-3.0398,-3.0398,-2.9352,-2.8398,-2.7876,-2.6929,-2.5704,-2.5134,-2.5106,-2.4961,-2.4888,-2.4808,-2.4704,-2.4657,-2.4804,-2.5095,-2.5401,-2.5832,-2.5811,-2.5768,-2.5661,-2.563,-2.5474,-2.5096,-2.5068,-2.5032,-2.4953,-2.4826,-2.4523,-2.4125,-2.3935,-2.348,-2.2817,-2.1945,-2.168,-2.1699,-2.2609,-2.3158,-2.3708,-2.3177,-2.3348,-2.465,-2.4631,-2.384,-2.3973,-2.4763,-2.4612,-2.4688,-2.4934,-2.4991,-2.5004,-2.5004,-2.5004,-2.5082,-2.5228,-2.537,-2.5517,-2.5613,-2.5649,-2.5695,-2.5695,-2.5699,-2.5699,-2.5699,-2.5697,-2.5693,-2.5701,-2.5687,-2.5707,-2.5707,-2.5687,-2.5687,-2.5687,-2.5687,-2.5687,-2.5687,-2.5687,-2.5687,-2.5687,-2.5687,-2.5687,-2.5689,-2.5693,-2.5699,-2.5703,-2.5703,-2.5703,-2.5703,-2.5703,-2.5703,-2.5703,-2.5703,-2.5703,-2.5703,-2.5703,-2.5703,-3.0398,-3.0398,-3.0398,-3.1333,-3.2679,-3.2756,-3.3353,-3.4045,-3.3295,-3.2468,-3.1583,-3.0775,-3.0475,-3.0417,-3.0398,-3.0398,-3.0398,-3.0398,-3.0398,-3.0398,-3.0398,-2.9236,-2.8571,-2.8241,-2.7105,-2.5894,-2.5198,-2.513,-2.4974,-2.4808,-2.4692,-2.4629,-2.4594,-2.4704,-2.505,-2.5609,-2.6063,-2.5938,-2.6185,-2.6078,-2.6005,-2.5521,-2.5195,-2.508,-2.5051,-2.4991,-2.494,-2.4812,-2.4793,-2.4793,-2.4769,-2.4807,-2.482,-2.4934,-2.4959,-2.4921,-2.4915,-2.4669,-2.4555,-2.4877,-2.4934,-2.4991,-2.4877,-2.494,-2.4959,-2.4991,-2.4991,-2.5004,-2.5018,-2.5031,-2.5057,-2.5057,-2.507,-2.5217,-2.5361,-2.548,-2.5583,-2.5629,-2.5658,-2.5671,-2.5695,-2.5699,-2.5699,-2.5691,-2.5704,-2.5687,-2.5696,-2.5696,-2.5698,-2.5705,-2.5707,-2.5687,-2.5687,-2.5687,-2.5707,-2.5765,-2.5687,-2.5687,-2.5687,-2.5687,-2.5687,-2.5689,-2.5694,-2.57,-2.5703,-2.5703,-2.5703,-2.5703,-2.5703,-2.5703,-2.5703,-2.5703,-2.5703,-2.5703,-2.5703,-3.0398,-3.0398,-3.0398,-3.1044,-3.2045,-3.266,-3.3064,-3.3218,-3.2949,-3.216,-3.0744,-3.0513,-3.0398,-3.0398,-3.0398,-3.0398,-3.0398,-3.0398,-3.0398,-3.0398,-3.0359,-2.9275,-2.864,-2.8225,-2.7157,-2.6002,-2.525,-2.516,-2.4921,-2.4719,-2.4599,-2.4532,-2.4549,-2.4596,-2.4936,-2.5582,-2.571,-2.6028,-2.6496,-2.6543,-2.6063,-2.5435,-2.5198,-2.5111,-2.5051,-2.5004,-2.4945,-2.4889,-2.4875,-2.4856,-2.495,-2.4996,-2.4991,-2.4991,-2.4991,-2.4991,-2.4991,-2.4953,-2.4991,-2.4991,-2.4991,-2.4991,-2.4991,-2.4991,-2.4991,-2.4991,-2.4991,-2.5018,-2.5101,-2.516,-2.5195,-2.5195,-2.5172,-2.5228,-2.5332,-2.5379,-2.548,-2.5577,-2.5618,-2.5678,-2.5687,-2.5699,-2.5699,-2.5699,-2.5691,-2.5694,-2.5697,-2.5701,-2.5687,-2.5701,-2.6486,-2.6546,-2.6566,-2.6839,-2.6078,-2.5922,-2.5785,-2.5687,-2.5687,-2.5687,-2.5687,-2.5689,-2.5691,-2.5694,-2.5698,-2.5697,-2.5703,-2.5703,-2.5703,-2.5703,-2.5703,-2.5703,-2.5703,-2.5703,-2.5703,-3.0398,-3.0398,-3.0398,-3.091,-3.1756,-3.2564,-3.2737,-3.2487,-3.2429,-3.1621,-3.0475,-3.0398,-3.0398,-3.0398,-3.0398,-3.0398,-3.0398,-3.0398,-3.0398,-3.0398,-3.0398,-2.9275,-2.8582,-2.8044,-2.7033,-2.5946,-2.5241,-2.5122,-2.4888,-2.466,-2.45,-2.45,-2.45,-2.4515,-2.4804,-2.5364,-2.5532,-2.5983,-2.6474,-2.6766,-2.6266,-2.5466,-2.5241,-2.5157,-2.5076,-2.5018,-2.4884,-2.4827,-2.4768,-2.4764,-2.4875,-2.4917,-2.4931,-2.4964,-2.4991,-2.4991,-2.4991,-2.4991,-2.4991,-2.4991,-2.4991,-2.4991,-2.4991,-2.4991,-2.4991,-2.4991,-2.5031,-2.5082,-2.5217,-2.5322,-2.5341,-2.5351,-2.5302,-2.5231,-2.525,-2.525,-2.537,-2.5499,-2.557,-2.5654,-2.5678,-2.5695,-2.5699,-2.5757,-2.5699,-2.5703,-2.5707,-2.5687,-2.5701,-2.5696,-2.7186,-2.8381,-2.8303,-2.8264,-2.7405,-2.6527,-2.6,-2.5863,-2.5687,-2.5687,-2.5687,-2.5687,-2.5689,-2.5689,-2.5689,-2.5689,-2.5689,-2.5694,-2.5703,-2.5703,-2.5703,-2.5703,-2.5703,-2.5703,-2.5703,-3.0398,-3.0398,-3.0398,-3.091,-3.1737,-3.2372,-3.2256,-3.1718,-3.1641,-3.1141,-3.0475,-3.0398,-3.0398,-3.0398,-3.0398,-3.0398,-3.0398,-3.0398,-3.0398,-3.0379,-3.0398,-2.9486,-2.8313,-2.7717,-2.6774,-2.5793,-2.5212,-2.5091,-2.4874,-2.466,-2.45,-2.45,-2.45,-2.4517,-2.4661,-2.5194,-2.5302,-2.5305,-2.6142,-2.6699,-2.639,-2.5813,-2.5408,-2.5239,-2.5225,-2.5203,-2.4936,-2.4783,-2.4692,-2.4723,-2.4753,-2.4764,-2.4827,-2.4846,-2.4908,-2.495,-2.4936,-2.495,-2.4964,-2.4977,-2.4996,-2.4996,-2.4991,-2.4991,-2.4991,-2.4991,-2.5031,-2.5107,-2.5228,-2.5262,-2.5274,-2.5332,-2.5332,-2.5765,-2.6109,-2.6522,-2.7033,-2.6544,-2.5577,-2.5643,-2.5659,-2.5892,-2.7413,-2.7628,-2.7745,-2.6809,-2.6654,-2.6751,-2.6642,-2.6663,-2.7727,-2.9765,-2.9611,-2.9416,-2.9298,-2.8264,-2.6624,-2.6117,-2.5961,-2.5687,-2.5687,-2.5687,-2.5687,-2.5687,-2.5687,-2.5687,-2.5689,-2.5689,-2.5693,-2.5703,-2.5703,-2.5703,-2.5703,-2.5703,-2.5703,-3.0398,-3.0398,-3.0398,-3.091,-3.1583,-3.1198,-3.1314,-3.1621,-3.0987,-3.0629,-3.0417,-3.0398,-3.0398,-3.0398,-3.0398,-3.0398,-3.0398,-3.0398,-3.0398,-3.0359,-3.034,-2.941,-2.8063,-2.7448,-2.6505,-2.5686,-2.5201,-2.5043,-2.4832,-2.4629,-2.45,-2.45,-2.45,-2.4517,-2.4515,-2.4957,-2.4891,-2.4855,-2.5263,-2.5977,-2.5917,-2.668,-2.6891,-2.6109,-2.5681,-2.5622,-2.5272,-2.4745,-2.4701,-2.4701,-2.4663,-2.4676,-2.4723,-2.4663,-2.4776,-2.4908,-2.4802,-2.4802,-2.4908,-2.4922,-2.4936,-2.5059,-2.5091,-2.5015,-2.4991,-2.501,-2.5069,-2.5177,-2.5153,-2.5179,-2.5222,-2.5293,-2.5457,-2.6194,-2.714,-2.7929,-2.8714,-2.7431,-2.5997,-2.5621,-2.5638,-2.7006,-2.8686,-2.9338,-2.9552,-2.9611,-2.9688,-2.9669,-2.9377,-2.9258,-2.8964,-3.0359,-3.0465,-3.0389,-3.0389,-2.9955,-2.8274,-2.6988,-2.6637,-2.6249,-2.5802,-2.5687,-2.5687,-2.5687,-2.5687,-2.5679,-2.5687,-2.5701,-2.5693,-2.5689,-2.5703,-2.5703,-2.5703,-2.5703,-2.5703,-3.0398,-3.0398,-3.0398,-3.066,-3.0987,-3.0602,-3.0667,-3.0968,-3.059,-3.0398,-3.0398,-3.0398,-3.0398,-3.0398,-3.0398,-3.0398,-3.0398,-3.0398,-3.0398,-3.0359,-2.9871,-2.9025,-2.8082,-2.7217,-2.6351,-2.5552,-2.518,-2.4942,-2.479,-2.4613,-2.45,-2.45,-2.45,-2.4517,-2.4498,-2.4532,-2.4615,-2.4753,-2.4742,-2.5143,-2.5808,-2.6998,-2.7594,-2.6794,-2.614,-2.5996,-2.5608,-2.5045,-2.4895,-2.4879,-2.4843,-2.465,-2.466,-2.466,-2.4663,-2.4663,-2.4599,-2.4532,-2.4711,-2.4873,-2.4964,-2.5234,-2.6706,-2.7199,-2.7593,-2.7555,-2.6247,-2.616,-2.5222,-2.5101,-2.5101,-2.5137,-2.5261,-2.5734,-2.7662,-2.9203,-2.9602,-2.9159,-2.7253,-2.5563,-2.6553,-2.883,-3.0019,-3.0117,-3.0292,-3.0292,-3.0682,-3.0721,-3.076,-3.0799,-3.0802,-3.0794,-3.0785,-3.0801,-3.0657,-3.0459,-2.9913,-2.8707,-2.7582,-2.6893,-2.6425,-2.5954,-2.5707,-2.5752,-2.5736,-2.566,-2.5667,-2.598,-2.5788,-2.5701,-2.5701,-2.5703,-2.5693,-2.5726,-2.5918,-3.0398,-3.0398,-3.0398,-3.0398,-3.0398,-3.0398,-3.0417,-3.0417,-3.0398,-3.0398,-3.0398,-3.0398,-3.0398,-3.0398,-3.0398,-3.0398,-3.0398,-3.0398,-3.0398,-2.9967,-2.9467,-2.8544,-2.7775,-2.7091,-2.6226,-2.5538,-2.5082,-2.4929,-2.4808,-2.4631,-2.45,-2.45,-2.4517,-2.4515,-2.453,-2.4615,-2.4732,-2.4953,-2.5177,-2.5658,-2.6619,-2.7711,-2.7962,-2.7479,-2.6792,-2.6159,-2.6024,-2.5747,-2.5475,-2.5444,-2.5501,-2.5647,-2.583,-2.6017,-2.578,-2.5745,-2.4948,-2.469,-2.4504,-2.4841,-2.5241,-2.6126,-2.8388,-2.9285,-2.9342,-2.9055,-2.7763,-2.7024,-2.6091,-2.5763,-2.5768,-2.5796,-2.5919,-2.5788,-2.8049,-3.0022,-3.0227,-3.0385,-2.8434,-2.626,-2.8005,-3.0367,-3.0661,-3.0779,-3.0799,-3.0799,-3.0799,-3.0799,-3.0799,-3.0799,-3.0789,-3.0793,-3.0802,-3.0793,-3.0784,-3.0672,-3.0481,-3.0243,-2.9093,-2.8013,-2.6965,-2.6175,-2.5746,-2.5862,-2.5819,-2.6696,-2.6625,-2.6759,-2.6417,-2.5989,-2.5694,-2.5668,-2.5547,-2.5673,-2.6174,-3.0398,-3.0398,-3.0398,-3.0398,-3.0398,-3.0398,-3.0398,-3.0398,-3.0398,-3.0398,-3.0398,-3.0398,-3.0398,-3.0398,-3.0398,-3.0398,-3.0398,-3.0398,-2.9871,-2.9333,-2.9102,-2.8121,-2.7313,-2.6918,-2.6109,-2.5589,-2.5197,-2.4964,-2.525,-2.4895,-2.4574,-2.4685,-2.463,-2.4627,-2.4673,-2.4867,-2.5223,-2.5517,-2.5684,-2.6059,-2.8211,-2.8975,-2.8917,-2.8859,-2.8983,-2.8248,-2.7637,-2.6843,-2.6726,-2.6692,-2.6693,-2.7158,-2.7568,-2.7866,-2.7769,-2.7085,-2.6228,-2.5263,-2.5173,-2.5317,-2.582,-2.7642,-2.8968,-2.8075,-2.8634,-2.9775,-2.9017,-2.9017,-2.8427,-2.8446,-2.8446,-2.8446,-2.8441,-2.7281,-2.8131,-2.9479,-3.0248,-3.0309,-2.9544,-2.8914,-2.9506,-3.0576,-3.073,-3.0799,-3.0799,-3.0799,-3.0799,-3.0799,-3.0799,-3.0799,-3.0799,-3.0799,-3.0799,-3.0799,-3.0804,-3.0774,-3.0658,-3.0725,-3.0275,-2.8566,-2.7126,-2.6071,-2.5753,-2.5784,-2.7574,-2.912,-2.882,-2.7922,-2.7187,-2.673,-2.5989,-2.5658,-2.5511,-2.616,-2.7129]},{"header":{"parameterUnit":"m.s-1","parameterCategory":1,"la1":31.0,"la2":29.5877,"lo1":-88.7671,"lo2":-86.6584,"dy":0.0162,"dx":0.0185,"nx":115,"ny":88,"refTime":"2026-05-24T12:00:00:Z","depth":0,"parameterNumber":3,"parameterNumberName":"V-component_of_WINDS"},"data":[0.0,0.0,0.0,0.0,0.0,0.0,0.0,0.0,0.0,0.0,0.0,0.0,0.0,0.0,0.0,0.0,0.0,0.0,0.0,0.0,0.0,0.0,0.0,0.0,0.0,0.0,0.0,0.0,0.0,0.0,0.0,0.0,0.0,0.0,0.0,0.0,0.0,0.0,0.0,0.0,0.0,0.0,0.0,0.0,0.0,0.0,0.0,0.0,0.0,0.0,0.0,0.0,0.0,0.0,0.0,0.0,0.0,0.0,0.0,0.0,0.0,0.0,0.0,0.0,0.0,0.0,0.0,0.0,0.0,0.0,0.0,0.0,0.0,0.0,0.0,0.0,0.0,0.0,0.0,0.0,0.0,0.0,0.0,0.0,0.0,0.0,0.0,0.0,0.0,0.0,0.0,0.0,0.0,0.0,0.0,0.0,0.0,0.0,0.0,0.0,0.0,0.0,0.0,0.0,0.0,0.0,0.0,0.0,0.0,0.0,0.0,0.0,0.0,0.0,0.0,0.0,0.0,0.0,0.0,0.0,0.0,0.0,0.0,0.0,0.0,0.0,0.0,0.0,0.0,0.0,0.0,0.0,0.0,0.0,0.0,0.0,0.0,0.0,0.0,0.0,0.0,0.0,0.0,0.0,0.0,0.0,0.0,0.0,0.0,0.0,0.0,0.0,0.0,0.0,0.0,0.0,0.0,0.0,0.0,0.0,0.0,0.0,0.0,0.0,0.0,0.0,0.0,0.0,0.0,0.0,0.0,0.0,0.0,0.0,0.0,0.0,0.0,0.0,0.0,0.0,0.0,0.0,0.0,0.0,0.0,0.0,0.0,0.0,0.0,0.0,0.0,0.0,0.0,0.0,0.0,0.0,0.0,0.0,0.0,0.0,0.0,0.0,0.0,0.0,0.0,0.0,0.0,0.0,0.0,0.0,0.0,0.0,0.0,0.0,0.0,0.0,0.0,0.0,0.0,0.0,0.0,0.0,0.0,0.0,0.0,0.0,0.0,0.0,0.0,0.0,0.0,0.0,0.0,0.0,0.0,0.0,0.0,0.0,0.0,0.0,0.0,0.0,0.0,0.0,0.0,0.0,0.0,0.0,0.0,0.0,0.0,0.0,0.0,0.0,0.0,0.0,0.0,0.0,0.0,0.0,0.0,0.0,0.0,0.0,0.0,0.0,0.0,0.0,0.0,0.0,0.0,0.0,0.0,0.0,0.0,0.0,0.0,0.0,0.0,0.0,0.0,0.0,0.0,0.0,0.0,0.0,0.0,0.0,0.0,0.0,0.0,0.0,0.0,0.0,0.0,0.0,0.0,0.0,0.0,0.0,0.0,0.0,0.0,0.0,0.0,0.0,0.0,0.0,0.0,0.0,0.0,0.0,0.0,0.0,0.0,0.0,0.0,0.0,0.0,0.0,0.0,0.0,0.0,0.0,0.0,0.0,0.0,0.0,0.0,0.0,0.0,0.0,0.0,0.0,0.0,0.0,0.0,0.0,0.0,0.0,0.0,0.0,0.0,0.0,0.0,0.0,0.0,0.0,0.0,0.0,0.0,0.0,0.0,0.0,0.0,0.0,0.0,0.0,0.0,0.0,0.0,0.0,0.0,0.0,0.0,0.0,0.0,0.0,0.0,0.0,0.0,0.0,0.0,0.0,0.0,0.0,0.0,0.0,0.0,0.0,0.0,0.0,0.0,0.0,0.0,0.0,0.0,0.0,0.0,0.0,0.0,0.0,0.0,0.0,0.0,0.0,0.0,0.0,0.0,0.0,0.0,0.0,0.0,0.0,0.0,0.0,0.0,0.0,0.0,0.0,0.0,0.0,0.0,0.0,0.0,0.0,0.0,0.0,0.0,0.0,0.0,0.0,0.0,0.0,0.0,0.0,0.0,0.0,0.0,0.0,0.0,0.0,0.0,0.0,0.0,0.0,0.0,0.0,0.0,0.0,0.0,0.0,0.0,0.0,0.0,0.0,0.0,0.0,0.0,0.0,0.0,0.0,0.0,0.0,0.0,0.0,0.0,0.0,0.0,0.0,0.0,0.0,0.0,0.0,0.0,0.0,0.0,0.0,0.0,0.0,0.0,0.0,0.0,0.0,0.0,0.0,0.0,0.0,0.0,0.0,0.0,0.0,0.0,0.0,0.0,0.0,0.0,0.0,0.0,0.0,0.0,0.0,0.0,0.0,0.0,0.0,0.0,0.0,0.0,0.0,0.0,0.0,0.0,0.0,0.0,0.0,0.0,0.0,0.0,0.0,0.0,0.0,0.0,0.0,0.0,0.0,0.0,0.0,0.0,0.0,0.0,0.0,0.0,0.0,0.0,0.0,0.0,0.0,0.0,0.0,0.0,0.0,0.0,0.0,0.0,0.0,0.0,0.0,0.0,0.0,0.0,0.0,0.0,0.0,0.0,0.0,0.0,0.0,0.0,0.0,0.0,0.0,0.0,0.0,0.0,0.0,0.0,0.0,0.0,0.0,0.0,0.0,0.0,0.0,0.0,0.0,0.0,0.0,0.0,0.0,0.0,0.0,0.0,0.0,0.0,0.0,0.0,0.0,0.0,0.0,0.0,0.0,0.0,0.0,0.0,0.0,0.0,0.0,0.0,0.0,0.0,0.0,0.0,0.0,0.0,0.0,0.0,0.0,0.0,0.0,0.0,0.0,0.0,0.0,0.0,0.0,0.0,0.0,0.0,0.0,0.0,0.0,0.0,0.0,0.0,0.0,0.0,0.0,0.0,0.0,0.0,0.0,0.0,0.0,0.0,0.0,0.0,0.0,0.0,0.0,0.0,0.0,0.0,0.0,0.0,0.0,0.0,0.0,0.0,0.0,0.0,0.0,0.0,0.0,0.0,0.0,0.0,0.0,0.0,0.0,0.0,0.0,0.0,0.0,0.0,0.0,0.0,0.0,0.0,0.0,0.0,0.0,0.0,0.0,0.0,0.0,0.0,0.0,0.0,0.0,0.0,0.0,0.0,0.0,0.0,0.0,0.0,0.0,0.0,0.0,0.0,0.0,0.0,0.0,0.0,0.0,0.0,0.0,0.0,0.0,0.0,0.0,0.0,0.0,0.0,0.0,0.0,0.0,0.0,0.0,0.0,0.0,0.0,0.0,0.0,0.0,0.0,0.0,0.0,0.0,0.0,0.0,0.0,0.0,0.0,0.0,0.0,0.0,0.0,0.0,0.0,0.0,0.0,0.0,0.0,0.0,0.0,0.0,0.0,0.0,0.0,0.0,0.0,0.0,0.0,0.0,0.0,0.0,0.0,0.0,0.0,0.0,0.0,0.0,0.0,0.0,0.0,0.0,0.0,0.0,0.0,0.0,0.0,0.0,0.0,0.0,0.0,0.0,0.0,0.0,0.0,0.0,0.0,0.0,0.0,0.0,0.0,0.0,0.0,0.0,0.0,0.0,0.0,0.0,0.0,0.0,0.0,0.0,0.0,0.0,0.0,0.0,0.0,0.0,0.0,0.0,0.0,0.0,0.0,0.0,0.0,0.0,0.0,0.0,0.0,0.0,0.0,0.0,0.0,0.0,0.0,0.0,0.0,0.0,0.0,0.0,0.0,0.0,0.0,0.0,0.0,0.0,0.0,0.0,0.0,0.0,0.0,0.0,0.0,0.0,0.0,0.0,0.0,0.0,0.0,0.0,0.0,0.0,0.0,0.0,0.0,0.0,0.0,0.0,0.0,0.0,0.0,0.0,0.0,0.0,0.0,0.0,0.0,0.0,0.0,0.0,0.0,0.0,0.0,0.0,0.0,0.0,0.0,0.0,0.0,0.0,0.0,0.0,0.0,0.0,0.0,0.0,0.0,0.0,0.0,0.0,0.0,0.0,0.0,0.0,0.0,0.0,0.0,0.0,0.0,0.0,0.0,0.0,0.0,0.0,0.0,0.0,0.0,0.0,0.0,0.0,0.0,0.0,0.0,0.0,0.0,0.0,0.0,0.0,0.0,0.0,0.0,0.0,0.0,0.0,0.0,0.0,0.0,0.0,0.0,0.0,0.0,0.0,0.0,0.0,0.0,0.0,0.0,0.0,0.0,0.0,0.0,0.0,0.0,0.0,0.0,0.0,0.0,0.0,0.0,0.0,0.0,0.0,0.0,0.0,0.0,0.0,0.0,0.0,0.0,0.0,0.0,0.0,0.0,0.0,0.0,0.0,0.0,0.0,0.0,0.0,0.0,0.0,0.0,0.0,0.0,0.0,0.0,0.0,0.0,0.0,0.0,0.0,0.0,0.0,0.0,0.0,0.0,0.0,0.0,0.0,0.0,0.0,0.0,0.0,0.0,0.0,0.0,0.0,0.0,0.0,0.0,0.0,0.0,0.0,0.0,0.0,0.0,0.0,0.0,0.0,0.0,0.0,0.0,0.0,0.0,0.0,0.0,0.0,0.0,0.0,0.0,0.0,0.0,0.0,0.0,0.0,0.0,0.0,0.0,0.0,0.0,0.0,0.0,0.0,0.0,0.0,0.0,0.0,0.0,0.0,0.0,0.0,0.0,0.0,0.0,0.0,0.0,0.0,0.0,0.0,0.0,0.0,0.0,0.0,0.0,0.0,0.0,0.0,0.0,0.0,0.0,0.0,0.0,0.0,0.0,0.0,0.0,0.0,0.0,0.0,0.0,0.0,0.0,0.0,0.0,0.0,0.0,0.0,0.0,0.0,0.0,0.0,0.0,0.0,0.0,0.0,0.0,0.0,0.0,0.0,0.0,0.0,0.0,0.0,0.0,0.0,0.0,0.0,0.0,0.0,0.0,0.0,0.0,0.0,0.0,0.0,0.0,0.0,0.0,0.0,0.0,0.0,0.0,0.0,0.0,0.0,0.0,0.0,0.0,0.0,0.0,0.0,0.0,0.0,0.0,0.0,0.0,0.0,0.0,0.0,0.0,0.0,0.0,0.0,0.0,0.0,0.0,0.0,0.0,0.0,0.0,0.0,0.0,0.0,0.0,0.0,0.0,0.0,0.0,0.0,0.0,0.0,0.0,0.0,0.0,0.0,0.0,0.0,0.0,0.0,0.0,0.0,0.0,0.0,0.0,0.0,0.0,0.0,0.0,0.0,0.0,0.0,0.0,0.0,0.0,0.0,0.0,0.0,0.0,0.0,0.0,0.0,0.0,0.0,0.0,0.0,0.0,0.0,0.0,0.0,0.0,0.0,0.0,0.0,0.0,0.0,0.0,0.0,0.0,0.0,0.0,0.0,0.0,0.0,0.0,0.0,0.0,0.0,0.0,0.0,0.0,0.0,0.0,0.0,0.0,0.0,0.0,0.0,0.0873,0.0551,0.0062,0.0,0.0,0.0,0.0,0.0,0.0,0.0,0.0,0.0,0.0,0.0,0.0,0.0,0.0,0.0,0.0,0.0,0.0,0.0,0.0,0.0,0.0,0.0,0.0,0.0,0.0,0.0,0.0,0.0,0.0,0.0,0.0,0.0,0.0,0.0,0.0,0.0,0.0,0.0,0.0,0.0,0.0,0.0,0.0,0.0,0.0,0.0,0.0,0.0,0.0,0.0,0.0,0.0,0.0,0.0,0.0,0.0,0.0,0.0,0.0,0.0,0.0,0.0,0.0,0.0,0.0,0.0,0.0,0.0,0.0,0.0,0.0,0.0,0.0,0.0,0.0,0.0,0.0,0.0,0.0,0.0,0.0,0.0,0.0,0.0,0.0,0.0,0.0,0.0,0.0,0.0,0.0,0.0,0.0,0.0,0.0,0.0,0.0,0.0,0.0,0.0,0.0,0.0,0.0,0.0,0.0,0.0,0.0,0.0,0.0,0.3924,0.3902,0.3489,0.0,0.0211,0.0,0.0,0.0,0.0,0.0,0.0,0.0,0.0,0.0,0.0,0.0,0.0,0.0,0.0,0.0,0.0,0.0,0.0,0.0,0.0,0.0,0.0,0.0,0.0,0.0,0.0,0.0,0.0,0.0,0.0,0.0,0.0,0.0,0.0,0.0,0.0,0.0,0.0,0.0,0.0,0.0,0.0,0.0,0.0,0.0,0.0,0.0,0.0,0.0,0.0,0.0,0.0,0.0,0.0,0.0,0.0,0.0,0.0,0.0,0.0,0.0,0.0,0.0,0.0,0.0,0.0,0.0,0.0,0.0,0.0,0.0,0.0,0.0,0.0,0.0,0.0,0.0,0.0,0.0,0.0,0.0,0.0,0.0,0.0,0.0,0.0,0.0,0.0,0.0,0.0,0.0,0.0,0.0,0.0,0.0,0.0,0.0,0.0,0.0,0.0,0.0,0.0,0.0,0.0,0.0,0.0,0.0,0.0,0.0,0.0,0.4318,0.5631,0.4324,0.2456,0.0,0.0,0.0,0.0,0.0,0.0,0.0,0.0,0.0,0.0,0.0,0.0,0.0,0.0,0.0,0.0,0.0,0.0,0.0,0.0,0.0,0.0,0.0,0.0,0.0,0.0,0.0,0.0,0.0,0.0,0.0,0.0,0.0,0.0,0.0,0.0,0.0,0.0,0.0,0.0,0.0,0.0,0.0,0.0,0.0,0.0,0.0,0.0,0.0,0.0,0.0,0.0,0.0,0.0,0.0,0.0,0.0,0.0,0.0,0.0,0.0,0.0,0.0,0.0,0.0,0.0,0.0,0.0,0.0,0.0,0.0,0.0,0.0,0.0,0.0,0.0,0.0,0.0,0.0,0.0,0.0,0.0,0.0,0.0,0.0,0.0,0.0,0.0,0.0,0.0,0.0,0.0,0.0,0.0,0.0,0.0,0.0,0.0,0.0,0.0,0.0,0.0,0.0,0.0,0.0,0.0,0.0,0.0,0.0,0.0,0.2978,0.4344,0.6365,0.4697,0.283,0.1063,0.0,0.0,0.0,0.0,0.0,0.0,0.0,0.0,0.0,0.0,0.0,0.0,0.0,0.0,0.0,0.0,0.0,0.0,0.0,0.0,0.0,0.0,0.0,0.0,0.0,0.0,0.0,0.0,0.0,0.0,0.0,0.0,0.0,0.0,0.0,0.0,0.0,0.0,0.0,0.0,0.0,0.0,0.0,0.0,0.0,0.0,0.0,0.0,0.0,0.0,0.0,0.0,0.0,0.0,0.0,0.0,0.0,0.0,0.0,0.0,0.0,0.0,0.0,0.0,0.0,0.0,0.0,0.0,0.0,0.0,0.0,0.0,0.0,0.0,0.0,0.0,0.0,0.0,0.0,0.0,0.0,0.0,0.0,0.0,0.0,0.0,0.0,0.0,0.0,0.0,0.0,0.0,0.0,0.0,0.0,0.0,0.0,0.0,0.0,0.0,0.0,0.0,0.0,0.0,0.0,0.0,0.0,0.0,0.0,0.2172,0.4343,0.6411,0.4757,0.3692,0.0,0.0,0.0,0.0,0.0,0.0,0.0,0.0,0.0,0.0,0.0,0.0,0.0,0.0,0.0,0.0,0.0,0.0,0.0,0.0,0.0,0.0,0.0,0.0,0.0,0.0,0.0,0.0,0.0,0.0,0.0,0.0,0.0,0.0,0.0,0.0,0.0,0.0,0.0,0.0,0.0,0.0,0.0,0.0,0.0,0.0,0.0,0.0,0.0,0.0,0.0,0.0,0.0,0.0,0.0,0.0,0.0,0.0,0.0,0.0,0.0,0.0,0.0,0.0,0.0,0.0,0.0,0.0,0.0,0.0,0.0,0.0,0.0,0.0,0.0,0.0,0.0,0.0,0.0,0.0,0.0,0.0,0.0,0.0,0.0,0.0,0.0,0.0,0.0,0.0,0.0,0.0,0.0,0.0,0.0,0.0,0.0,0.0,0.0,0.0,0.0,0.0,0.0,0.0,0.0,0.0,0.0,0.0,0.0,0.0,0.0782,0.2235,0.4369,0.5177,0.4916,0.0,0.0,0.0,0.0,0.0,0.0,0.0,0.0,0.0,0.0,0.0,0.0,0.0,0.0,0.0,0.0,0.0,0.0,0.0,0.0,0.0,0.0,0.0,0.0,0.0,0.0,0.0,0.0,0.0,0.0,0.0,0.0,0.0,0.0,0.0,0.0,0.0,0.0,0.0,0.0,0.0,0.0,0.0,0.0,0.0,0.0,0.0,0.0,0.0,0.0,0.0,0.0,0.0,0.0,0.0,0.0,0.0,0.0,0.0,0.0,0.0,0.0,0.0,0.0,0.0,0.0,0.0,0.0,0.0,0.0,0.0,0.0,0.0,0.0,0.0,0.0,0.0,0.0,0.0,0.0,0.0,0.0,0.0,0.0,0.0,0.0,0.0,0.0,0.0,0.0,0.0,0.0,0.0,0.0,0.0,0.0,0.0,0.0,0.0,0.0,0.0,0.0,0.0,0.0,0.0,0.0,0.0,0.0,0.0,0.0986,0.0,0.1089,0.0,0.4019,0.4143,0.0,0.0,0.0,0.0,0.0,0.0,0.0,0.0,0.0,0.0,0.0,0.0,0.0,0.0,0.0,0.0,0.0,0.0,0.0,0.0,0.0,0.0,0.0,0.0,0.0,0.0,0.0,0.0,0.0,0.0,0.0,0.0,0.0,0.0,0.0,0.0,0.0,0.0,0.0,0.0,0.0,0.0,0.0,0.0,0.0,0.0,0.0,0.0,0.0,0.0,0.0,0.0,0.0,0.0,0.0,0.0,0.0,0.0,0.0,0.0,0.0,0.0,0.0,0.0,0.0,0.0,0.0,0.0,0.0,0.0,0.0,0.0,0.0,0.0,0.0,0.0,0.0,0.0,0.0,0.0,0.0,0.0,0.0,0.0,0.0,0.0,0.0,0.0,0.0,0.0,0.0,0.0,0.0,0.0,0.0,0.0,0.0,0.0,0.0,0.0,0.0,0.0,0.0,0.0,0.0,0.0,0.0,0.0,0.1097,0.3054,0.2224,0.1259,0.0145,0.1291,0.1275,0.0,0.0,0.0,0.0,0.0,0.0,0.0,0.0,0.0,0.0,0.0,0.0,0.0,0.0,0.0,0.0,0.0,0.0,0.0,0.0,0.0,0.0,0.0,0.0,0.0,0.0,0.0,0.0,0.0,0.0,0.0,0.0,0.0,0.0,0.0,0.0,0.0,0.0,0.0,0.0,0.0,0.0,0.0,0.0,0.0,0.0,0.0,0.0,0.0,0.0,0.0,0.0,0.0,0.0,0.0,0.0,0.0,0.0,0.0,0.0,0.0,0.0,0.0,0.0,0.0,0.0,0.0,0.0,0.0,0.0,0.0,0.0,0.0,0.0,0.0,0.0,0.0,0.0,0.0,0.0,0.0,0.0,0.0,0.0,0.0,0.0,0.0,0.0,0.0,0.0,0.0,0.0,0.0,0.0,0.0,0.0,0.0,0.0,0.0,0.0,0.0,0.0,0.0,0.0,0.0,0.0,0.0,0.0,0.0,0.4232,0.3321,0.2637,0.2284,0.191,0.1658,0.0,0.0,0.0,0.0,0.0,0.0,0.0,0.0,0.0,0.0,0.0,0.0,0.0,0.0,0.0,0.0,0.0,0.0,0.0,0.0,0.0,0.0,0.0,0.0,0.0,0.0,0.0,0.0,0.0,0.0,0.0,0.0,0.0,0.0,0.0,0.0,0.0,0.0,0.0,0.0,0.0,0.0,0.0,0.0,0.0,0.0,0.0,0.0,0.0,0.0,0.0,0.0,0.0,0.0,0.0,0.0,0.0,0.0,0.0,0.0,0.0,0.0,0.0,0.0,0.0,0.0,0.0,0.0,0.0,0.0,0.0,0.0,0.0,0.0,0.0,0.0,0.0,0.0,0.0,0.0,0.0,0.0,0.0,0.0,0.0,0.0,0.0,0.0,0.0,0.0,0.0,0.0,0.0,0.0,0.0,0.0,0.0,0.0,0.0,0.0,0.0,0.0,0.0,0.0,0.0,0.0,0.0,0.0,0.0,0.4742,0.4535,0.4021,0.3276,0.2624,0.2418,0.2656,0.0,0.0,0.0,0.0,0.0,0.0,0.0,0.0,0.0,0.0,0.0,0.0,0.0,0.0,0.0,0.0,0.0,0.0,0.0,0.0,0.0,0.0,0.0,0.0,0.0,0.0,0.0,0.0,0.0,0.0,0.0,0.0,0.0,0.0,0.0,0.0,0.0,0.0,0.0,0.0,0.0,0.0,0.0,0.0,0.0,0.0,0.0,0.0,0.0,0.0,0.0,0.0,0.0,0.0,0.0,0.0,0.0,0.0,0.0,0.0,0.0,0.0,0.0,0.0,0.0,0.0,0.0,0.0,0.0,0.0,0.0,0.0,0.0,0.0,0.0,0.0,0.0,0.0,0.0,0.0,0.0,0.0,0.0,0.0,0.0,0.0,0.0,0.0,0.0,0.0,0.0,0.0,0.0,0.0,0.0,0.0,0.0,0.0,0.0,0.0,0.0,0.0,0.0,0.0,0.0,0.0,0.0,0.0,0.4766,0.5691,0.5249,0.3398,0.3324,0.3348,0.0,0.0,0.0,0.0,0.0,0.0,0.0,0.0,0.0,0.0,0.0,0.0,0.0,0.0,0.0,0.0,0.0,0.0,0.0,0.0,0.0,0.0,0.0,0.0,0.0,0.0,0.0,0.0,0.0,0.0,0.0,0.0,0.0,0.0,0.0,0.0,0.0,0.0,0.0,0.0,0.0,0.0,0.0,0.0,0.0,0.0,0.0,0.0,0.0,0.0,0.0,0.0,0.0,0.0,0.0,0.0,0.0,0.0,0.0,0.0,0.0,0.0,0.0,0.0,0.0,0.0,0.0,0.0,0.0,0.0,0.0,0.0,0.0,0.0,0.0,0.0,0.0,0.0,0.0,0.0,0.0,0.0,0.0,0.0,0.0,0.0,0.0,0.0,0.0,0.0,0.0,0.0,0.0,0.0,0.0,0.0,0.0,0.0,0.0,0.0,0.0,0.0,0.0,0.0,0.0,0.0,0.0,0.0,0.0,0.4712,0.5411,0.5433,0.4761,0.4055,0.3839,0.0,0.0,0.0,0.0,0.0,0.0,0.0,0.0,0.0,0.0,0.0,0.0,0.0,0.0,0.0,0.0,0.0,0.0,0.0,0.0,0.0,0.0,0.0,0.0,0.0,0.0,0.0,0.0,0.0,0.0,0.0,0.0,0.0,0.0,0.0,0.0,0.0,0.0,0.0,0.0,0.0,0.0,0.0,0.0,0.0,0.0,0.0,0.0,0.0,0.0,0.0,0.0,0.0,0.0,0.0,0.0,0.0,0.0,0.0,0.0,0.0,0.0,0.0,0.0,0.0,0.0,0.0,0.0,0.0,0.0,0.0,0.0,0.0,0.0,0.0,0.0,0.0,0.0,0.0,0.0,0.0,0.0,0.0,0.0,0.0,0.0,0.0,0.0,0.0,0.0,0.0,0.0,0.0,0.0,0.0,0.0,0.0,0.0,0.0,0.0,0.0,0.0,0.0,0.0,0.0,0.0,0.0,0.0,0.4114,0.498,0.5495,0.5675,0.5495,0.4845,0.4328,0.0,0.0,0.0,0.0,0.0,0.0,0.0,0.0,0.0,0.0,0.0,0.0,0.0,0.0,0.0,0.0,0.0,0.0,0.0,0.0,0.0,0.0,0.0,0.0,0.0,0.0,0.0,0.0,0.0,0.0,0.0,0.0,0.0,0.0,0.0,0.0,0.0,0.0,0.0,0.0,0.0,0.0,0.0,0.0,0.0,0.0,0.0,0.0,0.0,0.0,0.0,0.0,0.0,0.0,0.0,0.0,0.0,0.0,0.0,0.0,0.0,0.0,0.0,0.0,0.0,0.0,0.0,0.0,0.0,0.0,0.0,0.0,0.0,0.0,0.0,0.0,0.0,0.0,0.0,0.0,0.0,0.0,0.0,0.0,0.0,0.0,0.0,0.0,0.0,0.0,0.0,0.0,0.0,0.0,0.0,0.0,0.0,0.0,0.0,0.0,0.0,0.0,0.0,0.0,0.0,0.0,0.0,0.0,0.4425,0.5352,0.5763,0.5929,0.5819,0.5528,0.4819,0.0,0.0,0.0,0.0,0.0,0.0,0.0,0.0,0.0,0.0,0.0,0.0,0.0,0.0,0.0,0.0,0.0,0.0,0.0,0.0,0.0,0.0,0.0,0.0,0.0,0.0,0.0,0.0,0.0,0.0,0.0,0.0,0.0,0.0,0.0,0.0,0.0,0.0,0.0,0.0,0.0,0.0,0.0,0.0,0.0,0.0,0.0,0.0,0.0,0.0,0.0,0.0,0.0,0.0,0.0,0.0,0.0,0.0,0.0,0.0,0.0,0.0,0.0,0.0,0.0,0.0,0.0,0.0,0.0,0.0,0.0,0.0,0.0,0.0,0.0,0.0,0.0,0.0,0.0,0.0,0.0,0.0,0.0,0.0,0.0,0.0,0.0,0.0,0.0,0.0,0.0,0.0,0.0,0.0,0.0,0.0,0.0,0.0,0.0,0.0,0.0,0.0,0.0,0.0,0.0,0.0,0.0,0.0,0.5137,0.5163,0.5553,0.5808,0.5874,0.5517,0.5115,0.0,0.0,0.0,0.0,0.0,0.0,0.0,0.0,0.0,0.0,0.0,0.0,0.0,0.0,0.0,0.0,0.0,0.0,0.0,0.0,0.0,0.0,0.0,0.0,0.0,0.0,0.0,0.0,0.0,0.0,0.0,0.0,0.0,0.0,0.0,0.0,0.0,0.0,0.0,0.0,0.0,0.0,0.0,0.0,0.0,0.0,0.0,0.0,0.1588,0.0,0.0,0.0,0.0,0.0,0.0,0.0,0.0,0.0,0.0,0.0,0.0,0.0,0.0,0.0,0.0,0.0,0.0,0.0,0.0,0.0,0.0,0.0,0.0,0.0,0.0,0.0,0.0,0.0,0.0,0.0,0.0,0.0,0.0,0.0,0.0,0.0,0.0,0.0,0.0,0.0,0.0,0.0,0.0,0.0,0.0,0.0,0.0,0.0,0.0,0.0,0.0,0.0,0.0,0.0,0.0,0.0,0.0,0.0,0.5231,0.5295,0.5519,0.5686,0.5797,0.5792,0.55,0.0,0.0,0.0,0.0,0.0,0.0,0.0,0.0,0.0,0.0,0.0,0.0,0.0,0.0,0.0,0.0,0.0,0.0,0.0,0.0,0.0,0.0,0.0,0.0,0.0,0.0,0.0,0.0,0.0,0.0,0.0,0.0,0.0,0.0,0.0,0.0,0.0,0.0,0.0,0.0,0.0,0.0,0.0,0.0,0.0,0.0,0.0,0.0,0.0,0.0,0.0,0.0,0.0,0.0,0.0,0.0,0.0,0.0,0.0,0.0,0.0,0.0,0.0,0.0,0.0,0.0,0.0,0.0,0.0,0.0,0.0,0.0,0.0,0.0,0.0,0.0,0.0,0.0,0.0,0.0,0.0,0.0,0.0,0.0,0.0,0.0,0.0,0.0,0.0,0.0,0.0,0.0,0.0,0.0,0.0,0.0,0.0,0.0,0.0,0.0,0.0,0.0,0.0,0.0,0.0,0.0,0.0,0.4749,0.5024,0.5457,0.5537,0.5622,0.5697,0.6068,0.584,0.4956,0.0,0.0,0.0,0.0,0.0,0.0,0.0,0.0,0.0,0.0,0.0,0.0,0.0,0.0,0.0,0.0,0.0,0.0,0.0,0.0,0.0,0.0,0.0,0.0,0.0,0.0,0.0,0.0,0.0,0.0,0.0,0.0,0.0,0.0,0.0,0.0,0.0,0.0,0.0,0.1219,0.0,0.0,0.0,0.0,0.0,0.0,0.0,0.0,0.2283,0.0,0.0,0.0,0.0,0.0,0.0,0.0,0.0,0.0,0.0,0.0,0.0,0.0,0.0,0.0,0.0,0.0,0.0,0.0,0.0,0.0,0.0,0.0,0.0,0.0,0.0,0.0,0.0,0.0,0.0,0.0,0.0,0.0,0.0,0.0,0.0,0.0,0.0,0.0,0.0,0.0,0.0,0.0,0.0,0.0,0.0,0.0,0.0,0.0,0.0,0.0,0.0,0.0,0.0,0.0,0.0,0.435,0.4378,0.4705,0.5309,0.5463,0.5587,0.5692,0.5929,0.5722,0.5023,0.0,0.0,0.0,0.0,0.0,0.0,0.0,0.0,0.0,0.0,0.0,0.0,0.0,0.0,0.0,0.0,0.0,0.0,0.0,0.0,0.0,0.0,0.0,0.0,0.0,0.0,0.0,0.0,0.0,0.0,0.0,0.0,0.0,0.0,0.0,0.0,0.0,0.0,0.0,0.1301,0.2272,0.0,0.0,0.0,0.0,0.0,0.0,0.0,0.0,0.1943,0.0,0.0,0.0,0.0,0.0,0.0,0.0,0.0,0.0,0.0,0.0,0.0,0.0,0.0,0.0,0.0,0.0,0.0,0.0,0.0,0.0,0.0,0.0,0.0,0.0,0.0,0.0,0.0,0.0,0.0,0.0,0.0,0.0,0.0,0.0,0.0,0.0,0.0,0.0,0.0,0.0,0.0,0.0,0.0,0.0,0.0,0.0,0.0,0.0,0.0,0.0,0.0,0.0,0.0,0.0,0.3879,0.3969,0.4364,0.5107,0.531,0.5473,0.5587,0.5793,0.5644,0.0,0.0,0.0,0.0,0.0,0.0,0.0,0.0,0.0,0.0,0.0,0.0,0.0,0.0,0.0,0.0,0.0,0.0,0.0,0.0,0.0,0.0,0.0,0.0,0.0,0.0,0.0,0.0,0.0,0.0,0.0,0.0,0.0,0.0,0.0,0.0,0.0,0.0,0.0,0.0,0.1264,0.2191,0.2191,0.0,0.0,0.0,0.0,0.0,0.0,0.2324,0.2198,0.0,0.0,0.0,0.0,0.0,0.0,0.0,0.0,0.0,0.0,0.0,0.0,0.0,0.0,0.0,0.0,0.0,0.0,0.0,0.0,0.0,0.0,0.0,0.0,0.0,0.0,0.0,0.0,0.0,0.0,0.0,0.0,0.0,0.0,0.0,0.0,0.0,0.0,0.0,0.0,0.0,0.0,0.0,0.0,0.0,0.0,0.0,0.0,0.0,0.0,0.0,0.0,0.0,0.0,0.0,0.3556,0.3637,0.4082,0.4923,0.5156,0.531,0.5435,0.5614,0.5517,0.0,0.0,0.0,0.0,0.0,0.0,0.0,0.0,0.0,0.0,0.0,0.0,0.0,0.0,0.0,0.0,0.0,0.0,0.0,0.0,0.0,0.0,0.0,0.0,0.0,0.0,0.0,0.0,0.0,0.0,0.0,0.0,0.0,0.0,0.0,0.0,0.0,0.0,0.0,0.0,0.0,0.2056,0.2066,0.2191,0.0,0.0,0.0,0.0,0.2312,0.2308,0.0,0.0,0.0,0.0,0.0,0.0,0.0,0.0,0.0,0.0,0.0,0.0,0.0,0.0,0.0,0.0,0.0,0.0,0.0,0.0,0.0,0.0,0.0,0.0,0.0,0.0,0.0,0.0,0.0,0.0,0.0,0.0,0.0,0.0,0.0,0.0,0.0,0.0,0.0,0.0,0.0,0.0,0.0,0.0,0.0,0.0,0.0,0.0,0.0,0.0,0.0,0.0,0.0,0.0,0.0,0.0,0.3476,0.3577,0.4016,0.4786,0.503,0.5156,0.5224,0.5377,0.5282,0.0,0.0,0.0,0.0,0.0,0.0,0.0,0.0,0.0,0.0,0.0,0.0,0.0,0.0,0.0,0.0,0.0,0.0,0.0,0.0,0.0,0.0,0.0,0.0,0.0,0.0,0.0,0.0,0.0,0.0,0.0,0.0,0.0,0.0,0.0,0.0,0.0,0.0,0.0,0.0,0.0,0.1862,0.1911,0.213,0.2322,0.0,0.0,0.2347,0.2982,0.2445,0.0,0.0,0.0,0.0,0.0,0.0,0.0,0.0,0.0,0.0,0.0,0.0,0.0,0.0,0.0,0.0,0.0,0.0,0.0,0.0,0.0,0.0,0.0,0.0,0.0,0.0,0.0,0.0,0.0,0.0,0.0,0.0,0.0,0.0,0.0,0.0,0.0,0.0,0.0,0.0,0.0,0.0,0.0,0.0,0.0,0.0,0.0,0.0,0.0,0.0,0.0,0.0,0.0,0.0,0.0,0.278,0.3367,0.3611,0.4044,0.4646,0.4814,0.4952,0.5117,0.5204,0.5095,0.0,0.0,0.0,0.0,0.0,0.0,0.0,0.0,0.0,0.0,0.0,0.0,0.0,0.0,0.0,0.0,0.0,0.0,0.0,0.0,0.0,0.0,0.0,0.0,0.0,0.0,0.0,0.0,0.0,0.0,0.0,0.0,0.0,0.0,0.0,0.0,0.0,0.0,0.0,0.0,0.0,0.0,0.2912,0.3233,0.0,0.0,0.0,0.3323,0.3364,0.0,0.0,0.0,0.0,0.0,0.0,0.0,0.0,0.0,0.0,0.0,0.0,0.0,0.0,0.0,0.0,0.0,0.0,0.0,0.0,0.0,0.0,0.0,0.0,0.0,0.0,0.0,0.0,0.0,0.0,0.0,0.0,0.0,0.0,0.0,0.0,0.0,0.0,0.0,0.0,0.0,0.0,0.0,0.0,0.0,0.0,0.0,0.0,0.0,0.0,0.0,0.0,0.0,0.0,0.0,0.0,0.0,0.3223,0.3556,0.397,0.4475,0.4584,0.4755,0.4981,0.503,0.0,0.0,0.0,0.0,0.0,0.0,0.0,0.0,0.0,0.0,0.0,0.0,0.0,0.0,0.0,0.0,0.0,0.0,0.0,0.0,0.0,0.0,0.0,0.0,0.0,0.0,0.0,0.0,0.0,0.0,0.0,0.0,0.0,0.0,0.0,0.0,0.0,0.0,0.0,0.0,0.0,0.0,0.2444,0.3732,0.4055,0.426,0.0,0.0,0.4063,0.3668,0.3897,0.3802,0.0,0.0,0.0,0.0,0.0,0.0,0.0,0.0,0.0,0.0,0.0,0.0,0.0,0.0,0.0,0.0,0.0,0.0,0.0,0.0,0.0,0.0,0.0,0.0,0.0,0.0,0.0,0.0,0.0,0.0,0.0,0.0,0.0,0.0,0.0,0.0,0.0,0.0,0.0,0.0,0.0,0.0,0.0,0.0,0.0,0.0,0.0,0.0,0.0,0.0,0.0,0.0,0.0,0.0,0.2735,0.303,0.335,0.3762,0.4211,0.435,0.4512,0.4731,0.4843,0.4707,0.0,0.0,0.0,0.0,0.0,0.0,0.0,0.0,0.0,0.0,0.0,0.0,0.0,0.0,0.0,0.0,0.0,0.0,0.0,0.0,0.0,0.0,0.0,0.0,0.0,0.0,0.0,0.0,0.0,0.0,0.0,0.0,0.0,0.0,0.0,0.0,0.0,0.0,0.0,0.0,0.0,0.2653,0.3745,0.4055,0.4289,0.0,0.4342,0.4125,0.3918,0.3911,0.3902,0.3804,0.0,0.0,0.0,0.0,0.0,0.0,0.0,0.0,0.0,0.0,0.0,0.0,0.0,0.0,0.0,0.0,0.0,0.0,0.0,0.0,0.0,0.0,0.0,0.0,0.0,0.0,0.0,0.0,0.0,0.0,0.0,0.0,0.0,0.0,0.0,0.0,0.0,0.0,0.0,0.0,0.0,0.0,0.0,0.0,0.0,0.0,0.0,0.0,0.0,0.0,0.0,0.0,0.0,0.2688,0.2866,0.3255,0.3583,0.389,0.4014,0.4199,0.4443,0.4495,0.4383,0.0,0.0,0.0,0.0,0.0,0.0,0.0,0.0,0.0,0.0,0.0,0.0,0.0,0.0,0.0,0.0,0.0,0.0,0.0,0.0,0.0,0.0,0.0,0.0,0.0,0.0,0.0,0.0,0.0,0.0,0.0,0.0,0.0,0.0,0.0,0.0,0.0,0.0,0.0,0.0,0.0,0.306,0.4641,0.4615,0.0,0.0,0.4187,0.4187,0.4097,0.4076,0.4035,0.3931,0.278,0.0,0.0,0.0,0.0,0.0,0.0,0.0,0.0,0.0,0.0,0.0,0.0,0.0,0.0,0.0,0.0,0.0,0.0,0.0,0.0,0.0,0.0,0.0,0.0,0.0,0.0,0.0,0.0,0.0,0.0,0.0,0.0,0.0,0.0,0.0,0.0,0.0,0.0,0.0,0.0,0.0,0.0,0.0,0.0,0.0,0.0,0.0,0.0,0.0,0.0,0.0,0.0,0.2648,0.274,0.3162,0.345,0.3605,0.3786,0.3973,0.4191,0.4273,0.4207,0.0,0.0,0.0,0.0,0.0,0.0,0.0,0.0,0.0,0.0,0.0,0.0,0.0,0.0,0.0,0.0,0.0,0.0,0.0,0.0,0.0,0.0,0.0,0.0,0.0,0.0,0.0,0.0,0.0,0.0,0.0,0.0,0.0,0.0,0.0,0.0,0.0,0.0,0.0,0.0,0.0,0.4579,0.5938,0.5375,0.4555,0.389,0.4022,0.4393,0.502,0.4595,0.4097,0.3828,0.0,0.0,0.0,0.0,0.0,0.0,0.0,0.0,0.0,0.0,0.0,0.0,0.0,0.0,0.0,0.0,0.0,0.0,0.0,0.0,0.0,0.0,0.0,0.0,0.0,0.0,0.0,0.3161,0.0,0.0,0.2874,0.0,0.0,0.0,0.0,0.0,0.0,0.0,0.0,0.0,0.0,0.0,0.0,0.0,0.0,0.0,0.0,0.0,0.0,0.0,0.0,0.0,0.0,0.2588,0.2627,0.3059,0.3338,0.3408,0.3654,0.3842,0.4009,0.4191,0.4191,0.3991,0.0,0.0,0.0,0.0,0.0,0.0,0.0,0.0,0.0,0.0,0.0,0.0,0.0,0.0,0.0,0.0,0.0,0.0,0.0,0.0,0.0,0.0,0.0,0.0,0.0,0.0,0.0,0.0,0.0,0.0,0.0,0.0,0.0,0.0,0.0,0.0,0.0,0.0,0.7213,0.7533,0.7489,0.7497,0.6367,0.5094,0.3794,0.3976,0.4891,0.6791,0.5478,0.405,0.0,0.0,0.0,0.0,0.0,0.0,0.0,0.0,0.0,0.0,0.0,0.0,0.0,0.0,0.0,0.0,0.0,0.0,0.0,0.0,0.0,0.0,0.0,0.0,0.0,0.0,0.0,0.3862,0.373,0.0,0.0,0.0,0.0,0.0,0.0,0.0,0.0,0.0,0.0,0.0,0.6192,0.6033,0.0,0.0,0.0,0.0,0.0,0.0,0.0,0.0,0.0,0.0,0.0,0.0,0.2679,0.2621,0.3032,0.3266,0.3336,0.3457,0.3598,0.3744,0.3924,0.4012,0.3938,0.0,0.0,0.0,0.0,0.0,0.0,0.0,0.0,0.0,0.0,0.0,0.0,0.0,0.0,0.0,0.0,0.0,0.0,0.0,0.0,0.0,0.0,0.0,0.0,0.0,0.2944,0.0,0.0,0.0,0.0,0.0,0.0,0.0,0.0,0.0,0.0,0.0,0.638,0.7459,0.759,0.759,0.759,0.7467,0.7101,0.0,0.0,0.0,0.0,0.0,0.0,0.0,0.0,0.0,0.0,0.0,0.0,0.0,0.0,0.0744,0.0093,-0.0037,0.0019,0.0205,0.0,0.0,0.0,0.0,0.0,0.0,0.0,0.0,0.0,0.0,0.0,0.0,0.0,0.0,0.3688,0.3767,0.3716,0.0,0.0,0.0,0.0,0.0,0.0,0.0,0.0,0.5981,0.6222,0.6187,0.6083,0.5945,0.0,0.588,0.5424,0.0,0.0,0.0,0.0,0.0,0.0,0.0,0.0,0.285,0.2702,0.2985,0.3159,0.3229,0.3294,0.3387,0.35,0.3758,0.3862,0.3796,0.349,0.3278,0.0,0.0,0.0,0.0,0.0,0.0,0.0,0.0,0.0,0.0,0.0,0.0,0.0,0.0,0.0,0.0,0.0,0.0,0.0,0.0,0.0,0.0,0.0,0.3904,0.0,0.0,0.0,0.0,0.0,0.0,0.0,0.0,0.0,0.3844,0.5558,0.7029,0.7635,0.7709,0.8017,0.8943,0.0,0.0,0.0,0.0,0.0,0.0,0.0,0.6045,0.5778,0.4707,0.3744,0.333,0.2772,0.2188,0.1721,0.0,0.0,-0.0045,-0.0471,-0.0561,-0.0292,-0.1342,-0.2444,-0.2869,-0.277,-0.2582,0.0,0.0,0.0,0.0,0.2984,0.0,0.0,0.0,0.2957,0.3226,0.0,0.3513,0.0,0.0,0.0,0.0,0.4531,0.5198,0.0,0.0,0.5631,0.5497,0.5495,0.5132,0.4933,0.494,0.5219,0.5087,0.4604,0.4536,0.0,0.0,0.0,0.0,0.0,0.0,0.3085,0.2819,0.2954,0.3042,0.3119,0.3189,0.3248,0.3315,0.3682,0.3789,0.3627,0.3779,0.3605,0.3048,0.2938,0.0,0.0,0.0,0.0,0.0,0.0,0.0,0.0,0.0,0.0,0.0,0.0,0.0,0.0,0.0,0.0,0.0,0.0,0.0,0.0,0.3068,0.0,0.0,0.0,0.0,0.0,0.0,0.0,0.0,0.0,0.0,0.4798,0.5664,0.6706,0.7841,0.0,0.0,0.0,0.0,1.176,1.1752,1.2505,1.321,1.3681,1.1276,0.9253,0.9149,0.0,0.0,0.2973,0.2493,0.2182,0.2162,0.2168,0.1699,0.0344,-0.0566,-0.1005,-0.0836,-0.2029,-0.3118,-0.326,-0.3033,-0.2769,0.4796,0.0,0.0,0.0,0.0,0.3785,0.3697,0.3609,0.378,0.3935,0.4115,0.4134,0.0,0.0,0.0,0.0,0.0,0.0,0.5531,0.5496,0.5631,0.5638,0.5568,0.5454,0.5366,0.5257,0.5334,0.5162,0.4766,0.4644,0.4196,0.3459,0.0,0.0,0.0,0.0,0.3129,0.3028,0.3233,0.3364,0.3315,0.3384,0.3436,0.3511,0.3534,0.3578,0.3664,0.3603,0.3499,0.341,0.291,0.0,0.0,0.0,0.0,0.0,0.0,0.0,0.0,0.0,0.0,0.0,0.0,0.0,0.0,0.0,0.0,0.0,0.0,0.0,0.1113,0.1874,0.2646,0.0,0.0,0.0,0.0,0.0,0.0,0.0,0.0,0.0,0.4961,0.5547,0.677,0.0,0.0,0.9573,1.0352,1.094,1.1415,1.1747,1.2412,0.0,1.3278,1.2572,1.128,0.9177,0.6243,0.4101,0.3902,0.3526,0.3235,0.326,0.3265,0.287,0.1648,-0.0231,-0.1449,-0.1564,-0.2148,-0.2786,-0.3155,-0.3211,-0.3118,0.5275,0.5055,0.4648,0.4395,0.4291,0.4261,0.4157,0.4048,0.4187,0.4372,0.452,0.4482,0.4633,0.4875,0.4916,0.0,0.0,0.0,0.5382,0.5203,0.5256,0.5321,0.5288,0.5353,0.5373,0.5382,0.5443,0.5267,0.4897,0.4784,0.4448,0.3914,0.0,0.0,0.327,0.3356,0.3379,0.334,0.3451,0.3473,0.3434,0.3499,0.3547,0.3531,0.3485,0.3525,0.3612,0.3547,0.3509,0.3521,0.3341,0.3097,0.0,0.0,0.0,0.0,0.0,0.0,0.0,0.0,0.0,0.0,0.0,0.0,0.0,0.0,0.0,0.0,0.0116,0.0127,0.0408,0.1337,0.0,0.0,0.0,0.0,0.0,0.0,0.0,0.2374,0.3004,0.3716,0.4394,0.5245,0.6543,0.8572,0.8931,0.9023,0.9023,0.0,1.094,1.1826,1.2287,1.2585,1.2732,1.2751,1.223,1.0891,0.9492,0.7259,0.4661,0.4194,0.4161,0.4129,0.4129,0.3863,0.2911,0.1209,-0.045,-0.1521,-0.2216,-0.277,-0.3139,-0.3285,-0.3344,0.5653,0.5344,0.4814,0.4534,0.4465,0.4446,0.432,0.4151,0.4341,0.4512,0.4709,0.4626,0.4671,0.4824,0.5008,0.0,0.5022,0.5211,0.518,0.4996,0.4739,0.4701,0.4844,0.4958,0.5131,0.5297,0.5484,0.5395,0.4981,0.4911,0.4734,0.4438,0.4117,0.3921,0.3826,0.3766,0.375,0.3754,0.3621,0.358,0.3557,0.3599,0.3568,0.3443,0.3519,0.3551,0.3516,0.3597,0.3589,0.3424,0.3957,0.3681,0.246,0.0,0.0,0.0,0.0,0.0,0.0,0.0,0.0,0.0,0.0,0.0,0.0,0.0,0.0,0.0,0.0345,0.0,0.1106,0.1344,0.0,0.0,0.0,0.2594,0.3864,0.3472,0.2837,0.2162,0.0,0.0,0.338,0.4713,0.5983,0.6889,0.7383,0.7656,0.7695,0.8981,1.0396,1.1783,1.207,1.2054,1.2054,1.2153,1.2482,1.3124,1.4216,1.209,0.6842,0.5599,0.5605,0.5812,0.5568,0.5107,0.4077,0.3171,0.1899,-0.0859,-0.2189,-0.2962,-0.3138,-0.3196,-0.3403,0.4759,0.4595,0.4431,0.4603,0.4972,0.487,0.471,0.4555,0.4547,0.4593,0.4624,0.4596,0.4695,0.4877,0.5042,0.5052,0.5,0.5164,0.5193,0.5084,0.5049,0.5034,0.5039,0.5148,0.5209,0.5163,0.5222,0.5188,0.4946,0.4803,0.4671,0.4567,0.4469,0.4345,0.419,0.4174,0.4159,0.4135,0.4133,0.4024,0.3868,0.3904,0.3883,0.3765,0.3561,0.3483,0.3576,0.3459,0.3397,0.3393,0.3777,0.3651,0.2958,0.2395,0.0,0.0,0.0,0.0,0.0,0.0,0.0,0.0,0.0,0.0206,0.0651,0.0,0.1357,0.0,0.0947,0.1172,0.1801,0.1908,0.0,0.0,0.1891,0.1977,0.234,0.2237,0.2066,0.1894,0.2373,0.277,0.2892,0.3668,0.4473,0.5264,0.6496,0.7412,0.7695,0.8784,0.9931,1.0821,1.1048,1.1062,1.1141,1.1718,1.2423,1.3103,1.3713,1.3454,1.1882,1.1536,1.1487,1.1507,1.1511,0.9863,0.5827,0.4118,0.2666,0.0435,-0.147,-0.2845,-0.3142,-0.3043,-0.2948,0.4528,0.4369,0.4369,0.4577,0.488,0.4722,0.4566,0.4435,0.4381,0.4341,0.4308,0.447,0.461,0.4788,0.4949,0.5035,0.5015,0.509,0.5104,0.5067,0.5101,0.5129,0.5188,0.5386,0.5446,0.5367,0.5396,0.5251,0.4919,0.4729,0.4563,0.4428,0.4433,0.435,0.4257,0.4293,0.4261,0.4226,0.4318,0.4285,0.4058,0.4026,0.3982,0.3873,0.365,0.35,0.3513,0.3313,0.3232,0.3351,0.3493,0.3528,0.3368,0.256,0.214,0.0,0.0,0.0,0.0,0.0,0.0,0.0,0.0,0.0,0.0,0.0,0.1013,0.1101,0.1412,0.1692,0.1948,0.1986,0.1872,0.1651,0.1629,0.1582,0.1493,0.1615,0.1718,0.1718,0.2135,0.2513,0.2679,0.3142,0.3672,0.4253,0.5352,0.6466,0.7403,0.8533,0.9526,1.0059,1.0161,1.0311,1.0632,1.1527,1.2298,1.2639,1.2926,1.3123,1.314,1.307,1.2965,1.2982,1.2965,1.2262,0.9425,0.6207,0.3598,0.1603,-0.0535,-0.2009,-0.2613,-0.2583,-0.2447,0.4467,0.4408,0.4353,0.4408,0.4388,0.4285,0.4179,0.4128,0.4106,0.4022,0.3947,0.4256,0.4475,0.4648,0.4883,0.5021,0.5021,0.5021,0.5007,0.4983,0.5027,0.5101,0.5285,0.555,0.5636,0.5631,0.5615,0.5334,0.4861,0.4656,0.4445,0.4208,0.4203,0.4224,0.4197,0.4224,0.4207,0.4151,0.4394,0.4404,0.4176,0.4074,0.4024,0.3946,0.3733,0.355,0.3419,0.3135,0.3068,0.3251,0.3229,0.3336,0.3598,0.2765,0.222,0.0,0.2022,0.0,0.0,0.0,0.0,0.0,0.0,0.0,0.0,0.1108,0.1127,0.1133,0.1665,0.1942,0.1759,0.1736,0.1604,0.1346,0.1351,0.1262,0.1058,0.1301,0.1475,0.1442,0.1778,0.2214,0.2646,0.2977,0.3245,0.3569,0.4118,0.4966,0.635,0.7685,0.8634,0.9058,0.9166,0.9396,1.026,1.1242,1.1869,1.1927,1.1933,1.1949,1.194,1.1955,1.1991,1.2096,1.2216,1.2447,1.3361,0.9283,0.5407,0.3019,0.0801,-0.0905,-0.1744,-0.1914,-0.1947,0.3805,0.3805,0.3749,0.3749,0.3799,0.3753,0.3874,0.4151,0.4029,0.401,0.4084,0.4375,0.4561,0.4698,0.5004,0.5158,0.5154,0.5158,0.5112,0.5098,0.5102,0.5146,0.5203,0.5333,0.5328,0.528,0.5183,0.4942,0.4651,0.4435,0.4332,0.426,0.426,0.4232,0.4053,0.0,0.0,0.0,0.4486,0.4526,0.4493,0.4322,0.4231,0.4204,0.3768,0.0,0.3472,0.3121,0.2966,0.3062,0.3159,0.0,0.0,0.0,0.0,0.0,0.0,0.0,0.0,0.0,0.0,0.0,0.2237,0.1872,0.1377,0.1238,0.124,0.1334,0.1445,0.1499,0.1477,0.1341,0.1118,0.0883,0.103,0.1008,0.0663,0.0689,0.0705,0.0706,0.1308,0.1942,0.2547,0.2746,0.2812,0.2878,0.301,0.32,0.3542,0.5248,0.6518,0.6859,0.7325,0.805,0.922,1.0084,1.0616,1.0656,1.0681,1.0643,1.0643,1.0643,1.093,1.1452,1.1942,1.2403,1.3067,1.2408,1.0047,0.5293,0.2603,0.0602,-0.094,-0.111,-0.1041,0.3585,0.3585,0.3585,0.3585,0.0,0.3585,0.3715,0.3917,0.3727,0.3685,0.3773,0.4016,0.4211,0.431,0.461,0.4763,0.4763,0.4763,0.4767,0.4822,0.4824,0.4902,0.5019,0.5106,0.5062,0.4893,0.4753,0.4535,0.4268,0.406,0.3972,0.3972,0.3968,0.3887,0.3812,0.3894,0.4094,0.4314,0.4474,0.4543,0.4492,0.441,0.4323,0.4215,0.3849,0.0,0.0,0.0,0.0,0.0,0.0,0.0,0.0,0.0,0.0,0.2579,0.2962,0.2991,0.2536,0.2392,0.2421,0.2586,0.2483,0.2271,0.1953,0.1673,0.1476,0.1403,0.141,0.1507,0.1704,0.1506,0.1226,0.093,0.1004,0.101,0.0808,0.0606,0.0504,0.0538,0.1008,0.1575,0.2078,0.2142,0.2145,0.2142,0.2142,0.2178,0.2278,0.3351,0.4424,0.4941,0.5602,0.6397,0.753,0.8623,0.9251,0.9251,0.9116,0.9035,0.9023,0.9008,0.936,1.0481,1.1505,1.2318,1.2577,1.2797,1.2113,0.957,0.6005,0.3115,0.1915,0.1097,0.0335,0.3634,0.3615,0.3613,0.3602,0.3585,0.3585,0.3585,0.3577,0.3477,0.0,0.0,0.3691,0.3891,0.3945,0.4195,0.4343,0.4347,0.4343,0.4383,0.45,0.457,0.4671,0.4763,0.4898,0.4797,0.4548,0.432,0.41,0.388,0.3667,0.3578,0.3578,0.3578,0.3578,0.3578,0.3751,0.396,0.4121,0.4421,0.4532,0.4423,0.4432,0.4323,0.4096,0.3868,0.369,0.357,0.3281,0.3138,0.3137,0.3022,0.2977,0.2977,0.2686,0.2691,0.3095,0.3181,0.3181,0.3074,0.2634,0.2431,0.2607,0.2566,0.254,0.2537,0.2111,0.1751,0.1558,0.1512,0.167,0.2077,0.1809,0.1477,0.1143,0.1111,0.1111,0.1078,0.0808,0.0606,0.0538,0.0773,0.1097,0.1388,0.1446,0.1408,0.1406,0.1406,0.1545,0.175,0.2413,0.3076,0.3667,0.4344,0.4985,0.5928,0.6987,0.7705,0.7618,0.7432,0.7294,0.7303,0.7333,0.7945,0.9357,1.0828,1.1615,1.1703,1.1535,1.203,1.3211,0.9796,0.635,0.6212,0.5014,0.3512,0.3825,0.3787,0.379,0.3729,0.3585,0.3585,0.3585,0.3583,0.3566,0.355,0.3589,0.386,0.3966,0.402,0.4344,0.4508,0.4508,0.4508,0.4492,0.4569,0.4649,0.4718,0.4721,0.4697,0.453,0.432,0.4104,0.3877,0.3744,0.3663,0.3578,0.3578,0.3578,0.3534,0.3442,0.3612,0.3851,0.4109,0.441,0.4573,0.4578,0.4245,0.4058,0.4016,0.3781,0.357,0.3441,0.3283,0.3205,0.3234,0.2999,0.2875,0.2977,0.2696,0.2621,0.2837,0.308,0.3031,0.2626,0.2612,0.2502,0.2244,0.2482,0.2673,0.2655,0.2301,0.205,0.1981,0.1994,0.2039,0.2078,0.1809,0.1475,0.1143,0.1078,0.1111,0.1078,0.1044,0.0875,0.0572,0.0538,0.069,0.0861,0.0793,0.0719,0.0677,0.073,0.0973,0.1767,0.2443,0.2814,0.3208,0.3602,0.4161,0.4909,0.5592,0.5944,0.5765,0.5641,0.5602,0.5672,0.589,0.6609,0.8156,0.9532,1.0235,0.9957,0.9425,0.9906,1.1271,1.1234,1.1661,1.1569,1.1249,0.9694,0.3539,0.3607,0.3607,0.3669,0.3729,0.361,0.3585,0.3585,0.3585,0.3585,0.3583,0.3749,0.3805,0.3805,0.3916,0.4024,0.4024,0.4024,0.41,0.4294,0.4423,0.4515,0.4518,0.4492,0.4316,0.41,0.384,0.3707,0.3663,0.3622,0.3578,0.3578,0.3534,0.3442,0.3442,0.3527,0.3788,0.4092,0.4443,0.4651,0.4685,0.4147,0.3917,0.4097,0.3889,0.3712,0.3555,0.3422,0.3365,0.3418,0.3195,0.3092,0.3141,0.3144,0.3198,0.3276,0.3221,0.3106,0.2884,0.2944,0.2733,0.2178,0.2656,0.2909,0.2699,0.255,0.2347,0.2114,0.2114,0.2114,0.2081,0.1809,0.1375,0.0841,0.0774,0.0774,0.0808,0.0977,0.101,0.0841,0.0841,0.0877,0.1055,0.0796,0.0477,0.0318,0.0238,0.0454,0.0931,0.1345,0.2058,0.3125,0.3563,0.3754,0.4068,0.4088,0.3991,0.3616,0.3551,0.3719,0.4048,0.4436,0.5251,0.6609,0.7972,0.8378,0.7733,0.6631,0.7224,0.9484,1.1577,1.2619,1.2836,1.2836,1.189,0.3128,0.329,0.3399,0.3572,0.3801,0.3688,0.3585,0.3585,0.3585,0.3585,0.3585,0.3585,0.3585,0.3585,0.3585,0.3585,0.3585,0.3585,0.3747,0.3996,0.4189,0.4296,0.4337,0.4353,0.4191,0.3895,0.3708,0.3674,0.3588,0.3612,0.3657,0.3585,0.3486,0.3442,0.3442,0.3578,0.384,0.4136,0.4399,0.4611,0.4745,0.4234,0.4035,0.4131,0.3991,0.3841,0.37,0.3577,0.3553,0.3543,0.3452,0.3416,0.3403,0.3584,0.3709,0.3672,0.3377,0.3212,0.3212,0.3212,0.2972,0.2398,0.2858,0.3076,0.2746,0.2679,0.258,0.2281,0.215,0.2114,0.2047,0.1711,0.1208,0.0504,0.0403,0.0381,0.043,0.076,0.1086,0.1157,0.1157,0.1237,0.1252,0.0898,0.0223,-0.04,-0.0494,-0.0494,-0.0449,-0.018,0.0716,0.183,0.2635,0.2838,0.2923,0.2528,0.2149,0.178,0.1709,0.1973,0.2438,0.2871,0.3528,0.4726,0.5921,0.6281,0.5477,0.4532,0.4998,0.7348,0.9502,1.1059,1.1209,1.1246,1.1809,0.2689,0.3017,0.3257,0.3522,0.3748,0.3634,0.3588,0.3585,0.3585,0.3585,0.3585,0.3585,0.3585,0.3585,0.3585,0.3585,0.3585,0.3585,0.3691,0.3837,0.4241,0.425,0.4076,0.4374,0.4253,0.3798,0.3801,0.3751,0.3619,0.371,0.3704,0.364,0.3578,0.3578,0.3622,0.3796,0.4012,0.4276,0.4316,0.4444,0.4692,0.4801,0.4607,0.4014,0.3986,0.3887,0.3714,0.3686,0.3677,0.3677,0.3649,0.3676,0.3644,0.3686,0.3709,0.3672,0.3372,0.3212,0.3212,0.3212,0.3171,0.3095,0.3147,0.3047,0.2746,0.2712,0.2679,0.2583,0.2317,0.2114,0.2047,0.1512,0.0841,0.0,0.0,0.0036,0.0126,0.0439,0.0921,0.1357,0.1286,0.1367,0.1247,0.0583,-0.0449,-0.1526,-0.1615,-0.166,-0.1661,-0.1661,-0.1615,-0.1164,-0.0224,0.0852,0.0926,0.085,0.0662,0.0577,0.0403,0.0469,0.077,0.1106,0.1609,0.2353,0.3314,0.3899,0.3914,0.3536,0.3784,0.513,0.6901,0.8263,0.8739,0.8858,0.9502,0.2268,0.2834,0.3047,0.3356,0.3762,0.3762,0.3645,0.3588,0.3585,0.3585,0.3585,0.3585,0.3585,0.3585,0.3585,0.3585,0.3585,0.3585,0.3694,0.3785,0.4041,0.4049,0.4035,0.4147,0.4131,0.388,0.3918,0.3866,0.3839,0.3809,0.3721,0.3595,0.3578,0.3707,0.3877,0.3965,0.4184,0.4583,0.4403,0.45,0.4834,0.4942,0.4749,0.4281,0.407,0.3911,0.3733,0.3709,0.3709,0.3709,0.3709,0.3709,0.3709,0.3709,0.3607,0.3405,0.3274,0.3212,0.3212,0.3212,0.3212,0.3212,0.3212,0.3113,0.301,0.301,0.2944,0.2679,0.2314,0.188,0.1276,0.0907,0.0538,0.0,0.0,0.0,0.0,0.018,0.0449,0.0898,0.0987,0.0988,0.0807,-0.009,-0.0987,-0.1658,-0.1749,-0.1749,-0.1749,-0.1975,-0.2201,-0.2111,-0.1479,-0.1121,-0.0979,-0.1067,-0.0964,-0.0802,-0.0838,-0.0838,-0.0703,-0.0837,-0.0569,0.0134,0.1035,0.1769,0.2103,0.2444,0.2838,0.3635,0.4097,0.5179,0.5638,0.57,0.6212,0.1816,0.2539,0.3061,0.3516,0.3854,0.3876,0.3757,0.3678,0.3645,0.3688,0.3626,0.3599,0.3585,0.3585,0.3585,0.3585,0.3585,0.3585,0.3638,0.3735,0.3863,0.3962,0.3961,0.4107,0.4072,0.4022,0.4039,0.4039,0.4012,0.3866,0.3721,0.3643,0.3622,0.3796,0.4092,0.4136,0.4403,0.4762,0.4587,0.4675,0.4941,0.4985,0.4815,0.4509,0.4243,0.3995,0.3798,0.3733,0.3709,0.3709,0.3709,0.3709,0.3709,0.3709,0.3541,0.3241,0.3212,0.3212,0.3212,0.3212,0.3212,0.3212,0.3212,0.3212,0.3212,0.3212,0.3043,0.2712,0.2314,0.168,0.0672,0.0504,0.0343,0.0,0.0,0.0,0.0,-0.009,-0.009,0.0225,0.0269,0.0315,0.018,-0.0538,-0.1166,-0.1211,-0.1211,-0.1299,-0.1435,-0.1839,-0.2201,-0.2201,-0.2201,-0.2156,-0.2201,-0.2045,-0.203,-0.1746,-0.1507,-0.1507,-0.1607,-0.1878,-0.1947,-0.077,-0.0537,-0.0101,0.0637,0.1173,0.1509,0.1642,0.2137,0.2831,0.3482,0.3298,0.3434,0.1144,0.2272,0.3515,0.4046,0.4091,0.3977,0.3859,0.3887,0.3854,0.3804,0.379,0.3642,0.3591,0.3599,0.361,0.3588,0.3585,0.3585,0.3583,0.3638,0.3846,0.3941,0.3831,0.4257,0.4287,0.4043,0.428,0.4263,0.4026,0.3873,0.3717,0.3588,0.366,0.3836,0.4104,0.4328,0.4587,0.4757,0.4898,0.4985,0.4985,0.4985,0.4881,0.47,0.4495,0.4243,0.399,0.3803,0.3709,0.3709,0.3709,0.3709,0.3709,0.3709,0.3541,0.3241,0.3212,0.3212,0.3212,0.3212,0.3212,0.3212,0.3212,0.3212,0.3212,0.3212,0.3043,0.2712,0.2383,0.1711,0.084,0.0571,0.0364,0.0085,0.0,0.0,0.0,-0.0315,-0.0629,-0.0584,-0.0494,-0.045,-0.0584,-0.0674,-0.0764,-0.0764,-0.0764,-0.0898,-0.1345,-0.1839,-0.2064,-0.2156,-0.2156,-0.2201,-0.2201,-0.2201,-0.2036,-0.1741,-0.1573,-0.1573,-0.1709,-0.1809,-0.1744,-0.1678,-0.1278,-0.0908,-0.0504,-0.0235,-0.0034,0.0268,0.0705,0.1306,0.1907,0.2111,0.2411,0.1278,0.2549,0.372,0.4191,0.4115,0.4069,0.4009,0.3931,0.389,0.3868,0.3865,0.3825,0.3808,0.3808,0.3808,0.3724,0.3593,0.3585,0.3585,0.3638,0.3799,0.3828,0.3851,0.4168,0.4258,0.418,0.4354,0.4307,0.4046,0.3965,0.3816,0.3657,0.366,0.3877,0.4192,0.4416,0.4626,0.4927,0.5111,0.5159,0.4985,0.4985,0.4947,0.4909,0.4668,0.4428,0.4014,0.3934,0.3836,0.3714,0.3709,0.3709,0.3709,0.3709,0.3541,0.3241,0.3212,0.3212,0.3212,0.3212,0.3212,0.3212,0.3212,0.3212,0.3212,0.3212,0.3076,0.2746,0.2583,0.2247,0.1878,0.1107,0.0427,0.0242,0.0,0.0,0.0,-0.018,-0.036,-0.0629,-0.0719,-0.0719,-0.0719,-0.0719,-0.0719,-0.0719,-0.0719,-0.0898,-0.1256,-0.1614,-0.1705,-0.1705,-0.1705,-0.1705,-0.1705,-0.202,-0.209,-0.1772,-0.1573,-0.1607,-0.1676,-0.1945,-0.1981,-0.2011,-0.1747,-0.168,-0.1341,-0.1475,-0.1306,-0.1107,-0.0637,0.0067,0.0604,0.1107,0.1709,0.168,0.282,0.3828,0.4251,0.4181,0.4175,0.4132,0.4047,0.3947,0.3993,0.3988,0.3894,0.3933,0.3933,0.3933,0.3795,0.3708,0.3697,0.3678,0.3696,0.3747,0.3837,0.3913,0.4079,0.4249,0.4298,0.4408,0.4331,0.4114,0.3993,0.3887,0.3663,0.3687,0.3829,0.4096,0.4276,0.4499,0.4797,0.5062,0.5116,0.4893,0.4985,0.4985,0.4918,0.4843,0.4607,0.4248,0.4019,0.3883,0.3803,0.3742,0.3709,0.3709,0.3709,0.3607,0.3372,0.3274,0.3212,0.3212,0.3212,0.3212,0.3212,0.3212,0.3212,0.3212,0.3212,0.3043,0.2779,0.2679,0.2679,0.248,0.1575,0.0727,0.0414,0.0126,0.0,0.0,0.0,0.0,-0.0584,-0.0719,-0.0719,-0.0719,-0.0719,-0.0719,-0.0719,-0.0719,-0.0854,-0.1076,-0.1166,-0.1166,-0.1166,-0.1166,-0.1299,-0.1479,-0.1884,-0.2156,-0.1919,-0.1666,-0.1643,-0.1889,-0.2123,-0.2321,-0.2301,-0.2326,-0.232,-0.238,-0.255,-0.2493,-0.2334,-0.1744,-0.0972,-0.0369,0.0303,0.094,0.2348,0.282,0.383,0.4298,0.4287,0.4284,0.4295,0.4254,0.4164,0.4121,0.4107,0.3944,0.3977,0.3958,0.3979,0.3886,0.3878,0.3939,0.3868,0.382,0.3815,0.3866,0.399,0.4157,0.4314,0.4467,0.4463,0.4385,0.418,0.4036,0.3931,0.3785,0.3677,0.37,0.37,0.3972,0.4148,0.4364,0.4718,0.4849,0.4661,0.4806,0.4849,0.4806,0.4879,0.4862,0.4649,0.4125,0.3887,0.3944,0.3798,0.3709,0.3709,0.3709,0.3677,0.3639,0.3372,0.3245,0.3212,0.3212,0.3212,0.3212,0.3212,0.3212,0.3212,0.3212,0.3043,0.2779,0.2679,0.2679,0.258,0.1978,0.1246,0.0617,0.0,0.0,0.0,0.0,-0.018,-0.0539,-0.0674,-0.0719,-0.0719,-0.0719,-0.0719,-0.0719,-0.0719,-0.0719,-0.0809,-0.0809,-0.0764,-0.0764,-0.0854,-0.0988,-0.1391,-0.1794,-0.202,-0.214,-0.1892,-0.1788,-0.2229,-0.2567,-0.2921,-0.302,-0.3217,-0.3198,-0.3004,-0.3156,-0.3127,-0.2926,-0.2402,-0.1938,-0.1273,-0.057,0.0202,0.2619,0.3159,0.3964,0.4303,0.4303,0.4303,0.4303,0.43,0.4257,0.4246,0.4235,0.4205,0.4183,0.4183,0.4186,0.4183,0.4186,0.4181,0.4077,0.3909,0.4002,0.4053,0.4062,0.4213,0.4392,0.4477,0.4463,0.4389,0.4197,0.41,0.3941,0.3792,0.3604,0.349,0.3483,0.3575,0.3707,0.3832,0.4272,0.4364,0.414,0.4188,0.432,0.4543,0.481,0.4947,0.4881,0.4697,0.4418,0.4037,0.3813,0.3709,0.3709,0.3709,0.3709,0.3709,0.3607,0.3442,0.3241,0.3245,0.3245,0.3212,0.3212,0.3212,0.3212,0.3175,0.301,0.2746,0.2679,0.2679,0.258,0.2042,0.149,0.1274,0.0,0.0,0.0,0.0,0.0,-0.0225,-0.0494,-0.0674,-0.0719,-0.0719,-0.0719,-0.0719,-0.0719,-0.0719,-0.0719,-0.0719,-0.0719,-0.0719,-0.0764,-0.0809,-0.1212,-0.1526,-0.1705,-0.202,-0.1955,-0.1946,-0.24,-0.3008,-0.3385,-0.3633,-0.385,-0.3932,-0.3765,-0.3691,-0.3676,-0.3643,-0.3298,-0.2737,-0.2115,-0.1406,-0.0672,0.2952,0.336,0.403,0.4303,0.4303,0.4303,0.4303,0.4303,0.4303,0.4303,0.43,0.43,0.4303,0.4303,0.4303,0.4303,0.4303,0.4303,0.4219,0.4077,0.4083,0.4102,0.4063,0.4225,0.4392,0.448,0.4463,0.4416,0.4324,0.4127,0.4026,0.3877,0.3592,0.3401,0.3357,0.3306,0.3347,0.3476,0.3697,0.3832,0.3796,0.3792,0.3965,0.432,0.4767,0.4941,0.4937,0.498,0.4768,0.43,0.3906,0.3719,0.3709,0.3709,0.3709,0.3709,0.3677,0.3607,0.341,0.3344,0.3278,0.3212,0.3142,0.3076,0.301,0.2911,0.2679,0.2513,0.245,0.2634,0.2857,0.2304,0.1736,0.1282,0.0636,0.0149,0.0,0.0,0.0,0.0,-0.027,-0.0494,-0.0629,-0.0719,-0.0719,-0.0719,-0.0719,-0.0719,-0.0719,-0.0719,-0.0719,-0.0719,-0.0719,-0.0854,-0.1032,-0.1211,-0.1391,-0.1705,-0.1993,-0.2115,-0.2411,-0.3177,-0.3698,-0.3764,-0.3941,-0.4361,-0.4256,-0.4292,-0.4297,-0.42,-0.4108,-0.3837,-0.3277,-0.2353,-0.1657,0.3353,0.3556,0.4097,0.4303,0.4303,0.4303,0.4303,0.4303,0.4303,0.4303,0.4303,0.4303,0.4303,0.4303,0.4303,0.4303,0.4303,0.43,0.4295,0.4249,0.417,0.4072,0.4095,0.42,0.4347,0.4467,0.4463,0.4457,0.4429,0.4294,0.4117,0.3999,0.3706,0.3441,0.3242,0.3214,0.3173,0.3214,0.3173,0.3306,0.3534,0.3568,0.37,0.402,0.4543,0.4806,0.4806,0.4893,0.4938,0.4676,0.4042,0.3709,0.3709,0.3709,0.3709,0.3709,0.3709,0.3677,0.3639,0.3471,0.3278,0.3212,0.3039,0.2773,0.2581,0.2283,0.2103,0.2058,0.2116,0.2546,0.3152,0.2677,0.1802,0.0876,0.0507,0.0273,0.0,0.0,0.0,0.0,0.0,-0.0135,-0.0539,-0.0629,-0.0719,-0.0719,-0.0719,-0.0719,-0.0719,-0.0719,-0.0719,-0.0719,-0.0719,-0.0764,-0.0943,-0.0943,-0.1122,-0.1479,-0.1839,-0.202,-0.2288,-0.3001,-0.3401,-0.353,-0.388,-0.4339,-0.4708,-0.4654,-0.4645,-0.4562,-0.4588,-0.4778,-0.4343,-0.3373,-0.2898,0.3623,0.3894,0.4167,0.4303,0.4303,0.4303,0.4303,0.4303,0.4303,0.4303,0.4303,0.4303,0.4303,0.4303,0.4303,0.4303,0.4303,0.4303,0.4303,0.4295,0.4273,0.4304,0.4267,0.4235,0.4289,0.4484,0.4467,0.4463,0.4505,0.4328,0.4123,0.3969,0.3652,0.341,0.3236,0.3093,0.2998,0.2998,0.2954,0.2998,0.309,0.3217,0.3347,0.3571,0.3924,0.4276,0.4495,0.481,0.4971,0.4853,0.4149,0.3709,0.3709,0.3709,0.3733,0.378,0.3733,0.3709,0.3677,0.362,0.3418,0.3208,0.3033,0.2576,0.1782,0.1672,0.1588,0.1673,0.1927,0.2584,0.324,0.2734,0.1796,0.0895,0.0425,0.0169,0.0,0.0,0.0,0.0,0.0,0.0,0.0,-0.045,-0.0629,-0.0674,-0.0674,-0.0674,-0.0629,-0.0629,-0.0584,-0.0674,-0.0719,-0.0719,-0.0719,-0.0719,-0.0898,-0.13,-0.1569,-0.1749,-0.202,-0.2467,-0.26,-0.26,-0.3176,-0.369,-0.4308,-0.4591,-0.4709,-0.4709,-0.4845,-0.4884,-0.4881,-0.4315,-0.4173,0.3961,0.4164,0.4233,0.4303,0.4303,0.4303,0.4303,0.4303,0.4303,0.4303,0.4303,0.4303,0.4303,0.4303,0.4303,0.4303,0.4303,0.4303,0.4303,0.43,0.4361,0.4443,0.4439,0.4386,0.441,0.4558,0.4546,0.4463,0.4508,0.4375,0.426,0.4032,0.3727,0.3489,0.3269,0.3078,0.2917,0.2923,0.2909,0.2909,0.2909,0.2954,0.3129,0.3306,0.3568,0.3961,0.4447,0.4806,0.4985,0.4848,0.4366,0.3926,0.3719,0.3709,0.3855,0.4177,0.4111,0.3941,0.3775,0.3777,0.3698,0.3454,0.3211,0.263,0.1984,0.1749,0.1705,0.147,0.2062,0.2821,0.3268,0.2779,0.1885,0.1166,0.0584,0.0315,0.027,0.0,0.0,0.0,0.0,0.0,0.0,0.0,0.0,-0.045,-0.0584,-0.0494,-0.045,0.0,-0.0494,-0.0584,-0.0674,-0.0719,-0.0719,-0.0719,-0.0719,-0.1077,-0.1345,-0.1524,-0.1884,-0.2156,-0.2245,-0.2333,-0.269,-0.3176,-0.3968,-0.4495,-0.4495,-0.4583,-0.4806,-0.4918,-0.4843,-0.4791,-0.4795,0.4303,0.4303,0.4303,0.4303,0.4303,0.4303,0.4303,0.4303,0.4303,0.4303,0.4303,0.4303,0.4303,0.4303,0.4303,0.4303,0.4303,0.4303,0.43,0.4431,0.4556,0.4686,0.4632,0.4562,0.4546,0.465,0.4528,0.4473,0.4512,0.4508,0.4379,0.4144,0.3902,0.366,0.336,0.3144,0.3001,0.2919,0.2908,0.2908,0.29,0.2929,0.2998,0.3173,0.3524,0.3961,0.4447,0.4849,0.4985,0.4985,0.4621,0.429,0.392,0.3869,0.4164,0.4697,0.4579,0.4281,0.3976,0.415,0.4145,0.3926,0.3668,0.3135,0.2456,0.2199,0.1885,0.1435,0.2328,0.2954,0.3268,0.2781,0.2199,0.157,0.1033,0.0719,0.0629,0.0,0.0,0.0,0.0,0.0,0.0,0.0,0.0,0.0,-0.0315,-0.0315,0.0,0.0,0.0,-0.045,-0.0584,-0.0719,-0.0719,-0.0719,-0.0719,-0.0809,-0.1076,-0.13,-0.1794,-0.202,-0.2156,-0.2335,-0.2645,-0.3265,-0.4056,-0.4364,-0.4316,-0.4403,-0.4583,-0.467,-0.47,-0.4669,-0.4654,0.4303,0.4303,0.4303,0.4303,0.4303,0.4303,0.4303,0.4303,0.4303,0.4303,0.4303,0.4303,0.4303,0.4303,0.43,0.4303,0.43,0.4367,0.4367,0.4558,0.4891,0.4945,0.4912,0.4739,0.4627,0.4691,0.4594,0.4522,0.4463,0.445,0.4389,0.422,0.3931,0.364,0.3435,0.3243,0.3126,0.2984,0.2962,0.296,0.2936,0.2919,0.2965,0.309,0.3527,0.4008,0.436,0.4762,0.4985,0.4961,0.489,0.4734,0.4649,0.4645,0.4758,0.4867,0.4962,0.4782,0.4706,0.4579,0.4588,0.4604,0.4174,0.3578,0.2835,0.2422,0.202,0.1703,0.2284,0.2912,0.2957,0.3226,0.2734,0.1973,0.1213,0.0719,0.0629,0.0315,0.0,0.0,0.0,0.0,0.0,0.0,0.0,0.0,0.0,0.0,0.0,0.0,0.0,0.0,-0.0405,-0.0539,-0.0539,-0.0539,-0.0539,-0.0584,-0.0808,-0.1033,-0.1481,-0.1794,-0.1841,-0.2154,-0.2603,-0.3265,-0.388,-0.4232,-0.4184,-0.4316,-0.432,-0.4364,-0.4364,-0.4408,-0.4539,0.4303,0.4303,0.4303,0.4303,0.4303,0.4303,0.4303,0.4303,0.4303,0.4303,0.4303,0.4303,0.4303,0.43,0.4431,0.4431,0.4428,0.4498,0.4628,0.4824,0.502,0.5117,0.5084,0.4853,0.4743,0.4765,0.4562,0.4529,0.4463,0.4457,0.4426,0.4355,0.4019,0.3822,0.3586,0.3372,0.3235,0.3102,0.3077,0.3067,0.2968,0.2952,0.3092,0.3277,0.37,0.414,0.4447,0.4806,0.4985,0.4985,0.4985,0.4985,0.4985,0.4985,0.4985,0.4985,0.4985,0.4985,0.4923,0.4867,0.4824,0.4966,0.4638,0.4049,0.345,0.2957,0.2645,0.233,0.2509,0.2779,0.2328,0.2912,0.2734,0.1971,0.1168,0.0719,0.0674,0.045,0.0315,0.0315,0.0,0.0,0.0,0.018,0.0,0.0,0.0,0.0,0.0,0.0,0.0,0.0,0.0,-0.0315,-0.0315,-0.0315,-0.0315,-0.0405,-0.0584,-0.0764,-0.1034,-0.1302,-0.1481,-0.1839,-0.2196,-0.2734,-0.3306,-0.366,-0.388,-0.3924,-0.3924,-0.3968,-0.3968,-0.3928,-0.4144,0.4303,0.4303,0.4303,0.4303,0.4303,0.4303,0.4303,0.4303,0.4303,0.4303,0.4303,0.4303,0.43,0.4364,0.4495,0.4558,0.4628,0.4761,0.4894,0.502,0.5156,0.517,0.5118,0.4967,0.485,0.4884,0.4609,0.4477,0.4463,0.446,0.4453,0.4453,0.4125,0.3914,0.3779,0.3573,0.3316,0.3163,0.3198,0.3218,0.3096,0.308,0.3204,0.3547,0.3965,0.4268,0.4574,0.4845,0.4985,0.4985,0.4985,0.4985,0.4985,0.4985,0.4985,0.4985,0.4985,0.4985,0.4985,0.4966,0.4966,0.4985,0.4975,0.4622,0.402,0.3799,0.3575,0.3132,0.2909,0.2284,0.1567,0.2105,0.2196,0.1658,0.1077,0.0764,0.0719,0.0719,0.0674,0.0674,0.0584,0.0539,0.045,0.0,0.0,0.0,0.0,0.0,0.0,0.0,0.0,0.0,0.0,0.0,0.0,0.0,0.0,0.0,0.0,-0.0543,-0.0723,-0.0944,-0.1167,-0.1302,-0.1658,-0.215,-0.2462,-0.2682,-0.2948,-0.3265,-0.3353,-0.3217,-0.3265,-0.3357,-0.366,0.4303,0.4303,0.4303,0.4303,0.4303,0.4303,0.4303,0.4303,0.4303,0.4303,0.4303,0.4303,0.4431,0.4495,0.4558,0.4625,0.4827,0.496,0.509,0.5156,0.5223,0.5318,0.524,0.5033,0.4921,0.4836,0.4619,0.4467,0.4463,0.4463,0.4463,0.4408,0.4132,0.3951,0.3791,0.3647,0.3482,0.3334,0.3318,0.3395,0.3388,0.3386,0.342,0.3742,0.4172,0.4464,0.4622,0.4845,0.4985,0.4985,0.4985,0.4985,0.4985,0.4985,0.4985,0.4985,0.4985,0.4985,0.4985,0.4985,0.4985,0.4985,0.4985,0.4985,0.4767,0.4679,0.4324,0.3656,0.2591,0.1612,0.1433,0.1703,0.1839,0.1615,0.1258,0.0764,0.0719,0.0719,0.0719,0.0719,0.0719,0.0674,0.0539,0.0405,0.0,0.0,0.0,0.0,0.0,0.0,0.0,0.0,0.0,0.0,0.0,0.0,0.0,0.0,0.0,0.0,-0.0503,-0.0677,-0.0854,-0.1033,-0.1033,-0.1212,-0.1479,-0.1746,-0.2059,-0.2506,-0.2509,-0.2467,-0.2645,-0.2823,-0.3001,0.4303,0.4303,0.4303,0.4303,0.4303,0.4303,0.4303,0.4303,0.4303,0.4303,0.43,0.4431,0.4495,0.4625,0.4821,0.4957,0.5093,0.5226,0.5289,0.5292,0.5359,0.5308,0.5247,0.5016,0.4887,0.4765,0.4575,0.4463,0.4463,0.4463,0.4463,0.4408,0.4187,0.3984,0.3842,0.371,0.355,0.3498,0.349,0.3536,0.3661,0.3802,0.408,0.4092,0.4402,0.4683,0.481,0.4893,0.4985,0.4985,0.4985,0.4985,0.4985,0.4985,0.4985,0.4985,0.4985,0.4985,0.4985,0.4985,0.4985,0.4985,0.4985,0.4985,0.4985,0.4898,0.4675,0.3744,0.2544,0.1389,0.1389,0.1389,0.1524,0.1614,0.1308,0.0995,0.0766,0.0722,0.0719,0.0719,0.0719,0.0674,0.0674,0.0494,0.027,0.0,0.0,0.0,0.0,0.0,0.0,0.0,0.0,0.0,0.0,0.0,0.0,0.0,0.0,0.0,-0.0281,-0.0466,-0.0639,-0.0764,-0.0719,-0.0719,-0.0898,-0.1345,-0.1526,-0.1749,-0.2018,-0.2199,-0.2245,-0.2335,-0.2556,0.4303,0.4303,0.4303,0.4303,0.4303,0.4303,0.4303,0.4303,0.4303,0.43,0.4367,0.4495,0.4625,0.4758,0.5024,0.5223,0.5428,0.5359,0.5359,0.5362,0.5359,0.5291,0.5172,0.4999,0.487,0.4775,0.4611,0.4463,0.4463,0.4463,0.4463,0.4408,0.4187,0.4021,0.3962,0.3741,0.3641,0.3585,0.3585,0.358,0.3824,0.448,0.4804,0.4459,0.4794,0.502,0.5044,0.5009,0.499,0.4985,0.4985,0.4985,0.4985,0.4985,0.4985,0.4985,0.4985,0.4985,0.4985,0.4985,0.4985,0.4985,0.4985,0.4985,0.4985,0.4898,0.4591,0.3575,0.2281,0.1433,0.1389,0.1389,0.1389,0.1452,0.1435,0.1368,0.104,0.0889,0.0721,0.0719,0.072,0.0678,0.0682,0.0674,0.045,0.0315,0.0,0.0,0.0,0.0,0.0,0.0,0.0,0.0,0.0,0.0,0.0,0.0,0.0,0.0,0.0,-0.0291,-0.0431,-0.0624,-0.0719,-0.0719,-0.0854,-0.0898,-0.1122,-0.1391,-0.1749,-0.202,-0.2111,-0.2201,-0.2335,0.4303,0.4303,0.4303,0.4303,0.4303,0.4303,0.4303,0.4308,0.4311,0.4431,0.4579,0.4634,0.4767,0.5024,0.5226,0.5359,0.5428,0.5428,0.5428,0.5428,0.5425,0.5348,0.5284,0.504,0.4914,0.4799,0.4579,0.4536,0.4463,0.4463,0.4463,0.4408,0.4187,0.4021,0.3965,0.3747,0.3585,0.3585,0.3585,0.3646,0.3893,0.4717,0.4952,0.4923,0.5087,0.5246,0.5216,0.5098,0.5013,0.4985,0.4985,0.4985,0.4985,0.4985,0.4985,0.4985,0.4985,0.4985,0.4985,0.4985,0.5037,0.5042,0.5013,0.499,0.4985,0.4941,0.4591,0.3667,0.2326,0.1567,0.1526,0.1447,0.1395,0.1469,0.1561,0.1688,0.155,0.1143,0.1004,0.0738,0.0744,0.0742,0.0742,0.0729,0.0674,0.0494,0.0,0.0,0.0,0.0,0.0,0.0,0.0,0.0,0.0,0.0,0.0,0.0,0.0,0.0,0.0,0.0,-0.0374,-0.0525,0.0,0.0,-0.0629,-0.0674,-0.0763,-0.1033,-0.1391,-0.1794,-0.2111,-0.2156,-0.2156,0.4431,0.4303,0.4303,0.4303,0.4303,0.4303,0.4338,0.4455,0.4535,0.4603,0.4736,0.4937,0.5103,0.5239,0.5359,0.5428,0.5428,0.5428,0.5428,0.5428,0.5362,0.5359,0.5219,0.5004,0.4904,0.4779,0.4609,0.4529,0.4463,0.4519,0.4463,0.4463,0.4245,0.4079,0.4021,0.3799,0.3694,0.3641,0.3638,0.3724,0.4075,0.4732,0.516,0.4919,0.5376,0.5466,0.5316,0.5226,0.5089,0.5027,0.4985,0.4985,0.4985,0.4985,0.4985,0.4985,0.4985,0.4985,0.4985,0.4985,0.5089,0.5202,0.5141,0.4985,0.4985,0.5018,0.4798,0.406,0.2951,0.2245,0.1943,0.1712,0.1619,0.168,0.1725,0.1753,0.1783,0.1621,0.1336,0.1041,0.0772,0.0783,0.0783,0.0759,0.0749,0.0651,0.0509,0.0,0.0,0.0,0.0,0.0,0.0,0.0,0.0,0.0,0.0,0.0,0.0,0.0,0.0,0.0,0.0,0.0,0.0,0.0,0.0,-0.0539,-0.0719,-0.0898,-0.1076,-0.139,-0.1705,-0.2064,-0.2064,0.4628,0.4434,0.43,0.4303,0.4303,0.4303,0.4433,0.4602,0.4746,0.4836,0.4993,0.5246,0.5358,0.5386,0.5428,0.5428,0.5428,0.5428,0.5428,0.5428,0.5355,0.5266,0.5158,0.4964,0.4913,0.4735,0.4671,0.4581,0.4574,0.4574,0.4574,0.4463,0.4304,0.4135,0.4021,0.391,0.3747,0.3585,0.3585,0.3747,0.4125,0.4831,0.5097,0.5271,0.5539,0.5741,0.5429,0.5292,0.5183,0.5027,0.4985,0.4985,0.4985,0.4985,0.4985,0.4985,0.4985,0.4985,0.4985,0.5013,0.5169,0.5268,0.5401,0.5254,0.5372,0.5297,0.5213,0.4871,0.4025,0.3355,0.2795,0.2283,0.1787,0.1758,0.1786,0.1794,0.179,0.1643,0.1566,0.1376,0.1099,0.086,0.0847,0.0804,0.0783,0.0772,0.0669,0.057,0.0596,0.0633,0.0379,0.0,0.0,0.0,0.0,0.0,0.0,0.0,0.0,0.0,0.0,0.0,0.0,0.0,0.0,0.0,0.0,0.0,-0.0719,-0.0809,-0.0898,-0.0942,-0.1211,-0.1615,-0.1839,0.496,0.4764,0.4434,0.43,0.4303,0.4303,0.4504,0.4766,0.4833,0.5038,0.5386,0.551,0.5504,0.5393,0.5428,0.5428,0.5428,0.5428,0.5428,0.5428,0.5418,0.5281,0.5152,0.5058,0.5009,0.4912,0.4867,0.4802,0.4739,0.4794,0.4739,0.4519,0.4411,0.4245,0.4079,0.3965,0.3744,0.3638,0.3585,0.3749,0.4187,0.4787,0.5261,0.5387,0.5633,0.5807,0.5594,0.5424,0.5235,0.5042,0.4994,0.4985,0.4985,0.4985,0.4985,0.4985,0.4985,0.4985,0.4985,0.4985,0.4999,0.5127,0.5368,0.5684,0.5883,0.6057,0.6056,0.5849,0.5017,0.4614,0.3865,0.3007,0.2242,0.1965,0.1909,0.1797,0.1797,0.1794,0.1719,0.1609,0.1393,0.112,0.0897,0.0851,0.0838,0.083,0.0833,0.0725,0.0736,0.0769,0.0441,0.0,0.0,0.0,0.0,0.0,0.0,0.0,0.0,0.0,0.0,0.0,0.0,0.0,0.0,0.0,0.0,0.0,-0.0529,-0.0642,-0.0725,-0.0793,-0.0687,-0.0808,-0.1121,0.509,0.4957,0.4694,0.4631,0.4634,0.4631,0.4748,0.5062,0.5154,0.539,0.5653,0.565,0.5504,0.5463,0.5428,0.5428,0.5428,0.5428,0.5428,0.5428,0.5408,0.525,0.5104,0.5064,0.5137,0.5095,0.5089,0.5066,0.5062,0.5066,0.5062,0.4901,0.4791,0.4574,0.4353,0.4021,0.3744,0.3638,0.3641,0.3749,0.4132,0.4787,0.5332,0.532,0.5851,0.5948,0.5802,0.5594,0.5387,0.5202,0.5061,0.5004,0.4985,0.4985,0.4985,0.4985,0.4985,0.4985,0.4994,0.4994,0.4985,0.5136,0.5571,0.6024,0.6128,0.614,0.6168,0.6033,0.5887,0.5449,0.4843,0.3796,0.2858,0.2411,0.2077,0.1853,0.1797,0.1797,0.1796,0.1676,0.1566,0.1402,0.1122,0.0892,0.089,0.089,0.0895,0.0897,0.0897,0.0841,0.0561,0.0336,0.0,0.0,0.0,0.0393,0.0393,0.0,0.0,0.0,0.0,0.0,0.0,0.0,0.0,0.0,0.0,0.0,-0.0311,-0.0554,-0.0598,-0.0651,-0.0484,-0.0138,-0.0406,0.5223,0.5156,0.5027,0.4897,0.4834,0.487,0.5014,0.5281,0.5491,0.5692,0.5793,0.565,0.5504,0.5396,0.5428,0.5428,0.5428,0.5428,0.5428,0.5428,0.5342,0.5155,0.5064,0.5093,0.5232,0.5242,0.5281,0.5285,0.5285,0.5344,0.5395,0.5391,0.5332,0.5117,0.4677,0.4184,0.3799,0.3638,0.3641,0.3749,0.4076,0.4842,0.5277,0.5391,0.5882,0.6042,0.592,0.5741,0.5599,0.5368,0.5164,0.5009,0.4985,0.4985,0.4985,0.4985,0.4994,0.4999,0.5004,0.5122,0.5094,0.5108,0.5377,0.5717,0.5864,0.5841,0.5807,0.6173,0.615,0.6009,0.5521,0.4798,0.4021,0.3577,0.2188,0.1797,0.1797,0.1797,0.1797,0.1794,0.1684,0.1572,0.1347,0.1066,0.0897,0.0897,0.0897,0.0897,0.0897,0.0785,0.0617,0.0393,0.0,0.0,0.0785,0.0673,0.0,0.0,0.0,0.0,0.0,0.0,0.0,0.0,0.0,0.0,0.0,0.0,0.0,-0.0499,0.0,0.0,0.0104,0.0346,0.0139,0.5362,0.5428,0.5362,0.5166,0.4922,0.5033,0.5243,0.5548,0.5725,0.5768,0.5772,0.564,0.5504,0.5389,0.5428,0.5428,0.5428,0.5428,0.5428,0.5428,0.5418,0.5189,0.5085,0.5122,0.5225,0.5202,0.5348,0.5403,0.5403,0.5673,0.5832,0.5937,0.5991,0.5773,0.5222,0.4405,0.3913,0.3638,0.3641,0.3749,0.4132,0.4842,0.5222,0.5445,0.5896,0.607,0.6006,0.5887,0.575,0.5585,0.5273,0.5094,0.4994,0.499,0.4985,0.4985,0.5061,0.5056,0.5009,0.5368,0.541,0.5207,0.5481,0.5372,0.5193,0.5221,0.5547,0.6117,0.6173,0.6173,0.6119,0.6009,0.5234,0.4294,0.291,0.1965,0.2021,0.1797,0.1797,0.1797,0.1797,0.1741,0.1572,0.1346,0.101,0.0897,0.0897,0.0897,0.0897,0.0841,0.0673,0.0617,0.0505,0.0617,0.0841,0.0897,0.0,0.0,0.0,0.0,0.0,0.0,0.0,0.0,0.0,0.0,0.0,0.0,0.0,0.0,0.0,0.0,0.0,0.0795,0.0503,0.5428,0.5428,0.5428,0.5353,0.5307,0.5356,0.558,0.5788,0.5912,0.5815,0.5688,0.5603,0.5504,0.547,0.5428,0.5428,0.5428,0.5428,0.5428,0.5428,0.5428,0.5172,0.5064,0.5132,0.5221,0.5262,0.5399,0.5622,0.5941,0.6105,0.6376,0.6588,0.6588,0.6159,0.5285,0.4463,0.4024,0.3744,0.3691,0.3749,0.4076,0.4791,0.5332,0.5332,0.5891,0.6126,0.6047,0.6006,0.5892,0.5802,0.5505,0.532,0.5131,0.507,0.5046,0.5179,0.5339,0.5514,0.5391,0.5528,0.5949,0.5755,0.5552,0.5524,0.5736,0.5752,0.5972,0.607,0.6168,0.6173,0.6173,0.6173,0.5567,0.4853,0.3688,0.2745,0.2411,0.2021,0.1797,0.1797,0.1797,0.1797,0.1684,0.1459,0.1122,0.0898,0.0897,0.0897,0.0897,0.0897,0.0785,0.0785,0.0785,0.0841,0.0897,0.0897,0.0897,0.0,0.0,0.0,0.0,0.0505,0.0,0.0,0.0,0.0,0.0,0.0,0.0,0.0,0.0,0.0,0.0,0.0605,0.0817,0.5428,0.5428,0.5428,0.5481,0.5647,0.5661,0.581,0.5993,0.5969,0.581,0.5616,0.5538,0.5457,0.5446,0.5428,0.5428,0.5428,0.5428,0.5428,0.5428,0.5428,0.5176,0.5071,0.5104,0.5174,0.523,0.5285,0.5508,0.605,0.6263,0.6647,0.7025,0.7187,0.6588,0.5736,0.5053,0.4439,0.4088,0.3851,0.3778,0.4231,0.4779,0.5277,0.55,0.5837,0.6164,0.619,0.6114,0.6015,0.5968,0.5854,0.5689,0.5472,0.5405,0.541,0.5637,0.5774,0.5911,0.5779,0.5821,0.6089,0.6084,0.5944,0.5977,0.6117,0.6079,0.6098,0.6159,0.6173,0.6119,0.6119,0.6119,0.5791,0.5018,0.4245,0.3246,0.2579,0.2188,0.1853,0.1853,0.1797,0.1797,0.1797,0.1515,0.1234,0.1066,0.0897,0.0898,0.0898,0.0897,0.0897,0.0897,0.0897,0.0897,0.0897,0.0897,0.0897,0.0897,0.0897,0.0897,0.0841,0.0729,0.0449,0.0,0.0,0.0,0.0,0.0,0.0,0.0,0.0,0.0,0.0,0.0,0.0,0.5428,0.5428,0.5428,0.5525,0.5762,0.5776,0.5881,0.6003,0.5871,0.5725,0.5569,0.5426,0.5442,0.5432,0.5428,0.5428,0.5428,0.5428,0.5428,0.5428,0.5428,0.5155,0.5102,0.5171,0.5085,0.4975,0.5069,0.5399,0.5996,0.6647,0.7139,0.7354,0.7402,0.7025,0.642,0.5853,0.5125,0.4515,0.3972,0.3897,0.4235,0.4845,0.5183,0.5445,0.5841,0.6173,0.6218,0.6244,0.6239,0.6239,0.6176,0.6185,0.6131,0.6159,0.6223,0.6213,0.6154,0.6093,0.6065,0.6145,0.6159,0.6173,0.6145,0.6218,0.6223,0.6173,0.6173,0.6119,0.6064,0.6009,0.59,0.59,0.5845,0.5073,0.4301,0.3524,0.2858,0.2411,0.2076,0.1908,0.1853,0.1797,0.1797,0.1628,0.1403,0.1346,0.1178,0.1178,0.1122,0.0954,0.0898,0.0897,0.0897,0.0897,0.0898,0.09,0.0897,0.0897,0.0897,0.0897,0.0897,0.0841,0.0673,0.0393,0.0168,0.0,0.0,0.0,0.0,0.0,0.0,0.0,0.0,0.0,0.0,0.5428,0.5428,0.5428,0.5474,0.565,0.5759,0.583,0.5857,0.581,0.5671,0.549,0.5449,0.5428,0.5428,0.5428,0.5428,0.5428,0.5428,0.5428,0.5428,0.5422,0.5162,0.505,0.504,0.4911,0.4819,0.4908,0.5348,0.6213,0.6972,0.7521,0.7735,0.7681,0.7461,0.7209,0.6855,0.5936,0.5,0.4256,0.4085,0.4245,0.4772,0.5069,0.5395,0.5841,0.6119,0.6277,0.6495,0.6549,0.6544,0.6337,0.6232,0.6173,0.6173,0.6173,0.6173,0.6173,0.6164,0.6173,0.6173,0.6173,0.6173,0.6173,0.6173,0.6173,0.6173,0.6173,0.6064,0.5622,0.5348,0.5183,0.5183,0.5293,0.5018,0.4467,0.419,0.3524,0.2914,0.2523,0.2077,0.1965,0.1797,0.1797,0.1797,0.1628,0.1572,0.1515,0.1459,0.1346,0.1066,0.0983,0.0927,0.0928,0.0937,0.0911,0.0905,0.09,0.0897,0.0897,0.0897,0.0897,0.0841,0.0785,0.0673,0.0505,0.0561,0.0,0.0,0.0,0.0,0.0,0.0,0.0,0.0,0.0,0.5428,0.5428,0.5428,0.545,0.5599,0.5742,0.5772,0.5728,0.5718,0.5576,0.5442,0.5428,0.5428,0.5428,0.5428,0.5428,0.5428,0.5428,0.5428,0.5428,0.5428,0.5162,0.504,0.4945,0.4828,0.4692,0.4849,0.534,0.6263,0.7246,0.7901,0.7901,0.7901,0.7788,0.7583,0.7273,0.6662,0.5701,0.4847,0.4419,0.4454,0.4605,0.4849,0.5175,0.5732,0.6064,0.6436,0.6652,0.6869,0.681,0.6549,0.6386,0.6332,0.6282,0.6173,0.6173,0.6173,0.6173,0.6173,0.6173,0.6173,0.6173,0.6173,0.6173,0.6173,0.6173,0.6009,0.5791,0.5073,0.4522,0.4411,0.4356,0.4632,0.4904,0.4908,0.4908,0.4245,0.3527,0.297,0.2357,0.2077,0.1853,0.1797,0.1801,0.1797,0.1741,0.1685,0.1684,0.1459,0.1178,0.1068,0.0991,0.0988,0.0987,0.0957,0.0926,0.0908,0.0903,0.0897,0.0897,0.0897,0.0897,0.0841,0.0841,0.0841,0.0841,0.0841,0.0673,0.0,0.0,0.0,0.0,0.0,0.0,0.0,0.5428,0.5428,0.5428,0.545,0.5596,0.5708,0.5688,0.5593,0.5579,0.5491,0.5442,0.5428,0.5428,0.5428,0.5428,0.5428,0.5428,0.5428,0.5428,0.5425,0.5428,0.5199,0.4992,0.4887,0.4721,0.4664,0.4901,0.5391,0.6317,0.7246,0.7901,0.7901,0.7901,0.7848,0.7716,0.7643,0.7136,0.6368,0.5616,0.5129,0.4653,0.4551,0.4595,0.4963,0.5419,0.5876,0.6391,0.6815,0.7139,0.7031,0.6923,0.681,0.6652,0.6657,0.65,0.6337,0.6391,0.6337,0.6282,0.6228,0.6232,0.6232,0.6173,0.6173,0.6173,0.6173,0.6009,0.5681,0.5018,0.4739,0.457,0.4353,0.4467,0.5125,0.549,0.5517,0.5255,0.4204,0.2914,0.2469,0.2301,0.2095,0.1917,0.1932,0.194,0.1875,0.1864,0.1871,0.1746,0.1397,0.1211,0.1104,0.1034,0.1027,0.1023,0.0987,0.093,0.0912,0.0907,0.0897,0.0897,0.0897,0.0897,0.0897,0.0897,0.0897,0.0841,0.0841,0.0729,0.0,0.0,0.0,0.0,0.0,0.0,0.5428,0.5428,0.5428,0.545,0.5569,0.5501,0.5521,0.5576,0.5464,0.547,0.5432,0.5428,0.5428,0.5428,0.5428,0.5428,0.5428,0.5428,0.5428,0.5422,0.5418,0.5186,0.4948,0.484,0.4674,0.4703,0.4956,0.5609,0.648,0.7354,0.7901,0.7901,0.7901,0.7848,0.7788,0.7749,0.7432,0.6776,0.6533,0.564,0.4745,0.4345,0.4259,0.478,0.5342,0.5798,0.6418,0.7095,0.7317,0.7317,0.7306,0.7192,0.7031,0.7306,0.6987,0.65,0.682,0.682,0.65,0.6445,0.6391,0.6306,0.6256,0.6237,0.6173,0.6178,0.6018,0.5639,0.5289,0.5066,0.4846,0.4574,0.4432,0.527,0.6079,0.6128,0.6103,0.459,0.3019,0.2693,0.2525,0.2363,0.2195,0.2116,0.2131,0.2135,0.2141,0.214,0.2119,0.1854,0.1518,0.1392,0.1197,0.1128,0.1128,0.1242,0.1234,0.1119,0.1105,0.1031,0.0957,0.0897,0.0897,0.0897,0.0897,0.1121,0.1346,0.1459,0.1234,0.0841,0.0,0.0,0.0,0.0,0.0,0.5428,0.5428,0.5428,0.5406,0.5464,0.5396,0.5476,0.546,0.5463,0.5428,0.5428,0.5428,0.5428,0.5428,0.5428,0.5428,0.5428,0.5428,0.5428,0.5422,0.5267,0.5118,0.4952,0.4799,0.4646,0.4678,0.5352,0.6046,0.6642,0.7408,0.7901,0.7901,0.7901,0.7848,0.7842,0.7735,0.7467,0.6923,0.7036,0.6211,0.49,0.4336,0.4186,0.4724,0.514,0.5644,0.6444,0.7182,0.7552,0.7606,0.7655,0.7419,0.7246,0.7246,0.7306,0.7306,0.7521,0.7735,0.7144,0.6781,0.6747,0.6644,0.6721,0.6844,0.688,0.687,0.6544,0.616,0.5881,0.5622,0.5622,0.5458,0.4853,0.5177,0.6069,0.6608,0.5754,0.4423,0.3527,0.3195,0.2967,0.2586,0.2428,0.2172,0.2185,0.2185,0.2213,0.2216,0.2218,0.2221,0.1884,0.1681,0.1479,0.1547,0.1674,0.173,0.1699,0.1567,0.1385,0.1468,0.1443,0.1076,0.0898,0.1237,0.1518,0.1794,0.1964,0.2216,0.1916,0.1459,0.1066,0.0,0.0729,0.0898,0.0,0.5428,0.5428,0.5428,0.5428,0.5428,0.5428,0.5432,0.5432,0.5428,0.5428,0.5428,0.5428,0.5428,0.5428,0.5428,0.5428,0.5428,0.5428,0.5428,0.5284,0.5196,0.5033,0.4897,0.4838,0.4683,0.4964,0.5618,0.61,0.6647,0.7413,0.7901,0.7901,0.7848,0.7788,0.7676,0.7467,0.7209,0.6861,0.6629,0.616,0.5235,0.4327,0.4366,0.4537,0.4845,0.5441,0.6308,0.714,0.7728,0.7961,0.804,0.7964,0.7835,0.7892,0.8128,0.8365,0.8712,0.8622,0.8139,0.7595,0.7417,0.7307,0.7474,0.7437,0.7452,0.7312,0.6922,0.6738,0.6445,0.6304,0.6365,0.6253,0.5628,0.5305,0.6218,0.6793,0.5602,0.4541,0.425,0.3866,0.3501,0.3125,0.248,0.222,0.2221,0.2221,0.2221,0.2221,0.2221,0.2221,0.2085,0.2018,0.1884,0.2018,0.2153,0.2078,0.1998,0.2049,0.1971,0.202,0.1886,0.1372,0.1349,0.1979,0.2259,0.2924,0.3033,0.3226,0.2777,0.2331,0.1572,0.1345,0.2235,0.2359,0.2232,0.5428,0.5428,0.5428,0.5428,0.5428,0.5428,0.5428,0.5428,0.5428,0.5428,0.5428,0.5428,0.5428,0.5428,0.5428,0.5428,0.5428,0.5428,0.5267,0.5172,0.5131,0.4958,0.4816,0.4807,0.478,0.5206,0.5817,0.6282,0.6884,0.7552,0.7925,0.7961,0.7943,0.7824,0.7543,0.7307,0.7054,0.6718,0.6463,0.6076,0.5229,0.4589,0.4451,0.4571,0.4785,0.5555,0.6444,0.7571,0.8044,0.8288,0.848,0.8628,0.8692,0.8786,0.909,0.9525,0.9937,0.9888,0.9412,0.8841,0.8577,0.8253,0.817,0.7588,0.7539,0.7493,0.7302,0.7302,0.7088,0.7092,0.7092,0.7092,0.6697,0.6424,0.6819,0.6535,0.5811,0.5481,0.5209,0.4839,0.4476,0.3551,0.2351,0.2221,0.2221,0.2221,0.2221,0.2221,0.2221,0.2221,0.2221,0.2221,0.2221,0.2221,0.2154,0.2287,0.2278,0.2418,0.2649,0.2876,0.2552,0.148,0.1575,0.2426,0.363,0.4547,0.4565,0.4111,0.4003,0.346,0.2331,0.2076,0.3132,0.3735,0.3572]}]]